[[{"header":{"parameterUnit":"m.s-1","parameterCategory":1,"la1":30.6,"la2":28.766,"lo1":-90.7593,"lo2":-88.6598,"dy":0.0162,"dx":0.0183,"nx":116,"ny":114,"refTime":"2024-05-01T12:00:00:Z","depth":0,"parameterNumber":2,"parameterNumberName":"U-component_of_WINDS"},"data":[0.0,0.0,0.0,0.0,0.0,0.0,0.0,0.0,0.0,0.0,0.0,0.0,0.0,0.0,0.0,0.0,0.0,0.0,0.0,0.0,0.0,0.0,0.0,0.0,0.0,0.0,0.0,0.0,0.0,0.0,0.0,0.0,0.0,0.0,0.0,0.0,0.0,0.0,0.0,0.0,0.0,0.0,0.0,0.0,0.0,0.0,0.0,0.0,0.0,0.0,0.0,0.0,0.0,0.0,0.0,0.0,0.0,0.0,0.0,0.0,0.0,0.0,0.0,0.0,0.0,0.0,0.0,0.0,0.0,0.0,0.0,0.0,0.0,0.0,0.0,0.0,0.0,0.0,0.0,0.0,0.0,0.0,0.0,0.0,0.0,0.0,0.0,0.0,0.0,0.0,0.0,0.0,0.0,0.0,0.0,0.0,0.0,0.0,0.0,0.0,0.0,0.0,0.0,0.0,0.0,0.0,0.0,0.0,0.0,0.0,0.0,0.0,0.0,0.0,0.0,0.0,0.0,0.0,0.0,0.0,0.0,0.0,0.0,0.0,0.0,0.0,0.0,0.0,0.0,0.0,0.0,0.0,0.0,0.0,0.0,0.0,0.0,0.0,0.0,0.0,0.0,0.0,0.0,0.0,0.0,0.0,0.0,0.0,0.0,0.0,0.0,0.0,0.0,0.0,0.0,0.0,0.0,0.0,0.0,0.0,0.0,0.0,0.0,0.0,0.0,0.0,0.0,0.0,0.0,0.0,0.0,0.0,0.0,0.0,0.0,0.0,0.0,0.0,0.0,0.0,0.0,0.0,0.0,0.0,0.0,0.0,0.0,0.0,0.0,0.0,0.0,0.0,0.0,0.0,0.0,0.0,0.0,0.0,0.0,0.0,0.0,0.0,0.0,0.0,0.0,0.0,0.0,0.0,0.0,0.0,0.0,0.0,0.0,0.0,0.0,0.0,0.0,0.0,0.0,0.0,0.0,0.0,0.0,0.0,0.0,0.0,0.0,0.0,0.0,0.0,0.0,0.0,0.0,0.0,0.0,0.0,0.0,0.0,0.0,0.0,0.0,0.0,0.0,0.0,0.0,0.0,0.0,0.0,0.0,0.0,0.0,0.0,0.0,0.0,0.0,0.0,0.0,0.0,0.0,0.0,0.0,0.0,0.0,0.0,0.0,0.0,0.0,0.0,0.0,0.0,0.0,0.0,0.0,0.0,0.0,0.0,0.0,0.0,0.0,0.0,0.0,0.0,0.0,0.0,0.0,0.0,0.0,0.0,0.0,0.0,0.0,0.0,0.0,0.0,0.0,0.0,0.0,0.0,0.0,0.0,0.0,0.0,0.0,0.0,0.0,0.0,0.0,0.0,0.0,0.0,0.0,0.0,0.0,0.0,0.0,0.0,0.0,0.0,0.0,0.0,0.0,0.0,0.0,0.0,0.0,0.0,0.0,0.0,0.0,0.0,0.0,0.0,0.0,0.0,0.0,0.0,0.0,0.0,0.0,0.0,0.0,0.0,0.0,0.0,0.0,0.0,0.0,0.0,0.0,0.0,0.0,0.0,0.0,0.0,0.0,0.0,0.0,0.0,0.0,0.0,0.0,0.0,0.0,0.0,0.0,0.0,0.0,0.0,0.0,0.0,0.0,0.0,0.0,0.0,0.0,0.0,0.0,0.0,0.0,0.0,0.0,0.0,0.0,0.0,0.0,0.0,0.0,0.0,0.0,0.0,0.0,0.0,0.0,0.0,0.0,0.0,0.0,0.0,0.0,0.0,0.0,0.0,0.0,0.0,0.0,0.0,0.0,0.0,0.0,0.0,0.0,0.0,0.0,0.0,0.0,0.0,0.0,0.0,0.0,0.0,0.0,0.0,0.0,0.0,0.0,0.0,0.0,0.0,0.0,0.0,0.0,0.0,0.0,0.0,0.0,0.0,0.0,0.0,0.0,0.0,0.0,0.0,0.0,0.0,0.0,0.0,0.0,0.0,0.0,0.0,0.0,0.0,0.0,0.0,0.0,0.0,0.0,0.0,0.0,0.0,0.0,0.0,0.0,0.0,0.0,0.0,0.0,0.0,0.0,0.0,0.0,0.0,0.0,0.0,0.0,0.0,0.0,0.0,0.0,0.0,0.0,0.0,0.0,0.0,0.0,0.0,0.0,0.0,0.0,0.0,0.0,0.0,0.0,0.0,0.0,0.0,0.0,0.0,0.0,0.0,0.0,0.0,0.0,0.0,0.0,0.0,0.0,0.0,0.0,0.0,0.0,0.0,0.0,0.0,0.0,0.0,0.0,0.0,0.0,0.0,0.0,0.0,0.0,0.0,0.0,0.0,0.0,0.0,0.0,0.0,0.0,0.0,0.0,0.0,0.0,0.0,0.0,0.0,0.0,0.0,0.0,0.0,0.0,0.0,0.0,0.0,0.0,0.0,0.0,0.0,0.0,0.0,0.0,0.0,0.0,0.0,0.0,0.0,0.0,0.0,0.0,0.0,0.0,0.0,0.0,0.0,0.0,0.0,0.0,0.0,0.0,0.0,0.0,0.0,0.0,0.0,0.0,0.0,0.0,0.0,0.0,0.0,0.0,0.0,0.0,0.0,0.0,0.0,0.0,0.0,0.0,0.0,0.0,0.0,0.0,0.0,0.0,0.0,0.0,0.0,0.0,0.0,0.0,0.0,0.0,0.0,0.0,0.0,0.0,0.0,0.0,0.0,0.0,0.0,0.0,0.0,0.0,0.0,0.0,0.0,0.0,0.0,0.0,0.0,0.0,0.0,0.0,0.0,0.0,0.0,0.0,0.0,0.0,0.0,0.0,0.0,0.0,0.0,0.0,0.0,0.0,0.0,0.0,0.0,0.0,0.0,0.0,0.0,0.0,0.0,0.0,0.0,0.0,0.0,0.0,0.0,0.0,0.0,0.0,0.0,0.0,0.0,0.0,0.0,0.0,0.0,0.0,0.0,0.0,0.0,0.0,0.0,0.0,0.0,0.0,0.0,0.0,0.0,0.0,0.0,0.0,0.0,0.0,0.0,0.0,0.0,0.0,0.0,0.0,0.0,0.0,0.0,0.0,0.0,0.0,0.0,0.0,0.0,0.0,0.0,0.0,0.0,0.0,0.0,0.0,0.0,0.0,0.0,0.0,0.0,0.0,0.0,0.0,0.0,0.0,0.0,0.0,0.0,0.0,0.0,0.0,0.0,0.0,0.0,0.0,0.0,0.0,0.0,0.0,0.0,0.0,0.0,0.0,0.0,0.0,0.0,0.0,0.0,0.0,0.0,0.0,0.0,0.0,0.0,0.0,0.0,0.0,0.0,0.0,0.0,0.0,0.0,0.0,0.0,0.0,0.0,0.0,0.0,0.0,0.0,0.0,0.0,0.0,0.0,0.0,0.0,0.0,0.0,0.0,0.0,0.0,0.0,0.0,0.0,0.0,0.0,0.0,0.0,0.0,0.0,0.0,0.0,0.0,0.0,0.0,0.0,0.0,0.0,0.0,0.0,0.0,0.0,0.0,0.0,0.0,0.0,0.0,0.0,0.0,0.0,0.0,0.0,0.0,0.0,0.0,0.0,0.0,0.0,0.0,0.0,0.0,0.0,0.0,0.0,0.0,0.0,0.0,0.0,0.0,0.0,0.0,0.0,0.0,0.0,0.0,0.0,0.0,0.0,0.0,0.0,0.0,0.0,0.0,0.0,0.0,0.0,0.0,0.0,0.0,0.0,0.0,0.0,0.0,0.0,0.0,0.0,0.0,0.0,0.0,0.0,0.0,0.0,0.0,0.0,0.0,0.0,0.0,0.0,0.0,0.0,0.0,0.0,0.0,0.0,0.0,0.0,0.0,0.0,0.0,0.0,0.0,0.0,0.0,0.0,0.0,0.0,0.0,0.0,0.0,0.0,0.0,0.0,0.0,0.0,0.0,0.0,0.0,0.0,0.0,0.0,0.0,0.0,0.0,0.0,0.0,0.0,0.0,0.0,0.0,0.0,0.0,0.0,0.0,0.0,0.0,0.0,0.0,0.0,0.0,0.0,0.0,0.0,0.0,0.0,0.0,0.0,0.0,0.0,0.0,0.0,0.0,0.0,0.0,0.0,0.0,0.0,0.0,0.0,0.0,0.0,0.0,0.0,0.0,0.0,0.0,0.0,0.0,0.0,0.0,0.0,0.0,0.0,0.0,0.0,0.0,0.0,0.0,0.0,0.0,0.0,0.0,0.0,0.0,0.0,0.0,0.0,0.0,0.0,0.0,0.0,0.0,0.0,0.0,0.0,0.0,0.0,0.0,0.0,0.0,0.0,0.0,0.0,0.0,0.0,0.0,0.0,0.0,0.0,0.0,0.0,0.0,0.0,0.0,0.0,0.0,0.0,0.0,0.0,0.0,0.0,0.0,0.0,0.0,0.0,0.0,0.0,0.0,0.0,0.0,0.0,0.0,0.0,0.0,0.0,0.0,0.0,0.0,0.0,0.0,0.0,0.0,0.0,0.0,0.0,0.0,0.0,0.0,0.0,0.0,0.0,0.0,0.0,0.0,0.0,0.0,0.0,0.0,0.0,0.0,0.0,0.0,0.0,0.0,0.0,0.0,0.0,0.0,0.0,0.0,0.0,0.0,0.0,0.0,0.0,0.0,0.0,0.0,0.0,0.0,0.0,0.0,0.0,0.0,0.0,0.0,0.0,0.0,0.0,0.0,0.0,0.0,0.0,0.0,0.0,0.0,0.0,0.0,0.0,0.0,0.0,0.0,0.0,0.0,0.0,0.0,0.0,0.0,0.0,0.0,0.0,0.0,0.0,0.0,0.0,0.0,0.0,0.0,0.0,0.0,0.0,0.0,0.0,0.0,0.0,0.0,0.0,0.0,0.0,0.0,0.0,0.0,0.0,0.0,0.0,0.0,0.0,0.0,0.0,0.0,0.0,0.0,0.0,0.0,0.0,0.0,0.0,0.0,0.0,0.0,0.0,0.0,0.0,0.0,0.0,0.0,0.0,0.0,0.0,0.0,0.0,0.0,0.0,0.0,0.0,0.0,0.0,0.0,0.0,0.0,0.0,0.0,0.0,0.0,0.0,0.0,0.0,0.0,0.0,0.0,0.0,0.0,0.0,0.0,0.0,0.0,0.0,0.0,0.0,0.0,0.0,0.0,0.0,0.0,0.0,0.0,0.0,0.0,0.0,0.0,0.0,0.0,0.0,0.0,0.0,0.0,0.0,0.0,0.0,0.0,0.0,0.0,0.0,0.0,0.0,0.0,0.0,0.0,0.0,0.0,0.0,0.0,0.0,0.0,0.0,0.0,0.0,0.0,0.0,0.0,0.0,0.0,0.0,0.0,0.0,0.0,0.0,0.0,0.0,0.0,0.0,0.0,0.0,0.0,0.0,0.0,0.0,0.0,0.0,0.0,0.0,0.0,0.0,0.0,0.0,0.0,0.0,0.0,0.0,0.0,0.0,0.0,0.0,0.0,0.0,0.0,0.0,0.0,0.0,0.0,0.0,0.0,0.0,0.0,0.0,0.0,0.0,0.0,0.0,0.0,0.0,0.0,0.0,0.0,0.0,0.0,0.0,0.0,0.0,0.0,0.0,0.0,0.0,0.0,0.0,0.0,0.0,0.0,0.0,0.0,0.0,0.0,0.0,0.0,0.0,0.0,0.0,0.0,0.0,0.0,0.0,0.0,0.0,0.0,0.0,0.0,0.0,0.0,0.0,0.0,0.0,0.0,0.0,0.0,0.0,0.0,0.0,0.0,0.0,0.0,0.0,0.0,0.0,0.0,0.0,0.0,0.0,0.0,0.0,0.0,0.0,0.0,0.0,0.0,0.0,0.0,0.0,0.0,0.0,0.0,0.0,0.0,0.0,0.0,0.0,0.0,0.0,0.0,0.0,0.0,0.0,0.0,0.0,0.0,0.0,0.0,0.0,0.0,0.0,0.0,0.0,0.0,0.0,0.0,0.0,0.0,0.0,0.0,0.0,0.0,0.0,0.0,0.0,0.0,0.0,0.0,0.0,0.0,0.0,0.0,0.0,0.0,0.0,0.0,0.0,0.0,0.0,0.0,0.0,0.0,0.0,0.0,0.0,0.0,0.0,0.0,0.0,0.0,0.0,0.0,0.0,-4.2328,-4.0951,0.0,0.0,0.0,0.0,0.0,0.0,0.0,0.0,0.0,0.0,0.0,0.0,0.0,0.0,0.0,0.0,0.0,0.0,0.0,0.0,0.0,0.0,0.0,-4.3509,-4.3509,-4.3143,-4.3295,-4.3372,-4.3355,0.0,0.0,0.0,0.0,0.0,-4.3641,-4.4324,-4.4613,-4.4412,-4.5097,-4.5052,-4.4259,-4.4808,-4.5105,-4.5098,0.0,0.0,0.0,0.0,0.0,0.0,0.0,0.0,0.0,0.0,0.0,0.0,0.0,0.0,0.0,0.0,0.0,0.0,0.0,0.0,0.0,0.0,0.0,0.0,0.0,0.0,0.0,0.0,0.0,0.0,0.0,0.0,0.0,0.0,0.0,0.0,0.0,0.0,0.0,0.0,0.0,0.0,0.0,0.0,0.0,0.0,0.0,0.0,0.0,0.0,0.0,0.0,0.0,0.0,0.0,0.0,0.0,0.0,0.0,0.0,0.0,0.0,0.0,0.0,0.0,0.0,0.0,0.0,0.0,0.0,-4.1227,-4.0988,0.0,0.0,0.0,0.0,0.0,0.0,0.0,0.0,0.0,0.0,0.0,0.0,0.0,0.0,0.0,0.0,0.0,0.0,0.0,0.0,0.0,-4.2602,-4.2413,-4.2867,-4.2959,-4.2412,-4.2851,-4.3052,-4.2803,-4.2834,0.0,0.0,0.0,-4.2961,-4.3184,-4.3809,-4.4154,-4.4172,-4.4594,-4.4643,-4.4289,-4.3952,-4.3811,-4.387,-4.4627,0.0,0.0,0.0,0.0,0.0,0.0,0.0,0.0,0.0,0.0,0.0,0.0,0.0,0.0,0.0,0.0,0.0,0.0,0.0,0.0,0.0,0.0,0.0,0.0,0.0,0.0,0.0,0.0,0.0,0.0,0.0,0.0,0.0,0.0,0.0,0.0,0.0,0.0,0.0,0.0,0.0,0.0,0.0,0.0,0.0,0.0,0.0,0.0,0.0,0.0,0.0,0.0,0.0,0.0,0.0,0.0,0.0,0.0,0.0,0.0,0.0,0.0,0.0,-3.9922,-3.9237,-3.8029,-3.8472,-3.8296,-3.777,-4.0073,-4.084,-4.0376,-3.9387,0.0,0.0,0.0,0.0,0.0,0.0,0.0,0.0,0.0,0.0,0.0,0.0,0.0,0.0,0.0,0.0,0.0,0.0,0.0,-4.1916,-4.2349,-4.2302,-4.2061,-4.1541,-4.1787,-4.19,-4.1574,-4.1787,-4.219,-4.2679,-4.2221,-4.2478,-4.3524,-4.3794,-4.3976,-4.4015,-4.3533,-4.3352,-4.3442,-4.2875,-4.2691,-4.2867,-4.4592,-4.5504,-4.5796,0.0,0.0,0.0,0.0,0.0,0.0,0.0,0.0,0.0,0.0,0.0,0.0,0.0,0.0,0.0,0.0,0.0,0.0,0.0,0.0,0.0,0.0,0.0,0.0,0.0,0.0,0.0,0.0,0.0,0.0,0.0,0.0,0.0,0.0,0.0,0.0,0.0,0.0,0.0,0.0,0.0,-4.1143,-4.0386,0.0,0.0,0.0,0.0,0.0,0.0,0.0,0.0,0.0,0.0,0.0,0.0,0.0,-3.9155,-4.0177,-3.9105,-3.9009,-3.9926,-3.9926,-3.9668,-3.9201,-3.9503,-3.9258,-3.8724,-3.9074,0.0,-3.8721,-3.8792,0.0,0.0,0.0,0.0,0.0,0.0,0.0,0.0,0.0,0.0,0.0,0.0,0.0,0.0,0.0,0.0,0.0,0.0,0.0,0.0,0.0,-4.144,-4.1292,-4.0737,-4.0992,-4.1078,-4.0808,-4.116,-4.1459,-4.1689,-4.1574,-4.1873,-4.2687,-4.3313,-4.3653,-4.3716,-4.2882,-4.2427,-4.236,-4.1924,-4.2153,-4.2965,-4.4061,-4.4745,-4.5143,-4.5333,0.0,0.0,0.0,0.0,0.0,0.0,0.0,0.0,0.0,0.0,0.0,0.0,0.0,0.0,0.0,0.0,0.0,0.0,0.0,0.0,0.0,0.0,0.0,0.0,0.0,0.0,0.0,0.0,0.0,0.0,0.0,0.0,0.0,0.0,0.0,0.0,0.0,0.0,0.0,-4.1862,-4.1358,-4.0461,-4.0377,-4.0193,0.0,0.0,0.0,0.0,0.0,0.0,0.0,0.0,0.0,-3.999,-3.9222,-3.9141,-3.9794,-3.9288,-3.9231,-3.9716,-3.9716,-3.9633,-3.9525,-3.9442,-3.9183,-3.8799,-3.8876,-3.8745,-3.8494,-3.8392,-3.8117,-3.7786,0.0,0.0,0.0,0.0,-3.7943,-3.7767,0.0,0.0,0.0,0.0,0.0,0.0,0.0,0.0,0.0,0.0,0.0,0.0,-4.0385,-4.0632,-4.0543,-3.99,-4.0252,-4.0399,-4.0168,-4.0484,-4.082,-4.1198,-4.1229,-4.1554,-4.2306,-4.2721,-4.2993,-4.3106,-4.2162,-4.1639,-4.1483,-4.1313,-4.1753,-4.2768,-4.3224,-4.3816,-4.4396,-4.4761,-4.4554,-4.4037,0.0,0.0,0.0,0.0,0.0,0.0,0.0,0.0,0.0,0.0,0.0,0.0,0.0,0.0,0.0,0.0,0.0,0.0,0.0,0.0,0.0,0.0,0.0,0.0,0.0,0.0,0.0,0.0,0.0,0.0,0.0,0.0,0.0,0.0,0.0,0.0,0.0,-4.1897,-4.1335,-4.0346,-4.0206,-3.9991,0.0,0.0,0.0,0.0,0.0,0.0,-3.9353,-3.8922,-3.8933,-3.9579,-3.9203,-3.9265,-3.9808,-3.9808,-3.9899,-4.0043,-4.0043,-3.9965,-3.9904,-3.9662,-3.9312,-3.8987,-3.895,-3.8847,-3.8593,-3.8327,-3.827,-3.8285,-3.7979,-3.7565,-3.7222,-3.7777,-3.78,-3.7591,0.0,0.0,0.0,0.0,0.0,0.0,0.0,0.0,0.0,0.0,0.0,-3.9824,-3.9915,-4.0173,-3.9928,-3.8951,-3.9587,-3.9869,-3.9484,-3.9658,-4.036,-4.1704,-4.1295,-4.1663,-4.3113,-4.2187,-4.1821,-4.2073,-4.1251,-4.0972,-4.1218,-4.1278,-4.137,-4.1517,-4.1973,-4.2896,-4.4024,-4.3782,-4.3579,-4.3408,-4.3341,0.0,0.0,0.0,0.0,0.0,0.0,0.0,0.0,0.0,0.0,0.0,0.0,0.0,0.0,0.0,0.0,0.0,0.0,0.0,0.0,0.0,0.0,0.0,0.0,0.0,0.0,0.0,0.0,0.0,0.0,0.0,0.0,0.0,0.0,0.0,0.0,0.0,0.0,-3.9843,-3.9578,0.0,0.0,0.0,0.0,-3.9336,-3.8904,-3.8647,-3.8647,-3.8207,-3.83,-3.9097,-3.8864,-3.9246,-4.0357,-4.037,-4.0657,-4.1219,-4.1219,-4.1044,-4.0751,-4.0711,-4.0382,-3.9802,-3.9308,-3.8918,-3.8712,-3.8794,-3.8545,-3.8075,-3.7832,-3.7371,-3.6807,-3.6866,-3.6994,-3.7149,0.0,0.0,0.0,-3.6421,-3.6273,-3.6106,-3.6337,-3.7487,-3.8295,-3.8259,-3.932,-4.0044,-3.9971,-4.0052,-3.994,-3.9489,-3.9576,-3.9642,-3.9445,-4.0003,-4.0462,-4.0713,-4.102,-4.1539,-4.221,-4.1953,-4.1867,-4.1924,-4.1424,-4.1361,-4.1726,-4.1745,-4.2031,-4.2588,-4.2716,-4.3128,-4.3629,-4.3543,-4.3514,-4.3469,-4.3372,-4.3494,0.0,0.0,0.0,0.0,0.0,0.0,0.0,0.0,0.0,0.0,0.0,0.0,0.0,0.0,0.0,0.0,0.0,0.0,0.0,0.0,0.0,0.0,0.0,0.0,0.0,0.0,0.0,0.0,0.0,0.0,0.0,0.0,0.0,0.0,0.0,0.0,0.0,-4.0181,-4.0024,0.0,-3.8701,-3.9023,-3.9056,-3.8421,-3.8253,-3.8161,-3.8161,-3.7992,-3.8194,-3.8804,-3.9136,-3.9651,-4.0409,-4.0801,-4.1002,-4.1047,-4.1211,-4.1156,-4.0872,-4.0641,-4.0402,-4.0215,-3.9794,-3.9333,-3.8944,-3.9011,-3.8711,-3.8135,-3.8045,-3.7822,-3.7503,-3.7638,-3.7548,-3.7382,0.0,-3.5613,0.0,-3.6225,-3.5946,-3.5722,-3.6244,-3.7191,-3.787,-3.7895,-3.8981,-3.9765,-3.9778,-3.9979,-4.0032,-3.9725,-3.9629,-3.9595,-3.958,-4.0078,-4.0405,-4.0395,-4.0981,-4.1448,-4.1659,-4.1525,-4.1581,-4.1866,-4.153,-4.1537,-4.1944,-4.2004,-4.2349,-4.2957,-4.3053,-4.3203,-4.3366,-4.3483,-4.3587,-4.3619,-4.3438,-4.3509,-4.3605,0.0,0.0,0.0,0.0,0.0,0.0,0.0,0.0,0.0,0.0,0.0,0.0,0.0,0.0,0.0,0.0,0.0,0.0,0.0,0.0,0.0,0.0,0.0,0.0,0.0,0.0,0.0,0.0,0.0,0.0,0.0,0.0,0.0,0.0,-4.1029,-4.0503,-3.9793,-3.9706,-3.9322,-3.833,-3.8472,-3.852,-3.8115,-3.8128,-3.8174,-3.8174,-3.8174,-3.8344,-3.8697,-3.9475,-3.9913,-3.9976,-4.0968,-4.1106,-4.0511,-4.0869,-4.0959,-4.0782,-4.0644,-4.0562,-4.0535,-4.0095,-3.9677,-3.926,-3.8956,-3.8523,-3.8089,-3.8258,-3.8185,-3.7968,-3.8269,-3.8103,-3.7813,0.0,-3.5174,-3.5498,-3.5347,-3.5513,-3.5858,-3.6415,-3.6887,-3.7334,-3.765,-3.8288,-3.8876,-3.9346,-4.0017,-4.0169,-3.9598,-3.9714,-3.9802,-3.9718,-3.9788,-4.0196,-4.0972,-4.1269,-4.144,-4.1601,-4.089,-4.0936,-4.1755,-4.1396,-4.1426,-4.1842,-4.2016,-4.2213,-4.2484,-4.2741,-4.3032,-4.3273,-4.3471,-4.3712,-4.3849,-4.3481,-4.3281,-4.3205,0.0,0.0,0.0,0.0,0.0,0.0,0.0,0.0,0.0,0.0,0.0,0.0,0.0,0.0,0.0,0.0,0.0,0.0,0.0,0.0,0.0,0.0,0.0,0.0,0.0,0.0,0.0,0.0,0.0,0.0,0.0,0.0,0.0,-4.056,-3.997,-3.9309,-3.8647,-3.8557,-3.8285,-3.7551,-3.7893,-3.8221,-3.8376,-3.8569,-3.871,-3.871,-3.8723,-3.8736,-3.8736,-3.9819,-4.0015,-3.9249,-4.0844,-4.0997,-3.9671,-4.0222,-4.0491,-4.0504,-4.0795,-4.0883,-4.0857,-4.0264,-3.9855,-3.9551,-3.8666,-3.8202,-3.7972,-3.8389,-3.8318,-3.8061,-3.8467,-3.851,-3.8216,-3.5466,-3.4728,-3.4379,-3.5824,-3.5495,-3.5301,-3.6338,-3.6887,-3.722,-3.7276,-3.8348,-3.9232,-3.9459,-4.0161,-4.0534,-4.0379,-4.0279,-4.022,-4.0206,-4.052,-4.0845,-4.1283,-4.1253,-4.1257,-4.1293,-4.143,-4.134,-4.099,-4.0981,-4.0746,-4.024,-4.1125,-4.1453,-4.1395,-4.2212,-4.2644,-4.2741,-4.297,-4.3326,-4.37,-4.3686,-4.3817,-4.3978,0.0,0.0,0.0,0.0,0.0,0.0,0.0,0.0,0.0,0.0,0.0,0.0,0.0,0.0,0.0,0.0,0.0,0.0,0.0,0.0,0.0,0.0,0.0,0.0,0.0,0.0,0.0,0.0,0.0,0.0,0.0,-3.9554,-3.9339,-3.9189,-3.8832,-3.8472,-3.8116,-3.8083,-3.7933,-3.7551,-3.7644,-3.765,-3.7479,-3.8101,-3.8488,-3.8488,-3.9033,-3.9541,-3.9906,-4.0223,-4.0219,-3.9786,-4.0292,-4.016,-3.9434,-4.0173,-4.0408,-4.0236,-4.0896,-4.0959,-4.0593,-4.0627,-4.0339,-3.9881,-3.9407,-3.8929,-3.8449,-3.8182,-3.7919,-3.7658,-3.7762,-3.7658,-3.7384,-3.5041,-3.4484,-3.4265,-3.557,-3.5273,-3.521,-3.618,-3.6583,-3.6901,-3.7251,-3.7951,-3.8721,-3.9541,-4.0024,-4.0407,-4.0674,-4.0515,-4.0298,-4.0097,-4.0199,-4.0402,-4.0631,-4.0604,-4.0738,-4.1145,-4.1431,-4.1538,-4.1463,-4.1413,-4.1205,-4.0839,-4.1364,-4.167,-4.1745,-4.2482,-4.2873,-4.297,-4.3032,-4.3245,-4.362,-4.3603,-4.3818,-4.4054,-4.3198,-4.3069,-4.3284,-4.2704,-4.2351,-4.219,-4.2049,0.0,0.0,0.0,0.0,0.0,0.0,0.0,0.0,0.0,0.0,0.0,0.0,0.0,0.0,0.0,0.0,0.0,0.0,0.0,0.0,0.0,0.0,0.0,0.0,-3.8874,-3.8535,-3.788,-3.7756,-3.7723,-3.7598,-3.7551,-3.7459,-3.7201,-3.7479,-3.7664,-3.767,-3.8447,-3.8949,-3.9058,-3.9527,-4.0097,-4.0754,-4.0738,-4.0557,-4.0202,-4.0488,-4.0126,-3.9133,-3.9814,-4.0083,-3.9929,-4.0542,-4.0707,-4.0504,-4.0542,-4.0359,-3.9967,-3.9692,-3.931,-3.8856,0.0,0.0,0.0,0.0,-3.7514,-3.7143,-3.4129,-3.4284,-3.458,-3.4914,-3.507,-3.5341,-3.6019,-3.6228,-3.659,-3.7342,-3.7352,-3.7889,-3.9413,-3.9666,-3.9985,-4.0491,-4.0305,-3.9974,-3.9508,-3.9316,-3.9299,-3.956,-3.9683,-4.0195,-4.1096,-4.1063,-4.1477,-4.2355,-4.2017,-4.199,-4.215,-4.2057,-4.2279,-4.2744,-4.3088,-4.3341,-4.3519,-4.3355,-4.3355,-4.3519,-4.3307,-4.3452,-4.368,-4.306,-4.3146,-4.3515,-4.3112,-4.305,-4.3069,-4.2574,0.0,0.0,0.0,0.0,0.0,0.0,0.0,0.0,0.0,0.0,0.0,0.0,0.0,0.0,0.0,0.0,0.0,0.0,0.0,0.0,0.0,0.0,0.0,0.0,-3.8342,-3.7978,-3.6896,-3.6909,-3.7062,-3.7108,-3.7108,-3.7015,-3.6722,-3.7368,-3.7903,-3.8233,-3.9025,-3.9618,-3.9894,-4.0057,0.0,0.0,0.0,-4.0976,-4.0507,-4.0919,-4.0383,-3.8932,-3.9422,-3.9686,-3.9697,-4.0032,-4.0236,-4.0402,-4.0185,-4.0045,-3.9984,-3.9758,-3.9409,-3.9055,-3.8741,-3.8322,-3.7909,-3.8115,-3.7719,-3.7161,-3.388,-3.3822,-3.3937,-3.4643,-3.507,-3.5531,-3.6079,-3.6635,-3.6909,-3.6595,-3.7407,-3.8003,-3.8036,-3.8931,-3.955,-3.95,-3.9102,-3.8809,-3.8632,-3.8586,-3.8803,-3.9353,-3.9856,-4.0409,-4.111,-4.091,-4.1012,-4.1531,-4.0776,-4.0346,-4.0202,-4.105,-4.1518,-4.1641,-4.2573,-4.2984,-4.3018,-4.2984,-4.2984,-4.3018,-4.2984,-4.3156,-4.3346,-4.3125,-4.3132,-4.3185,-4.2941,-4.2637,-4.2467,-4.2785,-4.2408,-4.1844,-4.1764,-4.1415,0.0,0.0,0.0,0.0,0.0,0.0,0.0,0.0,0.0,0.0,0.0,0.0,0.0,0.0,0.0,0.0,0.0,0.0,0.0,-3.8653,-3.8154,-3.7526,-3.7108,-3.6862,-3.6862,-3.7062,-3.7108,-3.7015,-3.6722,-3.6857,-3.7067,-3.7396,-3.8159,-3.8888,-3.9409,-4.0245,-4.1028,-4.1574,-4.139,-4.1005,-4.0422,-4.0145,-3.9624,-3.8932,-3.9423,0.0,-3.9697,-4.0198,-4.0198,-3.9839,-4.0032,-4.0109,-4.0083,-3.9987,-3.9385,-3.8536,-3.8457,-3.7969,-3.7265,-3.7298,-3.7114,-3.679,-3.3477,-3.3503,-3.364,-3.4122,-3.4832,-3.5389,-3.5522,-3.6192,-3.6645,-3.6526,-3.7064,-3.7634,-3.8003,-3.8687,-3.9233,-3.9482,-3.8751,-3.8351,-3.8542,-3.838,-3.8506,-3.9073,-3.9532,-4.0024,-4.0648,-4.0418,-4.0569,-4.1261,-4.0667,-4.057,-4.0861,-4.1457,-4.1847,-4.2102,-4.2655,-4.2984,-4.308,-4.279,-4.2662,-4.2631,-4.233,-4.2201,-4.2269,-4.2948,-4.3114,-4.2949,-4.295,-4.2688,-4.2361,-4.241,-4.2061,-4.157,-4.157,-4.116,-4.0644,0.0,0.0,0.0,0.0,0.0,0.0,0.0,0.0,0.0,0.0,0.0,0.0,0.0,0.0,-3.7281,-3.7536,0.0,-3.7734,-3.7678,-3.7898,-3.7723,-3.6691,-3.6734,-3.6875,-3.6781,-3.6734,-3.6687,-3.6534,-3.6786,-3.719,-3.7758,-3.8326,-3.8994,-3.9867,-4.0287,-4.1012,-4.2119,-4.1354,-4.1047,-4.1322,-4.0347,-3.9677,-3.9283,-3.9576,-3.9677,-3.9697,-4.0006,-3.9905,-3.9499,-3.9474,-3.9411,-3.9233,-3.919,-3.8736,-3.8014,-3.8014,-3.7621,-3.7147,-3.7382,-3.7151,-3.6709,-3.3203,-3.3472,-3.3662,-3.3555,-3.4469,-3.5134,-3.4922,-3.5873,-3.6625,-3.6768,-3.7071,-3.7582,-3.8392,-3.8693,-3.9006,-3.9398,-3.8549,-3.8159,-3.8579,-3.8276,-3.8371,-3.9002,-3.9247,-3.9679,-4.0264,-3.9851,-4.0087,-4.1088,-4.0834,-4.1174,-4.2003,-4.2173,-4.2484,-4.2887,-4.2887,-4.3032,-4.3177,-4.2741,-4.2567,-4.2453,-4.1889,-4.1437,-4.1232,-4.2542,-4.2806,-4.2564,-4.281,-4.2705,-4.2399,-4.2045,-4.1724,-4.151,-4.1439,-4.0983,-4.0526,-4.0535,-4.0235,0.0,0.0,0.0,0.0,0.0,0.0,0.0,0.0,-3.7873,-3.7498,-3.6975,-3.6807,-3.6746,-3.6577,-3.7291,-3.7609,-3.676,-3.768,-3.8023,-3.6493,-3.6794,-3.7066,-3.6698,-3.6515,-3.6452,-3.6452,-3.6908,-3.7509,-3.8273,-3.8705,-3.931,-4.0275,-4.0185,-4.0734,-4.2066,-4.1078,-4.0913,-4.1799,-4.0645,-3.9981,-3.9697,-3.9697,-3.9697,-3.9697,-3.9697,-3.9498,-3.9183,-3.8856,-3.8591,-3.8421,-3.8421,-3.8092,-3.7597,-3.7698,-3.7426,-3.7019,-3.7479,-3.7257,-3.6675,-3.3424,-3.3943,-3.4085,-3.3074,-3.4013,-3.4922,-3.4893,-3.6638,-3.7779,-3.7237,-3.8187,-3.8804,-3.8446,-3.8807,-3.8818,-3.8178,-3.781,-3.78,-3.8145,-3.813,-3.8512,-3.9461,-3.9615,-3.9929,-4.0531,-3.9523,-3.9607,-4.0757,-4.0521,-4.0876,-4.1691,-4.2436,-4.2838,-4.2887,-4.2887,-4.2935,-4.2935,-4.2887,-4.2846,-4.2786,-4.2209,-4.1605,-4.1191,-4.1903,-4.1895,-4.164,-4.2126,-4.2266,-4.2203,-4.2045,-4.1965,-4.1866,-4.1525,-4.1198,-4.0788,-4.0097,-4.0055,-4.0024,-3.9083,-3.8857,-3.8906,-3.8778,-3.8415,-3.8112,0.0,-3.8005,-3.826,-3.8425,-3.8293,-3.8059,-3.7531,-3.7683,-3.7792,-3.7444,-3.7709,-3.7827,-3.7379,-3.7413,-3.7454,-3.748,-3.6991,-3.6675,-3.6675,-3.6991,-3.7412,-3.8014,-3.8592,-3.9158,-3.9762,-3.9981,-4.0211,-4.0364,-4.0479,-4.0428,-4.0326,-4.016,-3.9981,-3.9697,-3.9697,-3.9697,-3.9697,-3.9697,-3.9447,-3.8894,-3.8329,-3.8226,-3.8421,-3.8421,-3.8092,-3.7635,-3.813,-3.7577,-3.6512,-3.6751,-3.6678,-3.6452,-3.3022,-3.3614,-3.3952,-3.3324,-3.4509,-3.5611,-3.5643,-3.6553,-3.7374,-3.7774,-3.829,-3.8678,-3.8884,-3.9148,-3.9031,-3.8486,-3.8127,-3.8202,-3.8829,-3.8764,-3.9075,-3.9986,-4.017,-4.0265,-4.0264,-3.9768,-3.9833,-4.0416,-4.0324,-4.0495,-4.0849,-4.1545,-4.1937,-4.2139,-4.1958,-4.2236,-4.286,-4.2363,-4.2011,-4.1869,-4.1808,-4.1065,-4.0133,-4.0927,-4.0946,-4.0715,-4.1879,-4.2122,0.0,-4.1663,-4.1673,-4.1691,-4.1156,-4.0915,-4.076,-4.0421,-4.032,-4.0211,-3.9516,-3.9295,-3.9003,-3.8246,-3.7655,-3.7245,-3.7019,-3.7181,-3.7556,-3.7953,-3.8114,-3.8287,-3.8768,-3.8892,-3.8912,-3.8814,-3.9112,-3.8938,-3.771,-3.795,-3.8168,-3.8084,-3.7938,-3.7758,-3.7468,-3.7866,-3.8295,-3.8729,-3.8844,-3.9209,-3.9904,-3.989,-3.9929,-4.007,-4.0044,-4.0044,-4.007,-3.9929,-3.9675,-3.922,-3.9534,-3.9534,-3.9233,-3.9546,-3.9396,-3.8894,-3.8253,-3.7876,-3.7684,-3.7684,-3.7404,-3.6925,-3.7152,-3.6915,-3.6443,-3.6852,-3.6729,-3.6405,-3.2915,-3.3564,-3.4148,-3.3965,-3.5212,-3.6208,-3.6061,-3.6676,-3.7463,-3.8335,-3.8716,-3.9097,-3.9584,-3.9894,-3.9805,-3.9162,-3.9018,-3.9107,-3.9466,-3.9473,-3.9776,-4.0464,-4.0788,-4.0816,-4.0473,-4.0329,-4.0247,-4.0244,-4.0331,-4.0358,-4.0374,-4.0922,-4.1327,-4.1565,-4.1462,-4.1889,-4.2616,-4.2072,-4.1687,-4.14,-4.1248,-4.061,-3.9738,-4.0381,-4.0296,-3.9999,-4.132,-4.1745,-4.1685,-4.1279,-4.1357,-4.1502,-4.0898,-4.0659,-4.0658,-4.0726,-4.0747,-4.0587,-4.0094,-3.9644,-3.9087,-3.8054,-3.7222,-3.6613,-3.6574,-3.6792,-3.7163,-3.7724,-3.8128,-3.868,-3.9724,-3.9848,-3.9807,-3.9831,-4.0083,-3.9754,-3.8265,-3.8627,-3.9058,-3.9073,-3.937,-3.939,-3.8851,-3.8973,-3.9111,-3.9196,-3.9171,-3.936,-3.9955,-3.9788,-3.9788,-3.9981,-3.9736,-3.9685,-3.9865,-3.9581,-3.9203,-3.8755,-3.9318,-3.9345,-3.8932,-3.912,-3.8956,-3.8492,-3.7815,-3.7364,-3.7077,-3.7023,-3.6769,-3.6405,-3.6405,-3.637,-3.6326,-3.6726,-3.6661,-3.6405,-3.345,-3.4219,-3.4906,-3.5036,-3.5973,-3.6476,-3.5795,-3.7421,-3.8755,-3.8801,-3.9915,-4.065,-4.0493,-4.1233,-4.1217,-3.996,-4.0506,-4.0558,-3.9732,-4.0105,-4.0552,-4.0952,-4.1439,-4.1646,-4.1646,-4.1212,-4.0745,-4.0286,-4.0692,-4.0728,-4.0499,-4.1119,-4.1406,-4.1433,-4.2082,-4.2228,-4.2032,-4.2289,-4.2342,-4.2158,-4.0781,-4.0364,-4.0562,-4.059,-4.0072,-3.9394,-4.018,-4.0962,-4.1515,-4.0926,-4.1123,-4.1502,-4.0898,-4.0544,-4.0467,-4.0803,-4.1186,-4.1287,-4.0495,-3.9719,-3.8994,-3.8477,-3.7319,-3.6437,-3.6977,-3.7322,-3.7708,-3.8267,-3.8844,-3.9519,-4.0325,-4.0205,-3.9992,-4.0091,-4.0075,-3.979,-3.9223,-3.9608,-4.0139,-4.0667,-4.1421,-4.1601,-4.0867,-4.0103,-3.9446,-3.8969,-3.9371,-3.9672,-3.9697,-3.9697,-3.9697,-3.9697,-3.9478,-3.9322,-3.931,-3.8998,-3.8714,-3.8413,-3.9036,-3.9191,-3.8906,-3.8304,-3.7916,-3.7606,-3.6801,-3.6578,-3.6786,-3.6526,-3.6417,-3.6405,-3.6405,-3.6228,-3.6015,-3.6028,-3.6206,-3.6358,-3.3824,-3.462,-3.5351,-3.5778,-3.6582,-3.707,-3.6864,-3.7279,-3.8138,-3.9608,-4.0593,0.0,0.0,0.0,0.0,0.0,-4.0728,-4.0848,-4.1345,-4.1242,-4.1665,-4.2684,-4.3006,-4.315,-4.3091,-4.2735,-4.2208,-4.1545,-4.1482,-4.1055,-4.036,-4.0874,-4.1107,-4.1062,-4.1035,-4.1318,-4.1846,-4.1526,-4.1379,-4.1365,-4.1092,-4.0595,-4.0083,-4.0695,-4.0627,-4.024,0.0,-4.1073,-4.1132,-4.1245,-4.1446,-4.1502,-4.1042,-4.0773,-4.0586,-4.0578,-4.0711,-4.0727,-4.0132,-3.9424,-3.8763,-3.8466,-3.7612,-3.6897,-3.7049,-3.7613,-3.8157,-3.8356,-3.8998,-3.9901,-4.0927,-4.0695,-4.0489,-4.0913,-4.0739,-4.0283,-3.9316,-3.9659,-4.0067,-4.0262,-4.0812,-4.1134,-4.0932,-4.1301,-4.1096,-4.002,-4.0147,-4.0249,-4.0249,-3.989,-3.9633,-3.9426,-3.9013,-3.8672,-3.8492,-3.8148,-3.7779,-3.7332,-3.7729,-3.7966,-3.8042,-3.8442,-3.8328,-3.7936,-3.8041,-3.7779,-3.732,-3.7039,-3.6732,-3.6358,-3.6193,-3.6098,-3.5968,-3.5812,-3.5812,-3.5847,0.0,-3.4833,-3.5499,-3.6222,-3.6871,0.0,0.0,0.0,0.0,0.0,0.0,0.0,0.0,0.0,0.0,0.0,0.0,-4.1368,-4.1791,-4.2067,-4.26,-4.3403,-4.4135,-4.4533,-4.4486,-4.3945,-4.3348,-4.2742,-4.2233,-4.1518,-4.0719,-4.1073,-4.1125,-4.0912,-4.0969,-4.1285,-4.1713,-4.1296,-4.1285,-4.1449,-4.1035,-4.0783,-4.0652,-4.0946,-4.0964,0.0,-4.1654,-4.1475,-4.0938,-4.1365,-4.1387,-4.1179,-4.0632,-4.0434,-4.0369,-4.0431,-4.0649,-4.07,-3.9981,-3.9433,-3.8981,-3.8488,-3.7714,-3.7127,-3.7197,-3.7539,-3.7867,-3.8077,-3.8853,-3.993,-4.1169,-4.1042,-4.0978,-4.1607,-4.1234,-4.0565,-3.9639,-4.0053,-4.0501,-4.0601,-4.0995,-4.1238,-4.1045,-4.1769,-4.167,-4.044,-4.0453,-4.0402,-4.0198,-3.9903,-3.9494,-3.9024,-3.8586,-3.8109,-3.7619,-3.734,-3.7072,-3.6776,-3.697,-3.7167,-3.732,-3.7991,-3.8079,-3.7628,-3.7916,-3.7741,-3.7307,-3.7027,-3.6732,-3.6358,-3.6098,-3.5968,-3.5812,-3.5572,-3.5416,-3.532,0.0,0.0,-3.5442,0.0,0.0,0.0,0.0,0.0,0.0,0.0,0.0,0.0,0.0,0.0,0.0,0.0,0.0,0.0,-4.1232,-4.2608,-4.3396,-4.322,-4.4863,-4.5805,-4.5805,-4.4926,-4.4225,-4.38,-4.303,-4.2257,-4.1498,-4.168,-4.147,-4.0989,-4.1863,-4.1995,-4.1518,-4.1518,-4.187,-4.2245,-4.063,-4.0836,-4.2015,-4.1232,-4.1172,-4.1567,-4.2384,-4.1925,-4.0949,-4.1257,-4.1046,-4.0546,-3.9759,-3.9597,-3.9854,-4.0415,-4.0946,-4.1169,-4.0081,-3.9741,-3.9501,-3.8558,-3.7709,-3.7242,-3.7499,-3.7204,-3.7044,-3.7588,-3.8583,-3.973,0.0,-4.1362,-4.1516,-4.2054,-4.1415,-4.0681,-4.0173,-4.0744,-4.1311,-4.1597,0.0,0.0,0.0,0.0,-4.1248,-4.0173,-4.0338,-4.03,-3.98,-3.9672,-3.9254,-3.8463,-3.8158,-3.757,-3.6729,-3.649,-3.6478,-3.6731,-3.6751,-3.6736,-3.6736,-3.7016,-3.7041,-3.6749,-3.6551,-3.6566,-3.6786,-3.6501,-3.6405,-3.637,-3.6098,-3.5824,-3.5572,-3.5271,-3.503,-3.4835,0.0,0.0,0.0,0.0,0.0,0.0,0.0,0.0,0.0,0.0,0.0,0.0,0.0,0.0,0.0,0.0,0.0,0.0,-4.2212,-4.3323,-4.4243,-4.4873,-4.6221,-4.71,-4.7421,-4.6734,-4.6056,-4.5339,-4.4734,-4.3866,-4.2805,-4.2824,-4.2319,-4.1489,-4.1507,-4.1159,-4.064,-4.0521,-4.065,-4.09,-4.0238,-4.0335,-4.0884,-4.1158,-4.1087,-4.0959,-4.186,-4.1783,-4.1343,-4.1793,-4.1381,-4.0574,-3.9788,-3.9844,-4.014,-4.0145,-4.0001,-3.9815,-3.9532,-3.9181,-3.8852,-3.8572,-3.8247,-3.8077,-3.8316,-3.866,-3.899,-3.9359,-4.0161,-4.086,-4.1288,-4.1462,-4.1427,-4.1018,-4.0901,-4.063,-3.989,-4.0134,0.0,-4.0478,0.0,-4.0846,-4.0744,-4.0946,-4.0833,-4.0121,-4.0338,-4.0555,-4.058,-3.9436,-3.8485,-3.7824,-3.7004,-3.6316,-3.5921,-3.5634,-3.5636,-3.5929,-3.5927,-3.5914,-3.5926,-3.6599,-3.6749,-3.6517,-3.6843,-3.6916,-3.6786,-3.6501,-3.6275,-3.6098,-3.5812,-3.5524,-3.5271,-3.4981,-3.4726,-3.4531,0.0,0.0,0.0,0.0,0.0,0.0,0.0,0.0,0.0,0.0,0.0,0.0,0.0,0.0,0.0,0.0,0.0,0.0,0.0,-4.3506,-4.4544,-4.5305,-4.6651,-4.7604,-4.8082,-4.749,-4.6865,-4.6356,-4.544,-4.4577,-4.3696,-4.3528,-4.2968,-4.2058,-4.1998,-4.152,-4.0713,-4.0612,-4.0665,0.0,0.0,-4.0548,-4.1063,-4.1156,-4.1105,-4.1023,-4.1474,-4.1614,-4.1622,-4.1846,-4.1165,-4.017,-3.9631,-3.9396,-3.9376,-3.9607,0.0,-3.9305,-3.9305,-3.9127,-3.8894,-3.8766,-3.8503,-3.8285,-3.8477,-3.8806,-3.9178,-3.949,-4.0376,-4.1129,-4.111,-4.1225,-4.1223,-4.0758,-4.0512,-4.0249,-3.9736,-3.9929,-4.007,0.0,-4.0236,0.0,-4.0338,-4.0542,-4.049,-3.9943,-4.0082,-4.0132,-4.0019,-3.8932,-3.7966,-3.7266,-3.6528,-3.5867,-3.5268,-3.5077,-3.5078,-3.5271,-3.5368,-3.5416,-3.5428,-3.6157,-3.6305,-3.6063,-3.6498,-3.6498,-3.6245,-3.6223,-3.6051,-3.5812,-3.5668,-3.5416,-3.5126,-3.4775,-3.4531,-3.4384,0.0,0.0,0.0,0.0,0.0,0.0,0.0,0.0,0.0,0.0,-3.885,-3.9089,-4.0372,-4.0419,0.0,0.0,0.0,0.0,0.0,0.0,-4.4522,-4.513,-4.662,-4.7715,-4.8292,-4.7708,-4.726,-4.6932,-4.5743,-4.4843,-4.4264,-4.3884,-4.3299,-4.2576,-4.2639,-4.214,-4.1287,-4.1145,-4.1101,-4.1119,-4.0519,-4.0924,-4.1766,0.0,-4.1204,-4.143,-4.1191,-4.1438,-4.1915,-4.1631,-4.0803,-3.9812,-3.9503,-3.8888,-3.8378,-3.9112,-3.9305,-3.9305,-3.9349,-3.9349,-3.9305,-3.9056,-3.8652,-3.8358,-3.8452,-3.8583,-3.8792,-3.9082,-4.0232,-4.1182,-4.1196,-4.1155,-4.1106,-4.1064,0.0,-3.9989,-3.9823,-4.0043,-4.0159,-4.0032,-4.0032,-4.0019,-3.9981,-4.0287,-4.0223,-3.956,-3.9559,-3.9371,-3.8806,-3.8104,-3.7381,-3.6639,-3.6407,-3.5856,-3.4931,-3.4859,-3.4775,-3.4775,-3.503,-3.5175,-3.5223,-3.5668,-3.5764,-3.562,-3.5872,-3.586,-3.5716,-3.592,-3.586,-3.5656,-3.562,-3.5416,-3.5078,-3.458,-3.4384,-3.4384,0.0,0.0,0.0,0.0,0.0,0.0,0.0,0.0,0.0,-3.8382,-3.8798,-3.907,0.0,0.0,0.0,0.0,0.0,0.0,0.0,0.0,0.0,-4.5465,-4.687,-4.7981,-4.869,-4.8589,-4.8054,-4.7143,-4.6638,-4.5807,-4.4666,-4.3628,-4.3109,-4.2951,-4.1837,-4.1317,-4.1261,-4.0622,-4.0396,-4.0419,-4.0003,-4.047,-4.1494,-4.1478,0.0,0.0,-4.1044,-4.1785,-4.2745,-4.2016,-4.129,-4.0608,-4.0173,-3.9631,-3.9125,-3.9278,-3.9305,-3.9349,-3.9554,-3.9642,-3.9598,-3.9554,-3.9305,-3.9141,-3.9203,-3.9806,0.0,-4.0798,-4.1821,-4.2643,-4.2655,-4.2431,-4.2238,-4.2007,-4.1843,-4.1459,-4.049,-4.0572,-4.0487,0.0,-3.9788,-3.9685,-3.9465,-4.0096,-3.9918,-3.8461,-3.8932,-3.8955,-3.819,-3.7023,-3.616,-3.5815,-3.5766,-3.5668,-3.5485,-3.5003,-3.4775,-3.4775,-3.4823,-3.4981,-3.5223,-3.5271,-3.5416,-3.562,-3.5668,-3.5895,-3.6275,-3.6051,-3.5955,-3.593,-3.5704,-3.532,-3.4835,-3.4531,-3.4384,-3.4384,0.0,0.0,0.0,0.0,0.0,0.0,-3.6715,-3.7425,-3.8078,-3.818,-3.8556,-3.8808,-3.8836,-3.9308,-3.9897,0.0,0.0,0.0,0.0,0.0,0.0,-4.5123,-4.6009,-4.7006,-4.8039,-4.801,-4.7765,-4.7416,0.0,-4.6164,-4.5292,-4.4249,-4.3454,-4.2851,-4.2059,-4.1386,-4.0872,-4.0509,-4.0305,-4.0257,-4.0202,-4.0558,-4.1234,0.0,0.0,0.0,0.0,-4.2292,-4.2598,-4.3181,-4.2653,-4.1591,-4.069,-4.0632,-4.0736,-3.9988,-4.0074,-4.0341,-4.0203,-4.0021,-3.9818,-3.9744,-3.9496,-3.932,-3.9387,0.0,0.0,-4.1221,-4.2211,-4.2974,-4.2974,-4.2632,-4.2309,-4.2187,-4.1897,-4.1461,-4.0601,-4.0618,-4.0457,-3.976,-3.9948,-3.9894,-3.9335,-4.013,-3.9966,-3.8167,-3.8527,-3.8291,-3.722,-3.6284,-3.5783,-3.5815,-3.5549,-3.5306,-3.5208,-3.4907,-3.4775,-3.4775,-3.492,-3.4981,-3.4981,-3.5271,-3.5332,-3.5175,-3.532,-3.556,-3.5752,-3.5668,-3.556,-3.5548,-3.5416,-3.5126,-3.4726,-3.4396,-3.4298,-3.4335,0.0,0.0,0.0,0.0,0.0,0.0,-3.6476,-3.7087,-3.7758,-3.8148,-3.8423,-3.8685,-3.9015,-3.881,-3.9167,0.0,0.0,0.0,0.0,0.0,0.0,0.0,0.0,-4.5895,-4.7082,0.0,0.0,-4.7124,-4.646,0.0,0.0,0.0,0.0,0.0,-4.2502,-4.1857,-4.104,-4.088,-4.0706,0.0,0.0,-4.1016,0.0,0.0,0.0,0.0,0.0,-4.2723,-4.2661,-4.4055,-4.3936,-4.2913,-4.1609,-4.176,-4.215,-4.0944,-4.0949,-4.1264,-4.095,-4.0456,-3.9966,-3.9818,-3.9628,-3.9481,-3.9547,-4.0175,0.0,-4.1196,-4.2163,-4.2909,-4.2909,-4.27,-4.2461,-4.2406,-4.2066,-4.1525,-4.0626,-4.0779,-4.0591,0.0,-4.0111,0.0,-3.9268,-4.0113,-3.9898,-3.7949,-3.7796,-3.7392,-3.6431,-3.5991,-3.5917,-3.6242,-3.5745,-3.5368,-3.5111,-3.4895,-3.4775,-3.4775,-3.503,-3.4981,-3.4823,-3.5223,-3.5223,-3.4823,-3.503,-3.5175,-3.5271,-3.5223,-3.5223,-3.5271,-3.5223,-3.503,-3.4738,-3.4261,-3.4261,-3.4384,0.0,0.0,0.0,0.0,0.0,0.0,-3.5725,-3.6269,-3.708,-3.8055,-3.874,-3.9143,-3.9178,-3.9151,-3.9503,0.0,0.0,0.0,0.0,0.0,0.0,0.0,0.0,0.0,0.0,0.0,0.0,-4.5589,-4.5122,0.0,0.0,0.0,0.0,0.0,0.0,-4.2601,-4.2814,-4.2221,0.0,0.0,0.0,0.0,0.0,0.0,0.0,0.0,0.0,-4.2926,-4.3953,0.0,0.0,-4.4989,-4.3652,-4.2865,-4.2356,-4.1964,0.0,0.0,-4.1608,-4.0849,-4.0009,-3.9966,-3.9952,-3.9991,-4.0187,0.0,-4.0517,-4.117,-4.2019,-4.2629,-4.2629,-4.3229,-4.3632,-4.3318,-4.3471,-4.291,-4.0792,-4.1594,-4.1521,-3.9246,0.0,0.0,-3.8955,-3.9658,-3.9381,-3.7448,-3.6404,-3.603,-3.6365,-3.6329,-3.6558,-3.7087,-3.6594,-3.6266,-3.6266,-3.5304,-3.4775,-3.4775,-3.4823,-3.4823,-3.4775,-3.4823,-3.4835,-3.4775,-3.4835,-3.5126,-3.5512,-3.532,-3.532,-3.5524,-3.5271,-3.503,-3.4738,-3.4261,-3.4359,-3.4628,0.0,0.0,0.0,0.0,0.0,0.0,-3.6498,-3.7054,-3.7728,-3.8132,-3.8492,-3.8888,-3.9324,-3.9373,-3.9766,-4.0757,-4.1508,0.0,0.0,0.0,0.0,0.0,0.0,0.0,0.0,0.0,-4.55,-4.5404,-4.549,0.0,0.0,0.0,0.0,0.0,0.0,-4.258,-4.2427,-4.2079,0.0,0.0,0.0,0.0,0.0,0.0,0.0,0.0,0.0,0.0,-4.4659,-4.4458,0.0,0.0,-4.422,-4.4207,0.0,0.0,-4.2467,-4.2337,-4.2142,-4.118,-4.0198,-4.0053,-3.9996,-4.0189,-4.0884,-4.0654,-4.0605,-4.1646,-4.237,-4.2866,-4.2866,-4.3099,-4.3192,-4.2738,-4.2192,-4.1547,-4.0614,-4.1009,-4.0958,-3.9961,-4.0092,0.0,0.0,-3.8529,-3.8128,-3.6811,-3.6038,-3.5845,-3.6374,-3.5797,-3.5701,-3.623,-3.5737,-3.5461,-3.5461,-3.4991,-3.4775,-3.4775,-3.4981,-3.4981,-3.4835,-3.4981,-3.4932,-3.4775,-3.4775,-3.5211,-3.5787,-3.5211,-3.532,-3.5787,-3.5163,-3.4872,-3.4775,-3.4396,-3.4494,-3.4689,0.0,0.0,0.0,0.0,0.0,-3.7796,-3.7066,-3.7452,-3.7939,-3.8234,-3.8484,-3.8946,-3.9703,-3.9919,-4.0353,-4.1309,-4.174,0.0,0.0,0.0,0.0,0.0,0.0,0.0,0.0,0.0,-4.4821,-4.5014,-4.5337,-4.5247,0.0,0.0,-4.4523,-4.3751,0.0,0.0,0.0,0.0,0.0,0.0,0.0,0.0,0.0,0.0,0.0,0.0,0.0,0.0,0.0,0.0,0.0,0.0,0.0,0.0,0.0,0.0,-4.3392,-4.3292,-4.2938,-4.1929,-4.0913,-4.0721,-4.0801,-4.1096,-4.1785,-4.1244,-4.0876,-4.1749,-4.2181,-4.2406,-4.2585,-4.2718,-4.2644,-4.2247,-4.1288,-4.0492,-4.0165,-4.0214,-4.0275,-4.0275,0.0,-3.9484,-3.8738,-3.8096,-3.736,-3.6688,-3.6006,-3.5835,-3.641,-3.5366,-3.5148,-3.5821,-3.5485,-3.522,-3.5015,-3.5015,-3.4943,-3.4775,-3.4981,-3.4969,-3.4835,-3.4981,-3.5163,-3.5296,-3.4944,-3.5442,-3.6425,-3.5248,-3.5308,-3.5974,-3.5126,-3.4775,-3.4775,-3.4482,-3.458,-3.4689,0.0,0.0,0.0,0.0,0.0,-3.6806,-3.7044,-3.699,-3.7263,-3.8282,-3.8875,-3.9524,-4.0399,-4.0823,-4.1357,-4.2045,-4.1784,0.0,0.0,0.0,0.0,0.0,0.0,0.0,-4.3914,-4.4155,-4.4241,-4.4114,-4.4126,-4.3964,-4.362,-4.4087,-4.4156,-4.3919,0.0,0.0,0.0,0.0,0.0,0.0,0.0,0.0,-4.6055,0.0,0.0,0.0,0.0,0.0,0.0,0.0,0.0,0.0,0.0,-4.5206,-4.6007,-4.498,-4.4244,-4.3854,-4.4051,-4.3197,-4.2301,-4.2301,-4.2732,-4.3155,-4.3038,-4.2092,-4.1328,-4.1376,-4.1142,-4.1098,-4.1681,-4.2036,-4.2182,-4.2129,-4.1433,-4.0514,-3.9373,-3.9499,-3.9697,0.0,-3.922,-3.9206,-4.0006,-3.8552,-3.749,-3.7218,-3.6206,-3.5865,-3.6468,-3.5417,-3.5304,-3.6362,-3.6386,-3.6134,-3.5617,-3.5605,-3.5352,-3.4775,-3.4775,-3.4775,-3.4775,-3.4775,-3.5405,-3.6431,-3.5308,-3.5917,-3.7531,-3.5612,-3.5295,-3.5989,-3.5137,-3.4775,-3.4775,-3.4482,-3.458,-3.4689,0.0,0.0,0.0,0.0,0.0,0.0,-3.8158,-3.8079,-3.8132,-3.8375,-3.8614,-3.9226,-4.0367,-4.0421,-4.0783,-4.1884,-4.1949,0.0,0.0,0.0,0.0,0.0,0.0,-4.3674,-4.3898,-4.4068,-4.4155,-4.4097,-4.4712,-4.4886,-4.471,-4.5027,-4.5079,-4.4913,-4.4623,-4.4636,0.0,0.0,0.0,0.0,0.0,-4.6632,-4.6557,0.0,0.0,0.0,0.0,0.0,0.0,0.0,0.0,0.0,0.0,0.0,0.0,-4.4893,-4.4257,-4.3818,-4.3868,-4.2698,-4.1569,-4.195,-4.2005,-4.2242,-4.3048,-4.2092,-4.1155,-4.1564,-4.1239,-4.0958,-4.1149,-4.1226,-4.1279,-4.1279,-4.0613,-3.9926,-3.9574,0.0,0.0,-4.0212,-3.9113,-3.8324,-3.8197,-3.6659,-3.5901,-3.6344,-3.5574,-3.5125,-3.532,-3.5017,-3.498,-3.5316,-3.5677,-3.5785,-3.5617,-3.5617,-3.5533,-3.5364,-3.5004,-3.4775,-3.4775,-3.4775,-3.5017,-3.5308,-3.4956,-3.5551,-3.6716,-3.5357,-3.5417,-3.6179,-3.5187,-3.4677,-3.4531,-3.4433,-3.4347,-3.4261,0.0,0.0,0.0,0.0,0.0,0.0,-3.8738,-3.8588,-3.8504,-3.8476,-3.8504,-3.8914,-4.0024,-3.9975,-4.0338,-4.1389,-4.1626,0.0,0.0,0.0,0.0,0.0,-4.3143,-4.3402,-4.3704,-4.391,-4.4097,-4.4253,-4.5141,-4.5495,-4.53,-4.5735,-4.5882,-4.5786,-4.508,-4.5179,0.0,0.0,0.0,0.0,-4.7883,-4.7917,-4.7539,0.0,0.0,0.0,0.0,0.0,0.0,0.0,0.0,0.0,0.0,0.0,0.0,0.0,-4.4091,-4.3845,-4.4072,-4.3145,-4.2147,-4.2417,-4.2592,-4.2808,-4.3124,-4.2255,-4.1364,-4.1347,-4.0731,-4.0349,-4.0669,-4.0299,-4.0108,-4.0682,-3.9992,-3.9434,-3.9473,0.0,0.0,-3.8817,-3.8912,-3.8372,-3.6652,-3.6026,-3.5696,-3.5574,-3.4967,-3.4628,-3.4628,-3.4628,-3.4628,-3.4628,-3.5483,-3.5821,-3.5617,-3.5809,-3.5809,-3.5605,-3.4929,-3.4677,-3.4775,-3.4677,-3.4931,-3.5405,-3.5017,-3.5539,0.0,-3.5333,-3.5332,-3.6036,-3.5151,-3.4677,-3.4531,-3.4433,-3.4347,-3.4162,0.0,0.0,0.0,0.0,0.0,0.0,-3.8925,-3.8686,-3.8594,-3.8658,-3.8557,-3.8776,-3.9505,-3.9644,-4.0023,-4.0769,-4.1027,0.0,0.0,0.0,0.0,-4.2077,-4.2695,-4.3143,-4.3372,-4.3704,-4.4102,-4.4559,-4.5473,-4.5781,-4.5535,-4.6268,-4.6596,-4.6544,-4.5772,-4.6075,0.0,0.0,0.0,0.0,-4.892,-4.8978,0.0,0.0,0.0,0.0,0.0,0.0,0.0,0.0,0.0,0.0,0.0,0.0,0.0,0.0,0.0,0.0,0.0,-4.4234,-4.3697,-4.3543,-4.4017,-4.4268,-4.3297,-4.2539,0.0,-4.0671,-3.9804,-3.9474,-4.0249,-3.9308,-3.8902,-4.0274,-3.9639,-3.9007,-3.9158,-3.8579,-3.7653,-3.6459,-3.8691,-3.9086,-3.5795,-3.6456,-3.6504,-3.4956,-3.4604,-3.4433,-3.4384,-3.4433,-3.4433,-3.4384,-3.5659,-3.611,-3.5617,-3.6098,-3.6098,-3.5605,-3.4781,-3.4531,-3.4835,-3.4531,-3.5137,-3.6333,-3.5284,-3.5733,-3.7022,-3.5429,-3.5136,-3.5594,-3.5028,-3.4775,-3.4726,-3.4482,-3.4384,-3.4298,0.0,0.0,0.0,0.0,0.0,0.0,0.0,0.0,0.0,0.0,-3.9332,-3.9637,-4.0202,-3.9842,-4.0056,0.0,0.0,0.0,0.0,0.0,0.0,-4.1931,-4.219,-4.2618,-4.3174,-4.3509,-4.4131,-4.5035,-4.5722,-4.6293,-4.6799,-4.7412,-4.7625,-4.7441,-4.7793,-4.8065,0.0,0.0,0.0,0.0,-4.8881,-4.9158,0.0,0.0,0.0,0.0,-4.7369,-4.6864,0.0,0.0,0.0,0.0,0.0,0.0,0.0,0.0,-4.3977,-4.4251,-4.4617,0.0,-4.345,-4.445,-4.3902,-4.3149,0.0,-4.2473,-4.1296,-4.0415,-3.9873,-3.9585,-3.9608,-3.912,-3.9184,-4.0293,-3.9964,-3.9409,-3.9032,-3.917,-3.9258,-3.9159,-3.9226,-3.904,-3.8396,-3.6564,-3.5416,-3.5498,-3.5015,-3.4628,-3.4433,-3.458,-3.4628,-3.4384,-3.5312,-3.5749,-3.5617,-3.5749,-3.5837,-3.5915,-3.488,-3.4628,-3.5078,-3.4628,-3.47,-3.5199,-3.5126,-3.532,-3.5624,-3.5029,-3.5005,-3.526,-3.4725,-3.4482,-3.4482,-3.4433,-3.415,-3.3866,0.0,0.0,0.0,0.0,0.0,0.0,0.0,0.0,0.0,0.0,-3.9787,-3.9823,-4.0415,-3.9952,-4.004,0.0,0.0,0.0,0.0,-4.0746,-4.0984,-4.1388,-4.1784,-4.2254,-4.2774,-4.3518,-4.4321,-4.5287,-4.6241,-4.6889,-4.7301,-4.7859,-4.8277,-4.8661,-4.9521,-4.9685,-4.9371,-5.0543,-5.0522,-4.9602,-4.9892,0.0,0.0,0.0,0.0,0.0,-4.7307,-4.684,0.0,-4.5756,-4.5304,-4.4954,0.0,0.0,0.0,0.0,-4.3368,-4.3816,-4.4347,-4.4012,-4.363,-4.3888,-4.3356,-4.2787,-4.2822,-4.2064,-4.1208,0.0,0.0,0.0,-3.9788,-3.9281,-3.9132,-3.9921,-3.9556,-3.8954,-3.8392,-3.8567,-3.8717,-3.863,-3.8351,-3.8056,-3.7798,-3.6331,-3.533,-3.512,-3.471,-3.4347,-3.4101,-3.42,-3.4249,-3.4101,-3.462,-3.503,-3.5206,-3.5356,-3.5517,-3.5605,-3.4596,-3.4396,-3.4981,-3.4494,-3.4445,-3.4823,-3.5078,-3.5078,-3.4823,-3.492,-3.4932,-3.4835,-3.4628,-3.458,-3.458,-3.4433,-3.42,-3.3878,0.0,0.0,0.0,0.0,0.0,0.0,0.0,0.0,0.0,0.0,0.0,0.0,0.0,0.0,0.0,0.0,0.0,0.0,-4.0765,-4.0627,-4.0593,-4.0765,-4.1421,-4.198,-4.2349,-4.3552,-4.4615,-4.5497,-4.68,-4.7507,-4.7643,-4.8106,-4.895,-5.0095,-5.1,-5.0999,-5.033,-5.1228,-5.1229,-5.0621,-5.0814,0.0,0.0,0.0,0.0,0.0,0.0,0.0,0.0,-4.5391,-4.5033,-4.5087,-4.3904,0.0,0.0,0.0,0.0,0.0,-4.3888,-4.4135,-4.3953,-4.2973,-4.2745,-4.2593,-4.1966,0.0,0.0,0.0,0.0,0.0,0.0,-3.9365,0.0,-3.9456,-3.8877,-3.8228,-3.7779,-3.7655,-3.7444,-3.7196,-3.7233,-3.6946,-3.6196,-3.5964,-3.5427,-3.4469,-3.4261,-3.4014,-3.3779,-3.3779,-3.3767,-3.3779,-3.3977,-3.4275,-3.4648,-3.4899,-3.5049,-3.5137,-3.4226,-3.4113,-3.4726,-3.431,-3.431,-3.4689,-3.4981,-3.4775,-3.4396,-3.4835,-3.4775,-3.4433,-3.464,-3.4738,-3.4775,-3.4531,-3.4298,-3.4075,0.0,0.0,0.0,0.0,0.0,0.0,0.0,0.0,0.0,0.0,0.0,0.0,0.0,0.0,0.0,0.0,0.0,0.0,-4.0558,-4.0696,-4.0696,-4.0558,-4.1088,-4.1621,-4.2142,-4.3378,-4.4695,-4.5988,-4.7035,-4.797,-4.8768,-4.9248,-5.0232,-5.1682,-5.2147,-5.2064,-5.1564,-5.2004,-5.1076,-4.9313,-4.9805,0.0,0.0,0.0,0.0,0.0,0.0,0.0,0.0,-4.4734,-4.4536,-4.4288,-4.3482,0.0,0.0,0.0,0.0,0.0,-4.3054,-4.3528,-4.3861,-4.3438,-4.2455,-4.1432,-4.0875,-3.9956,0.0,0.0,0.0,0.0,0.0,-3.8703,-3.8368,-3.9223,-3.8451,-3.7866,-3.8315,-3.7765,-3.7727,-3.8786,-3.7747,-3.6917,-3.6781,-3.5497,-3.4577,-3.4384,-3.4384,-3.4249,-3.4026,-3.42,-3.42,-3.4026,-3.4075,-3.4012,-3.3884,-3.4132,-3.4477,-3.4846,-3.4296,-3.4211,-3.4433,-3.4211,-3.4125,-3.4223,-3.4445,-3.4396,-3.4162,-3.415,-3.4286,-3.4384,-3.4261,-3.4457,-3.4775,-3.4726,-3.4445,-3.4026,0.0,0.0,0.0,0.0,0.0,0.0,0.0,0.0,0.0,0.0,0.0,0.0,0.0,0.0,0.0,0.0,-4.1357,-4.1003,-4.0524,-4.0539,-4.0524,-4.0489,-4.073,-4.1328,-4.2341,-4.3637,-4.5016,-4.652,-4.7488,-4.8289,-4.9018,-4.9637,-5.0481,-5.1492,-5.2062,-5.2303,-5.2245,-5.2281,-5.1605,-5.0522,0.0,0.0,0.0,0.0,0.0,0.0,0.0,0.0,0.0,0.0,-4.4235,-4.425,-4.3454,0.0,0.0,0.0,0.0,0.0,-4.2532,-4.3231,-4.3717,-4.2824,-4.2074,-4.1244,-3.9918,-3.912,0.0,0.0,0.0,0.0,0.0,-3.8267,-3.8154,-3.7966,-3.7146,-3.6579,-3.669,-3.6407,-3.6542,-3.7591,-3.6589,-3.5938,-3.6402,-3.5341,-3.4494,-3.4261,-3.4261,-3.4064,-3.3679,-3.3767,-3.3767,-3.3679,-3.3679,-3.3679,-3.3679,-3.3679,-3.3878,-3.4211,-3.3965,-3.4064,-3.4384,-3.4298,-3.4347,-3.4494,-3.4738,-3.464,-3.4249,-3.4396,-3.4347,-3.4261,-3.4249,-3.4396,-3.458,-3.4445,-3.4211,-3.3828,0.0,0.0,0.0,0.0,0.0,0.0,0.0,0.0,0.0,0.0,0.0,0.0,0.0,0.0,0.0,0.0,-4.1372,-4.0987,-4.0593,-4.0436,-4.0401,-4.0505,-4.0489,-4.1143,-4.2514,-4.3837,-4.526,-4.6763,-4.7733,-4.8552,-4.9227,-4.9736,-5.0463,-5.1326,-5.1799,-5.2285,-5.2729,-5.243,-5.2046,-5.1625,0.0,0.0,0.0,0.0,0.0,0.0,0.0,0.0,0.0,0.0,0.0,0.0,0.0,0.0,0.0,-4.1335,-4.1466,-4.2046,-4.1846,-4.2368,-4.2726,-4.1539,-4.1526,-4.1312,-3.941,-3.8639,-3.8382,0.0,0.0,0.0,0.0,-3.7793,-3.7733,-3.6545,-3.6063,-3.5758,-3.543,-3.5151,-3.532,-3.6112,-3.5307,-3.4906,-3.5585,-3.499,-3.4396,-3.4125,-3.4026,-3.3828,-3.3431,-3.3381,-3.3381,-3.3381,-3.3331,-3.3431,-3.3679,-3.3431,-3.3481,-3.3779,-3.3729,-3.3866,-3.4249,-3.4249,-3.4286,-3.4445,-3.4689,-3.4543,-3.4249,-3.4396,-3.4347,-3.4162,-3.4298,-3.4384,-3.4433,-3.4211,-3.3977,-3.3729,0.0,0.0,0.0,0.0,0.0,0.0,0.0,0.0,0.0,0.0,0.0,0.0,0.0,0.0,0.0,0.0,-4.1505,-4.1156,-4.0799,-4.0593,-4.0489,-4.0489,-4.0489,-4.1109,-4.2378,-4.377,-4.5128,-4.6454,-4.762,-4.8755,-4.9813,-4.9686,-5.0539,-5.2199,-5.1934,-5.2302,-5.311,-5.252,-5.1943,-5.1276,-5.0674,0.0,0.0,0.0,0.0,0.0,0.0,0.0,0.0,0.0,0.0,0.0,0.0,0.0,-4.2679,-4.1285,-4.0796,-4.0645,-4.0648,-4.051,-4.0247,-3.9603,-4.0656,-4.1362,-3.9665,-3.8669,-3.8162,-3.8364,0.0,0.0,0.0,-3.7096,-3.6798,-3.5196,-3.595,-3.6524,-3.6038,-3.5087,-3.4783,-3.5643,-3.479,-3.4186,-3.4221,-3.3951,-3.3878,-3.4075,-3.3878,-3.3729,-3.3679,-3.3679,-3.3679,-3.3679,-3.3431,-3.3431,-3.3679,-3.3431,-3.358,-3.4075,-3.3828,-3.3729,-3.3729,-3.3729,-3.363,-3.3431,-3.3431,-3.358,-3.3729,-3.3481,-3.3817,-3.4335,-3.4211,-3.4408,-3.4738,-3.4261,-3.4075,-3.3977,0.0,0.0,0.0,0.0,0.0,0.0,0.0,0.0,0.0,0.0,0.0,-4.4286,-4.3767,0.0,0.0,0.0,-4.1752,-4.1406,-4.0833,-4.0474,-4.0335,-4.0366,-4.0277,-4.0723,-4.1876,-4.3398,-4.5055,-4.6844,-4.7884,-4.8538,-4.8854,-4.9015,-4.9697,-5.0836,-5.1242,-5.1832,-5.2539,-5.2771,-5.2492,-5.1874,-5.1553,-5.1116,0.0,0.0,0.0,0.0,0.0,0.0,0.0,0.0,-4.3448,-4.3022,-4.3255,-4.3018,-4.2422,-4.1235,-4.0837,-4.0706,-4.0568,-4.0548,-4.053,-4.033,-4.038,-4.0103,0.0,-3.7508,-3.6842,-3.7097,-3.6786,0.0,0.0,-3.5866,-3.5292,-3.5315,-3.5426,-3.5402,-3.5062,-3.4662,-3.4467,-3.4693,-3.4341,-3.4026,-3.3805,-3.3866,-3.3828,-3.363,-3.3679,-3.353,-3.3231,-3.3181,-3.3181,-3.3181,-3.3081,-3.3181,-3.3431,-3.3331,-3.3481,-3.3828,-3.3927,-3.4014,-3.415,-3.415,-3.4101,-3.4003,-3.4003,-3.3965,-3.3927,-3.3828,-3.3965,-3.4211,-3.4249,-3.431,-3.4359,-3.4174,-3.3878,-3.358,0.0,0.0,0.0,0.0,0.0,0.0,0.0,0.0,-4.6553,0.0,0.0,0.0,0.0,-4.3962,0.0,0.0,-4.2123,-4.1653,-4.1104,-4.0715,-4.0474,-4.047,-4.0277,-4.0618,-4.163,-4.3019,-4.4628,-4.6538,-4.7688,-4.8344,-4.8577,-4.8553,-4.9298,-5.0587,-5.0691,-5.1396,-5.2472,-5.2703,-5.2696,-5.2433,-5.1881,-5.1418,0.0,0.0,0.0,0.0,0.0,0.0,0.0,0.0,-4.3476,-4.2907,-4.2846,-4.2521,-4.1967,-4.101,-4.0593,-4.0335,-4.0147,-4.0,-3.9851,-3.9865,-3.9336,0.0,-3.7907,-3.6933,-3.6166,-3.6276,-3.5726,-3.5375,-3.5833,-3.497,-3.4419,-3.4994,-3.4962,-3.4672,-3.4371,-3.4249,-3.4101,-3.3977,-3.3878,-3.3767,-3.3507,-3.3717,-3.3679,-3.3181,-3.3331,-3.3231,-3.2779,-3.2768,-3.2768,-3.2768,-3.288,-3.2992,-3.3192,-3.3331,-3.353,-3.3679,-3.3977,-3.4162,-3.4298,-3.42,-3.42,-3.42,-3.42,-3.4113,-3.3977,-3.4075,-3.4125,-3.4211,-3.4433,-3.4445,-3.431,-3.4162,-3.3878,-3.353,0.0,0.0,0.0,0.0,0.0,0.0,0.0,0.0,-4.7436,-4.7217,-4.6548,0.0,0.0,0.0,0.0,0.0,-4.2606,-4.1833,-4.1621,-4.1305,-4.1003,-4.0799,-4.0593,-4.0917,-4.1755,-4.2649,-4.3831,-4.5314,-4.6893,-4.8283,-4.9376,-4.8431,-4.9443,-5.2001,-5.047,-5.1071,-5.3128,-5.2362,-5.2362,-5.2767,-5.151,-5.0895,-5.0645,0.0,0.0,0.0,0.0,0.0,0.0,0.0,-4.3135,-4.2751,-4.2032,-4.1649,-4.1352,-4.0605,-3.9857,-3.931,-3.9264,-3.8463,-3.7579,-3.7587,-3.7205,0.0,-3.7774,-3.7196,-3.6386,-3.6042,-3.5168,-3.445,-3.4765,-3.4602,-3.435,-3.4158,-3.4487,-3.4628,-3.4146,-3.3878,-3.3679,-3.3679,-3.3481,-3.3281,-3.3281,-3.3281,-3.3181,-3.2891,-3.2891,-3.2779,-3.2505,-3.2493,-3.2493,-3.2493,-3.2768,-3.288,-3.2891,-3.3431,-3.3679,-3.3679,-3.3977,-3.4125,-3.4075,-3.3828,-3.3679,-3.3679,-3.3679,-3.3679,-3.3729,-3.3977,-3.4211,-3.4433,-3.4677,-3.4775,-3.4738,-3.4261,-3.4125,-3.4026,0.0,0.0,0.0,0.0,0.0,0.0,0.0,0.0,-4.7251,-4.7217,-4.6885,0.0,0.0,0.0,0.0,0.0,0.0,0.0,-4.1454,-4.1189,-4.0969,-4.0593,-4.0524,-4.0597,-4.0727,-4.231,-4.4138,-4.6191,-4.7103,-4.7769,-4.82,-4.8067,-4.8844,-5.0324,-5.0276,-5.1095,-5.2572,-5.2462,-5.259,-5.2852,-5.2182,-5.1517,-5.0856,0.0,0.0,0.0,0.0,0.0,0.0,0.0,0.0,0.0,-4.2606,-4.2181,-4.1644,-4.0674,-3.9877,-3.9242,-3.8851,-3.8195,-3.748,-3.7108,-3.6785,-3.6584,0.0,-3.6186,0.0,0.0,-3.491,-3.4715,-3.4816,-3.4703,-3.4551,-3.4158,-3.4205,-3.4141,-3.3603,-3.363,-3.3469,-3.2908,-3.3119,-3.3069,-3.2443,-3.2969,-3.3019,-3.2342,-3.2667,-3.2667,-3.2179,-3.2128,-3.2128,-3.2128,-3.224,-3.2454,-3.2891,-3.3042,-3.3331,-3.3679,-3.3779,-3.3927,-3.4075,-3.3828,-3.3679,-3.3679,-3.3679,-3.3828,-3.4026,-3.4396,-3.4543,-3.4433,-3.4677,-3.4592,-3.431,-3.4174,-3.3878,-3.353,0.0,0.0,0.0,0.0,0.0,0.0,-4.8372,-4.7725,-4.7178,-4.7487,-4.714,-4.6749,0.0,0.0,0.0,0.0,0.0,0.0,-4.1702,-4.1423,-4.1104,-4.0627,-4.0627,-4.0647,-4.0709,-4.22,-4.3682,-4.5119,-4.6463,-4.7268,-4.7504,-4.7754,-4.8431,-4.9426,-4.9592,-5.0508,-5.1967,-5.187,-5.2235,-5.2868,-5.2483,-5.1728,-5.0795,0.0,0.0,0.0,0.0,0.0,0.0,0.0,0.0,0.0,-4.2153,-4.1835,-4.1507,-4.0487,-3.9567,-3.8829,-3.8437,-3.7831,-3.7166,-3.6749,-3.6461,-3.6087,-3.5479,0.0,0.0,0.0,-3.4552,-3.4454,-3.4256,-3.421,-3.4117,-3.3825,-3.3779,-3.3679,-3.3342,-3.3431,-3.3381,-3.2857,-3.3019,-3.293,-3.2403,-3.2818,-3.2818,-3.2077,-3.2454,-3.2454,-3.1874,-3.1823,-3.1823,-3.1823,-3.1913,-3.2229,-3.2718,-3.293,-3.3231,-3.353,-3.363,-3.3729,-3.3779,-3.3729,-3.3679,-3.3679,-3.3679,-3.3828,-3.4125,-3.4494,-3.4531,-3.4433,-3.4677,-3.464,-3.4359,-3.4174,-3.3878,-3.358,0.0,0.0,-4.6966,-4.7673,0.0,0.0,-4.8255,-4.7663,-4.733,-4.801,-4.7443,-4.7059,0.0,0.0,0.0,-4.5196,0.0,0.0,-4.2221,-4.1848,-4.1435,-4.0833,-4.0765,-4.0886,-4.1179,-4.215,-4.27,-4.2844,-4.5297,-4.6655,-4.7035,-4.7404,-4.8133,-4.9093,-4.8636,-4.9581,-5.1439,-5.0895,-5.1454,-5.2633,-5.2383,-5.1484,-5.0374,-5.0774,0.0,0.0,0.0,0.0,0.0,0.0,0.0,0.0,-4.1212,-4.1074,-4.1153,-4.0126,-3.9162,-3.8413,-3.8186,-3.7445,-3.6652,-3.635,-3.6072,-3.5553,-3.4225,-3.4719,-3.5254,-3.4446,-3.4173,-3.3906,-3.3373,-3.3365,-3.3388,-3.3292,-3.3281,-3.3281,-3.3281,-3.3281,-3.3281,-3.3231,-3.3031,-3.288,-3.2891,-3.288,-3.2617,-3.2026,-3.228,-3.2179,-3.1618,-3.1618,-3.1618,-3.1618,-3.1823,-3.2128,-3.2443,-3.2969,-3.3281,-3.3281,-3.358,-3.358,-3.3331,-3.358,-3.3679,-3.3679,-3.3679,-3.3828,-3.4075,-3.4298,-3.4348,-3.4362,-3.4605,-3.4679,-3.4594,-3.4119,-3.3958,-3.3906,0.0,0.0,-4.8279,-4.9169,0.0,0.0,-4.9753,-4.9157,-4.8625,-4.8751,-4.8204,-4.7767,-4.7802,-4.7292,0.0,-4.5593,-4.5282,0.0,-4.2823,-4.2392,-4.1868,-4.1065,-4.0608,-4.0373,-4.0279,-4.1005,-4.1744,-4.2425,-4.4601,-4.5679,-4.5727,-4.6325,-4.754,-4.9216,-4.8291,-4.9145,-5.1249,-5.0684,-5.0632,-5.0976,-5.1368,-5.0479,-4.8967,-4.9502,-4.8684,0.0,0.0,0.0,0.0,0.0,0.0,0.0,-4.221,-4.1807,-4.143,-4.0422,-3.9557,-3.8818,-3.8222,-3.7139,-3.6048,-3.558,-3.5283,-3.5133,-3.5462,-3.5095,-3.4435,-3.3684,-3.3942,-3.4109,-3.3423,-3.3792,-3.397,-3.3388,-3.3281,-3.3242,-3.3042,-3.3192,-3.3131,-3.2706,-3.283,-3.283,-3.2606,-3.2606,-3.2443,-3.2015,-3.2077,-3.1975,-3.1629,-3.1618,-3.1618,-3.1618,-3.168,-3.1823,-3.2128,-3.2645,-3.3019,-3.3281,-3.358,-3.3679,-3.363,-3.3481,-3.3381,-3.3381,-3.363,-3.3729,-3.3828,-3.4249,-3.4207,-3.385,-3.4067,-3.3827,-3.3279,-3.2984,-3.2956,-3.3124,0.0,0.0,0.0,0.0,0.0,0.0,0.0,0.0,-4.9107,-4.9499,-4.8657,-4.801,-4.801,-4.745,0.0,0.0,-4.5568,-4.4879,-4.3472,-4.3068,-4.2391,-4.1341,-4.0771,-4.0243,-3.9711,-4.0359,-4.0945,-4.1388,-4.3142,-4.4406,-4.5278,-4.5861,-4.6949,-4.8356,-4.7519,-4.8378,-5.0422,-5.0156,-5.0068,-5.0204,-5.0775,-4.9918,-4.829,-4.8647,-4.802,-4.7009,-4.7442,0.0,0.0,0.0,0.0,0.0,0.0,0.0,-4.1859,-4.0548,-3.9738,-3.9033,-3.8116,-3.7042,-3.6016,-3.5227,0.0,-3.4995,-3.5028,-3.4538,-3.3884,-3.3379,-3.3586,-3.3781,-3.3377,-3.3588,-3.3731,-3.3177,-3.3231,-3.3181,-3.2942,-3.3042,-3.298,-3.2718,-3.2555,-3.2403,-3.228,-3.228,-3.2128,-3.1823,-3.1913,-3.1874,-3.1618,-3.1618,-3.168,-3.1772,-3.1772,-3.1924,-3.2229,-3.2656,-3.293,-3.3081,-3.3381,-3.3431,-3.3331,-3.3292,-3.3281,-3.3281,-3.3331,-3.3331,-3.3331,-3.3717,-3.3702,-3.3506,-3.3611,-3.3446,-3.3043,-3.2488,-3.2544,-3.2841,0.0,0.0,0.0,0.0,0.0,0.0,0.0,0.0,0.0,-5.0249,-4.9212,-4.8369,-4.8204,-4.7559,-4.6813,0.0,0.0,0.0,-4.4069,-4.3528,-4.2758,-4.1633,-4.1134,-4.0467,-3.9604,-4.0076,-4.042,-4.0539,-4.1669,-4.3206,-4.5082,-4.5646,-4.6528,-4.7595,-4.7005,-4.7819,-4.9567,-4.9472,-4.9482,-4.9575,-5.0058,-4.9219,-4.7745,-4.796,-4.7421,-4.6639,-4.7675,-4.6969,-4.5642,-4.6527,0.0,0.0,0.0,0.0,-4.2382,-4.0887,-3.9973,-3.9183,-3.8023,-3.7011,-3.6026,-3.5017,-3.4808,0.0,-3.4073,-3.3629,-3.3265,-3.3059,-3.3101,-3.3181,-3.3119,-3.3119,-3.3081,-3.2942,-3.3092,-3.3131,-3.288,-3.288,-3.2891,-3.283,-3.2342,-3.2015,-3.2077,-3.1964,-3.1874,-3.1669,-3.1823,-3.1812,-3.1618,-3.1618,-3.1721,-3.1964,-3.1964,-3.2077,-3.2392,-3.2718,-3.288,-3.283,-3.3131,-3.3142,-3.288,-3.3039,-3.3139,-3.3131,-3.293,-3.283,-3.283,-3.3131,-3.3174,-3.3147,-3.3093,-3.3064,-3.2935,-3.2124,-3.2227,-3.269,0.0,0.0,0.0,0.0,0.0,0.0,0.0,0.0,0.0,0.0,-5.0599,-4.9778,-4.8965,-4.841,-4.761,-4.6362,-4.6083,-4.5512,-4.4409,0.0,0.0,-4.1973,-4.1677,-4.1152,-4.0292,-4.0189,-4.0404,-4.0999,-4.1353,-4.2533,-4.4464,-4.5278,-4.6633,-4.8427,-4.7687,-4.8177,-4.9491,-4.8902,-4.8458,-4.8161,-4.831,-4.7629,-4.6615,-4.7261,-4.7067,-4.6639,-4.7832,-4.7462,-4.6508,-4.7033,-4.6263,0.0,0.0,0.0,-4.2782,-4.2057,-4.08,-3.9442,-3.8462,0.0,-3.5517,0.0,-3.3993,-3.3568,0.0,0.0,-3.2217,-3.2166,-3.2386,-3.2594,-3.2521,-3.2583,-3.2656,-3.288,-3.2942,-3.288,-3.2606,-3.2768,-3.283,-3.2606,-3.224,-3.2128,-3.2392,-3.1986,-3.1721,-3.1913,-3.1772,-3.1618,-3.1618,-3.1618,-3.1721,-3.1964,-3.1772,-3.1772,-3.2066,-3.2544,-3.2706,-3.2555,-3.3069,-3.3142,-3.288,-3.2464,-3.2388,-3.2594,-3.2555,-3.2544,-3.2555,-3.2757,-3.2757,-3.2581,-3.2329,-3.2125,-3.1808,-3.1064,-3.1391,-3.2168,0.0,0.0,0.0,0.0,0.0,0.0,0.0,0.0,0.0,0.0,0.0,-5.0078,-4.9274,-4.8259,-4.7212,-4.6207,-4.5801,-4.5342,-4.4736,-4.3848,-4.3129,-4.2561,-4.1897,-4.1085,-4.0077,-3.9602,-3.9815,-4.0748,-4.0965,-4.2386,-4.487,-4.59,-4.7169,-4.855,-4.7463,-4.8044,-4.9783,-4.9152,-4.8413,-4.7673,-4.8075,-4.7289,-4.59,-4.6196,-4.6249,-4.6251,-4.6894,-4.6905,-4.6677,-4.7133,-4.6577,-4.5634,-4.5263,0.0,0.0,0.0,-4.1118,-3.9782,-3.8088,-3.6736,-3.5644,0.0,-3.429,-3.3841,-3.3652,-3.3117,-3.2538,-3.2074,-3.202,-3.2026,-3.2167,-3.2493,-3.2718,-3.2667,-3.2667,-3.2606,-3.2493,-3.2454,-3.2342,-3.2229,-3.1975,-3.1823,-3.1975,-3.1783,-3.1669,-3.1772,-3.1669,-3.1618,-3.1618,-3.1618,-3.1721,-3.1964,-3.1874,-3.1874,-3.2015,-3.2555,-3.2869,-3.2969,-3.3031,-3.3031,-3.288,-3.2319,-3.2034,-3.2017,-3.1589,-3.1428,-3.145,-3.1828,-3.1748,-3.1435,-3.1488,-3.1327,-3.1032,-3.0721,-3.1158,-3.1884,0.0,0.0,0.0,0.0,0.0,0.0,0.0,0.0,0.0,0.0,0.0,-4.9937,-4.9186,0.0,0.0,0.0,-4.5259,-4.4771,-4.4341,-4.3968,-4.3441,-4.2773,-4.1866,-4.0919,-3.9889,-3.9335,-3.9532,-4.0461,-4.0656,-4.2169,-4.4941,-4.5973,-4.7145,-4.8339,-4.7927,-4.854,-4.9892,-4.9402,-4.8653,-4.7739,-4.8098,-4.7403,-4.6118,-4.6055,-4.6159,-4.6361,-4.6666,-4.6737,-4.6752,-4.7204,-4.6849,-4.6086,-4.5242,-4.4652,0.0,0.0,0.0,-3.9915,-3.7774,0.0,-3.5954,-3.5126,-3.4582,-3.4163,0.0,-3.3056,-3.2487,-3.1986,-3.1617,-3.1476,-3.175,-3.2201,-3.2516,-3.2392,-3.2392,-3.2342,-3.2291,-3.2128,-3.1964,-3.1924,-3.1721,-3.1618,-3.1618,-3.1618,-3.1618,-3.1618,-3.1618,-3.1618,-3.1618,-3.1618,-3.1721,-3.1964,-3.1913,-3.1913,-3.2015,-3.2505,-3.298,-3.3281,-3.3081,-3.2992,-3.288,-3.2308,-3.1851,-3.1555,-3.1064,-3.0855,-3.0888,-3.1252,-3.1119,-3.0765,-3.0875,-3.0757,-3.0518,-3.06,-3.1071,-3.1702,0.0,0.0,0.0,0.0,0.0,0.0,0.0,0.0,0.0,0.0,0.0,-4.9496,-4.8652,-4.7679,-4.6524,-4.507,-4.4543,-4.3832,-4.2792,-4.2923,-4.2743,-4.2075,-4.1626,0.0,-4.0085,-3.9868,-3.995,-4.0393,-4.0461,-4.163,-4.3803,-4.4677,-4.6052,-4.7827,-4.9885,-5.0252,-4.9356,-4.9316,-4.9014,-4.8475,-4.7824,-4.766,-4.7772,-4.762,-4.7507,-4.7497,-4.8128,-4.7724,-4.6982,-4.744,-4.7278,-4.6648,-4.5369,-4.5075,-4.4894,0.0,0.0,0.0,0.0,-3.7087,0.0,-3.5416,-3.4604,-3.3889,-3.3415,-3.2129,-3.1155,-3.1513,-3.128,-3.0983,-3.1195,-3.1476,-3.1732,-3.1964,-3.2015,-3.1924,-3.1669,-3.1874,-3.1924,-3.1669,-3.1618,-3.1618,-3.1618,-3.1618,-3.1618,-3.1618,-3.1618,-3.1618,-3.1618,-3.1618,-3.1721,-3.1964,-3.1772,-3.1721,-3.2015,-3.2342,-3.2757,-3.3281,-3.3281,-3.3142,-3.2869,-3.237,-3.1836,-3.1351,-3.1469,-3.1553,-3.1553,-3.1575,-3.1464,-3.1241,-3.0776,-3.0493,-3.0353,-3.0518,-3.0941,-3.1499,0.0,0.0,0.0,0.0,0.0,0.0,0.0,0.0,0.0,0.0,0.0,0.0,0.0,-4.7716,-4.6584,-4.5625,-4.4641,-4.3975,-4.3707,-4.354,-4.3143,-4.2478,-4.1662,-4.0821,-3.9912,-3.9312,-3.9379,-4.0222,-4.0524,-4.172,-4.3732,-4.5356,-4.6398,-4.7063,-4.8895,-4.9904,-5.0197,-5.0339,-4.9869,-4.9043,-4.8771,-4.823,-4.761,-4.7296,-4.724,-4.7281,-4.6974,-4.7015,-4.7159,-4.6509,-4.6977,-4.7524,-4.5522,-4.4951,-4.4495,-4.1928,-4.0654,-3.9779,0.0,0.0,0.0,-3.5918,-3.4847,-3.3789,-3.2961,-3.1935,-3.1172,-3.1133,-3.0799,-3.0651,-3.1334,-3.1669,-3.1863,-3.1964,-3.1874,-3.1772,-3.1874,-3.1772,-3.1721,-3.1618,-3.1345,-3.1149,-3.1149,-3.0887,-3.0843,-3.1138,-3.1149,-3.1291,-3.1607,-3.1618,-3.1618,-3.1721,-3.1669,-3.1823,-3.2342,-3.2443,-3.2757,-3.3281,-3.3281,-3.3231,-3.3131,-3.2787,-3.2397,-3.2046,-3.1909,-3.1431,-3.0712,-3.0712,-3.0488,-3.0125,-2.995,-3.0072,-3.0303,-3.0547,-3.1117,-3.1867,0.0,0.0,0.0,-4.9153,0.0,-4.9757,-4.9701,-4.99,-5.0097,-5.0018,0.0,0.0,0.0,0.0,-4.6438,-4.5541,-4.4779,-4.415,-4.3655,-4.3455,-4.3057,-4.2394,-4.1639,-4.0887,-4.0138,-3.9583,-3.9647,-4.0437,-4.0768,-4.1743,-4.3393,-4.4944,-4.5863,-4.6244,-4.7855,-4.902,-4.9806,-5.0193,-4.985,-4.9052,-4.9028,-4.863,-4.8048,-4.7689,-4.7679,-4.7764,-4.7134,-4.7271,-4.7525,-4.6475,-4.6953,-4.7593,-4.5033,-4.3875,-4.3066,-4.095,-4.0291,0.0,-3.869,0.0,0.0,0.0,-3.4908,-3.3612,-3.2611,-3.1558,-3.0815,-3.0691,-3.034,-3.0297,-3.0978,-3.1319,-3.1585,-3.1841,-3.1721,-3.1669,-3.1823,-3.1578,-3.1327,-3.1226,-3.0913,-3.0608,-3.0558,-3.0335,-3.0341,-3.0646,-3.0668,-3.0876,-3.1356,-3.1378,-3.1455,-3.1618,-3.1618,-3.1885,-3.2493,-3.2493,-3.2757,-3.3281,-3.3181,-3.3181,-3.3281,-3.293,-3.2667,-3.2493,-3.228,-3.1611,-3.0679,-3.0515,-3.0155,-2.9729,-2.9814,-3.0013,-3.0242,-3.0793,-3.1374,-3.1968,-4.862,-4.8759,-4.8883,-4.8867,-4.9291,-4.9493,-4.9228,-4.9582,-4.9797,-4.9597,0.0,0.0,0.0,0.0,0.0,-4.4756,-4.4861,-4.4248,-4.2493,-4.2622,-4.2454,-4.1739,-4.1543,-4.1247,-4.0811,-4.0811,-4.0886,-4.1091,-4.1091,-4.1668,-4.2732,-4.3422,-4.4279,-4.5379,-4.6951,-4.7767,-4.801,-4.8693,-4.8874,-4.8622,-4.8447,-4.8731,-4.915,-4.8947,-4.897,-4.9041,-4.8904,-4.8509,-4.7987,-4.7441,-4.7295,-4.6799,-4.387,-4.2001,-4.0862,-4.0607,0.0,0.0,0.0,0.0,0.0,-3.6055,-3.4744,-3.3327,-3.2312,-3.0976,-2.9969,-3.0187,-2.997,-2.9862,-3.015,-3.0372,-3.0727,-3.1458,-3.1534,-3.1534,-3.1534,-3.1171,-3.0776,-3.0486,-3.0285,-3.009,-2.9823,-3.0019,-3.0177,-3.0188,-3.0188,-3.0384,-3.0843,-3.0887,-3.1116,-3.1607,-3.1618,-3.1885,-3.2493,-3.2493,-3.2757,-3.3281,-3.3042,-3.3031,-3.3258,-3.2734,-3.2471,-3.246,-3.246,-3.2145,-3.1542,-3.1072,-3.0614,-3.0258,-3.048,-3.0337,-3.0108,-3.1258,-3.1726,-3.1755,-4.8218,-4.8614,-4.8813,-4.8336,-4.8883,-4.9204,-4.864,-4.8769,-4.8949,0.0,0.0,0.0,-4.8301,-4.7446,-4.6615,-4.5889,-4.5606,-4.5032,-4.4028,-4.3912,-4.3349,-4.2263,-4.2025,-4.157,-4.0811,-4.067,-4.0744,-4.1091,-4.1252,-4.1927,-4.3177,-4.3975,-4.475,-4.5557,-4.6488,-4.6946,-4.7093,-4.8726,-4.9367,-4.9305,-4.8865,-4.8813,-4.9001,-4.8435,-4.8137,-4.7989,-4.7622,-4.7478,-4.7351,-4.6749,-4.7272,-4.763,-4.4711,-4.2352,0.0,-3.9613,0.0,0.0,-3.8002,0.0,0.0,0.0,0.0,0.0,-3.2293,-3.094,-3.0041,-3.0573,-2.9958,-2.9606,-3.0515,-3.0385,-3.0202,-3.0526,-3.0443,-3.0245,-3.0117,-3.0076,-3.0039,-2.9824,-2.9553,-2.9359,-2.93,-2.9226,-2.935,-2.9652,-2.9685,-2.9893,-3.0373,-3.0723,-3.1116,-3.1607,-3.1772,-3.2077,-3.2493,-3.2493,-3.2656,-3.2992,-3.2718,-3.2476,-3.2126,-3.1966,-3.1726,-3.1427,-3.1427,-3.1232,-3.0877,-3.0745,-3.0612,-3.0458,-3.019,-3.0545,-3.1236,-3.1367,-3.164,-3.19,-4.7904,-4.817,-4.8235,-4.804,-4.8341,-4.8526,-4.8319,-4.8343,-4.8527,0.0,0.0,0.0,-4.8602,-4.8155,-4.7505,-4.6656,-4.6247,-4.574,-4.5077,-4.4588,-4.3973,-4.321,-4.2713,-4.2189,-4.1622,-4.1385,-4.139,-4.1512,-4.1619,-4.2252,-4.3316,-4.3807,-4.4595,-4.5608,-4.5888,-4.6241,-4.6639,-4.754,-4.8194,-4.8716,-4.8424,-4.8392,-4.8428,-4.8158,-4.7899,-4.7688,-4.7506,-4.7577,-4.7675,-4.7236,-4.7297,-4.7165,-4.4668,-4.2777,-4.1174,-3.9559,-3.8908,0.0,0.0,0.0,0.0,-3.4984,0.0,0.0,-3.1803,-3.0616,-2.9816,-3.0098,-2.9586,-2.9266,-2.9913,-2.9686,-2.933,-2.9166,-2.8973,-2.9052,-2.9567,-2.9536,-2.9418,-2.9185,-2.8962,-2.8815,-2.8815,-2.8791,-2.8924,-2.9208,-2.923,-2.939,-2.9882,-3.0351,-3.0832,-3.1302,-3.1278,-3.1478,-3.199,-3.1939,-3.1937,-3.2097,-3.1937,-3.178,-3.157,-3.1216,-3.106,-3.1012,-3.0868,-3.0685,-3.0453,-3.054,-3.0588,-3.0626,-3.0778,-3.1248,-3.1885,-3.18,-3.1945,-3.2128,0.0,-4.7469,-4.7326,-4.7709,-4.7701,-4.7755,-4.8104,-4.8138,-4.843,0.0,-4.9204,-4.8957,-4.8882,-4.8866,-4.8367,-4.7152,-4.6833,-4.6391,-4.5687,-4.4896,-4.443,-4.434,-4.3596,-4.3053,-4.2765,-4.2576,-4.2342,-4.2051,-4.2051,-4.2439,-4.3175,-4.329,-4.4103,-4.5491,-4.5332,-4.5742,-4.6462,-4.5866,-4.6274,-4.7385,-4.7474,-4.7623,-4.773,-4.797,-4.8048,-4.8048,-4.8088,-4.83,-4.8494,-4.8199,-4.7241,-4.5881,-4.4144,-4.3186,-4.2251,-3.9955,-3.8922,0.0,0.0,0.0,0.0,-3.4403,-3.3476,0.0,-3.1205,-3.0261,-2.9531,-2.9312,-2.92,-2.9091,-2.8927,-2.8823,-2.8487,-2.7799,-2.7641,-2.8058,-2.9321,-2.9193,-2.8876,-2.8673,-2.8501,-2.8395,-2.8395,-2.8617,-2.8803,-2.8803,-2.8803,-2.9011,-2.9456,-2.9893,-3.0362,-3.0876,-3.045,-3.0586,-3.1268,-3.1124,-3.0964,-3.0964,-3.0964,-3.1049,-3.116,-3.0473,-3.0414,-3.0886,-3.0656,-3.0447,-3.0307,-3.0643,-3.0714,-3.0758,-3.1683,-3.2082,-3.2184,-3.2425,-3.2493,-3.2392,-4.6255,-4.6605,-4.6764,-4.6328,-4.7194,-4.7843,-4.7416,-4.8088,-4.87,-4.8923,-4.8894,-4.8656,-4.8179,-4.8119,-4.7865,-4.7304,-4.7186,-4.683,-4.5975,-4.5769,-4.5315,-4.4568,-4.4394,-4.3958,-4.3209,-4.3153,-4.2696,-4.1785,-4.1785,-4.2019,-4.251,-4.32,-4.3994,-4.4804,-4.5459,-4.5854,-4.6015,-4.6046,-4.6274,-4.659,-4.6514,-4.7068,-4.7872,-4.7825,-4.8192,-4.8728,-4.8246,-4.8443,-4.878,-4.8033,-4.6826,-4.5391,-4.3822,-4.2801,-4.1733,-3.9627,-3.8819,-3.8367,-3.724,0.0,-3.5053,-3.4063,-3.326,0.0,-3.1439,-3.0623,-3.0125,-3.0261,-2.9839,-2.947,-2.9668,-2.9216,-2.8679,-2.8312,-2.7867,-2.7647,-2.7787,-2.801,-2.8183,-2.8125,-2.8297,-2.8395,-2.8395,-2.8617,-2.8803,-2.8803,-2.8803,-2.9011,-2.9456,-2.9576,-3.0013,-3.0865,-3.0635,-3.0771,-3.1268,-3.1124,-3.0868,-3.0685,-3.0685,-3.0378,-2.987,-2.9726,-2.9917,-3.0451,-3.0357,-3.0521,-3.0901,-3.1548,-3.1569,-3.1185,-3.1384,-3.185,-3.242,-3.246,-3.2331,-3.2077,-4.5734,-4.6007,-4.6225,-4.6407,-4.6714,-4.7151,-4.7806,-4.7863,-4.8194,-4.9304,-4.9577,-4.9341,-4.8584,-4.8602,-4.8355,-4.7481,-4.812,-4.8,-4.6545,-4.6768,-4.6414,-4.5165,-4.4683,-4.4175,-4.3599,-4.3485,-4.3112,-4.2439,-4.2439,-4.2553,-4.2825,-4.3542,-4.4059,-4.4403,-4.5049,-4.5522,-4.578,-4.5602,-4.6131,-4.711,-4.6667,-4.6771,-4.7162,-4.7284,-4.7822,-4.838,-4.7805,-4.8042,-4.8524,-4.8114,-4.7133,-4.5885,-4.4436,-4.3238,-4.1885,-3.941,-3.8491,-3.806,-3.6582,-3.5627,-3.4832,-3.3917,-3.3215,0.0,0.0,-3.088,-3.0261,-3.0352,-2.9943,-2.9485,-2.9508,-2.9139,-2.8617,-2.8113,-2.7783,-2.7536,-2.7441,-2.7631,-2.7914,-2.8149,-2.8301,-2.8441,-2.8581,-2.871,-2.8803,-2.8803,-2.8803,-2.8902,-2.9153,-2.9258,-2.9646,-3.0383,-3.016,-3.0281,-3.0734,-3.0541,-3.0247,-2.9858,-3.0,-2.9772,-2.9316,-2.9558,-2.9916,-3.0328,-3.0421,-3.0704,-3.116,-3.1394,-3.1551,-3.1672,-3.1995,-3.2195,-3.2307,-3.2616,-3.2348,-3.1845,-4.5283,-4.5307,-4.5525,-4.6428,-4.6059,-4.6224,-4.7956,-4.7499,-4.7655,-4.9611,-5.0053,-4.9896,-4.9226,-4.9406,-4.9063,-4.7887,-4.9197,-4.9291,-4.7511,-4.7822,-4.7451,-4.6153,-4.5142,-4.4443,-4.4037,-4.3878,-4.3557,-4.312,-4.305,-4.2993,-4.3008,-4.3635,-4.3965,-4.3993,-4.4581,-4.5241,-4.5784,-4.5142,-4.6059,-4.7848,-4.7192,-4.6936,-4.6995,-4.735,-4.7772,-4.8034,-4.7457,-4.7735,-4.8337,-4.7984,-4.7408,-4.6531,-4.4829,-4.3588,-4.2273,-3.9424,-3.833,-3.7789,-3.6303,-3.5447,-3.4857,-3.4432,-3.3614,-3.2841,0.0,0.0,0.0,-3.0216,-2.9897,-2.9542,-2.9312,-2.9082,-2.871,-2.7961,-2.7857,-2.7857,-2.782,-2.7857,-2.8008,-2.8348,-2.8441,-2.8581,-2.8757,-2.8896,-2.8896,-2.885,-2.885,-2.885,-2.885,-2.8989,-2.9371,-2.988,-2.9626,-2.9721,-3.0178,-2.9997,-2.9657,-2.9174,-2.954,-2.954,-2.9196,-2.9819,-3.0239,-3.0532,-3.0763,-3.1156,-3.1562,-3.1351,-3.1622,-3.2128,-3.2566,-3.2519,-3.2302,-3.2671,-3.2408,-3.1855,-4.4101,-4.4162,-4.4284,-4.4635,-4.4916,-4.5425,-4.6411,-4.7107,-4.7877,-4.8894,-4.9044,-4.9128,-4.9254,-4.9513,-4.9465,-4.8975,-5.0003,-5.0251,-4.925,-4.878,-4.8363,-4.7894,-4.6497,-4.5357,-4.4556,-4.4497,-4.4002,-4.2943,-4.239,-4.2034,-4.1815,-4.2671,-4.3043,-4.3099,-4.4459,-4.5594,-4.6364,-4.5438,-4.6219,-4.7945,-4.7506,-4.8041,-4.9048,-4.9206,-4.9119,-4.8869,-4.8027,-4.8261,-4.8728,-4.7153,-4.6717,-4.6432,-4.3898,-4.2984,-4.2399,-3.9902,-3.8698,-3.7927,-3.7238,-3.6269,-3.5682,-3.6359,-3.515,-3.3828,-3.4132,0.0,-3.0994,-3.0352,0.0,-3.0045,-2.984,0.0,0.0,-2.8757,-2.8828,-2.8863,-2.871,-2.8828,-2.8817,-2.8441,-2.8617,-2.8757,-2.8803,-2.9163,-2.9301,-2.9082,-2.9082,-2.9082,-2.9082,-2.9082,-2.9371,-2.988,-2.9626,-2.9721,-3.0178,-2.9997,-2.9737,-2.9451,-3.0166,-3.0097,-2.9473,-3.046,-3.1041,-3.129,-3.1754,-3.2214,-3.27,-3.27,-3.2561,-3.2443,-3.2179,-3.2409,-3.2801,-3.2583,-3.246,-3.2376,-4.356,-4.3465,-4.3622,-4.4399,-4.4323,-4.4664,-4.6095,-4.7041,-4.7706,-4.7907,-4.8468,-4.9231,-5.0061,-5.04,-5.0455,-5.0194,-5.1654,-5.1734,-4.9631,-4.9846,-4.9758,-4.9091,-4.7285,-4.6183,-4.6024,-4.5184,-4.4396,-4.3762,-4.3508,-4.3062,-4.2499,-4.3192,-4.329,-4.2845,-4.3957,-4.4942,-4.5643,-4.5358,-4.635,-4.812,-4.8266,-4.9008,-4.9946,-4.9263,-4.8455,-4.7668,-4.7387,-4.7717,-4.8273,-4.7703,-4.7025,-4.6226,-4.5275,-4.3913,-4.2388,-4.1039,0.0,0.0,-3.8715,-3.7847,-3.7012,-3.655,-3.5287,-3.3958,-3.3152,-3.2042,-3.0968,-3.0328,0.0,0.0,0.0,0.0,0.0,0.0,-2.9555,-2.9498,-2.9371,-2.908,-2.8842,-2.8817,-2.9185,-2.9508,-2.9577,-2.968,-2.9726,-2.9715,-2.9715,-2.9623,-2.9359,-2.9577,-2.9724,-2.9671,-2.9827,-3.0,-3.0215,-3.0102,-3.0102,-3.0144,-3.018,-3.0098,-3.0014,-3.0852,-3.1275,-3.1428,-3.2222,-3.2676,-3.2891,-3.2718,-3.2718,-3.2718,-3.2566,-3.2487,-3.2472,-3.2805,-3.2576,-3.2062,-4.2873,-4.2825,-4.3071,-4.3883,-4.3629,-4.389,-4.5587,-4.68,-4.7643,-4.7836,-4.8621,-4.9864,-5.1499,-5.1865,-5.2003,-5.1947,-5.3487,-5.3341,-5.089,-5.1028,-5.0997,-5.0368,-4.8186,-4.7195,-4.7586,-4.6182,-4.5246,-4.4931,-4.4317,-4.3701,-4.3129,-4.3482,-4.3313,-4.2725,-4.3615,-4.4429,-4.5202,-4.5386,-4.6498,-4.8261,-4.8788,-4.9392,-4.9906,-4.8934,-4.8122,-4.7426,-4.696,-4.7459,-4.823,-4.7988,-4.7244,-4.6341,-4.5973,-4.4425,-4.2632,0.0,0.0,0.0,-3.9808,-3.9097,-3.826,-3.7077,-3.5679,-3.4247,-3.2943,-3.1914,-3.1073,-3.0494,-3.0738,0.0,0.0,0.0,-3.0699,-3.0347,0.0,-3.011,-2.9885,-2.9428,-2.908,-2.9182,-2.9444,-2.968,-2.9758,-2.9859,-2.9948,-2.9937,-3.0198,-3.0178,-2.9693,-3.009,-3.0125,-2.9715,-3.0034,-3.0216,-3.0216,-3.0365,-3.0457,-3.0489,-3.0421,-3.0465,-3.0527,-3.134,-3.1672,-3.1729,-3.2605,-3.2992,-3.2992,-3.2818,-3.2818,-3.2992,-3.2992,-3.2753,-3.2507,-3.2994,-3.2692,-3.2072,-4.1796,-4.2155,-4.2498,-4.2582,-4.2547,-4.2986,-4.4461,-4.6195,-4.782,-4.9339,-4.9785,-5.0964,-5.3701,-5.4025,-5.4132,-5.4386,-5.5236,-5.5191,-5.3846,-5.2413,-5.1693,-5.1944,-4.9585,-4.8425,-4.8823,-4.7672,-4.6755,-4.6237,-4.4176,-4.3143,-4.3083,-4.2865,-4.2725,-4.2725,-4.3615,-4.4511,-4.5401,-4.5684,-4.673,-4.8273,-4.8773,-4.8855,-4.8635,-4.8379,-4.8804,-4.9228,-4.7256,-4.7838,-4.9296,-4.7528,-4.7123,-4.6972,-4.4915,-4.3869,-4.3187,-4.2275,0.0,0.0,-4.0121,-3.9664,-3.9315,-3.8743,-3.6811,-3.501,-3.4684,-3.3126,-3.1582,-3.0929,-3.1612,-3.222,-3.1749,-3.2045,-3.1918,-3.0672,-3.0879,0.0,0.0,-2.9996,-2.9811,-2.9424,-2.912,-2.8864,-2.8671,-2.9475,-2.9814,-2.9371,-3.0236,-3.0565,-3.0109,-3.04,-3.0442,-3.017,-3.017,-3.0216,-3.0216,-3.0732,-3.0732,-3.0205,-3.1249,-3.1467,-3.0996,-3.2018,-3.2466,-3.2489,-3.304,-3.3281,-3.3281,-3.3281,-3.3281,-3.3281,-3.3281,-3.3281,-3.3208,-3.298,-3.288,-3.2818,-4.2237,-4.186,-4.171,-4.172,-4.2349,-4.3281,-4.4693,-4.6627,-4.8058,-4.8631,-4.9259,-5.0871,-5.409,-5.4457,-5.4676,-5.5342,-5.4923,-5.4429,-5.394,-5.231,-5.1772,-5.2691,-5.0579,-4.9509,-4.9882,-4.8077,-4.7292,-4.7502,-4.5406,-4.4455,-4.4657,-4.3168,-4.243,-4.2242,-4.273,-4.3218,-4.3811,-4.5084,-4.603,-4.688,-4.8437,-4.8668,-4.8069,-4.7972,-4.7728,-4.735,-4.625,-4.6715,-4.7704,-4.7138,-4.6739,-4.6435,-4.5674,-4.5037,-4.4532,-4.4216,-4.3583,-4.2876,-4.2615,-4.1657,-4.0461,-3.9508,-3.8162,-3.6748,-3.5319,-3.4678,-3.3958,-3.2487,-3.3469,-3.4139,-3.2621,-3.284,-3.2824,-3.143,-3.1094,-3.0876,0.0,-3.0532,-3.0195,-2.9304,-2.9422,-2.9731,-3.0163,-3.0354,-3.0521,-3.0616,-3.0805,-3.0777,-3.0441,-3.0603,-3.0552,-3.0167,-3.0358,-3.0397,-3.0216,-3.0399,-3.0572,-3.0744,-3.0744,-3.1008,-3.1525,-3.1857,-3.2227,-3.2512,-3.3051,-3.3281,-3.3281,-3.3281,-3.3281,-3.3281,-3.3281,-3.3281,-3.3281,-3.3192,-3.2814,-3.232,-4.2706,-4.1834,-4.1243,-4.0909,-4.2387,-4.3996,-4.4973,-4.7263,-4.9133,-4.9776,-5.0537,-5.208,-5.4924,-5.5377,-5.56,-5.5988,-5.5461,-5.4869,-5.4323,-5.2574,-5.2086,-5.317,-5.1198,-5.0454,-5.1189,-4.9342,-4.8489,-4.878,-4.6355,-4.5239,-4.531,-4.323,-4.216,-4.1933,-4.2256,-4.2569,-4.2912,-4.4966,-4.588,-4.6142,-4.8351,-4.8619,-4.7645,-4.8054,-4.7575,-4.6661,-4.6316,-4.6618,-4.7161,-4.6727,-4.6465,-4.6162,-4.5746,-4.5321,-4.5018,-4.491,-4.4474,-4.3973,-4.3658,-4.2601,-4.1272,-3.9853,-3.8589,-3.7337,-3.5669,-3.5478,-3.5253,-3.4065,-3.5003,-3.5625,-3.4275,-3.3863,-3.3407,-3.2198,-3.1295,-3.0624,0.0,-3.0857,-3.0737,-2.9778,-2.9908,-3.0167,-3.0422,-3.0608,-3.0741,-3.0861,-3.1254,-3.1257,-3.072,-3.0827,-3.08,-3.0478,-3.0325,-3.0269,-3.0352,-3.0445,-3.0583,-3.0732,-3.0572,-3.0939,-3.1754,-3.1754,-3.2121,-3.2787,-3.3132,-3.3281,-3.3281,-3.3281,-3.3281,-3.3281,-3.3281,-3.3281,-3.3281,-3.3281,-3.2963,-3.243,-4.3212,-4.2121,-4.1118,-4.0312,-4.2709,-4.4898,-4.5212,-4.7942,-5.0614,-5.2545,-5.3164,-5.4219,-5.6151,-5.6609,-5.6666,-5.6394,-5.6608,-5.6175,-5.4981,-5.3186,-5.2527,-5.3314,-5.1452,-5.108,-5.2598,-5.1094,-5.0223,-5.0045,-4.6962,-4.5357,-4.5107,-4.3049,-4.1918,-4.1657,-4.2173,-4.2404,-4.2565,-4.5113,-4.6126,-4.6143,-4.8572,-4.8675,-4.7464,-4.8667,-4.8405,-4.7325,-4.7387,-4.756,-4.7603,-4.6508,-4.6228,-4.6205,-4.5014,-4.4681,-4.4626,-4.4367,-4.4258,-4.4074,-4.3223,-4.2552,-4.1693,-3.9829,-3.8289,-3.6939,-3.5947,-3.5637,-3.5612,-3.5587,-3.6285,-3.6745,-3.643,-3.5102,-3.3759,-3.2947,-3.1373,-3.0251,-3.0151,-3.101,-3.146,-3.0838,-3.0558,-3.0203,0.0,-3.0216,-3.0546,-3.019,-3.1499,-3.1898,-3.0861,-3.1042,-3.1168,-3.1119,-3.0118,-2.9945,-3.0656,-3.0905,-3.0778,-3.0262,-3.0778,-3.1283,-3.1718,-3.1718,-3.2328,-3.3281,-3.3281,-3.3281,-3.3281,-3.3258,-3.3247,-3.3247,-3.3247,-3.3258,-3.3281,-3.3258,-3.3258,-3.3181,-4.278,-4.166,-4.0778,-4.1041,-4.2971,-4.4956,-4.6289,-4.7378,-4.9131,-5.2031,-5.1015,-5.1539,-5.5678,-5.5349,-5.5251,-5.6308,-5.5011,-5.3904,-5.3411,-5.1635,-5.078,-5.1245,-5.0315,-5.0483,-5.199,-4.9878,-4.9523,-5.1026,-4.7133,-4.543,-4.577,-4.2823,-4.1198,-4.0743,-4.0877,-4.1037,-4.1315,-4.2902,-4.4636,-4.651,-4.8456,-4.8575,-4.7847,-4.9209,-4.8911,-4.7702,-4.7919,-4.7758,-4.7306,-4.6616,-4.5852,-4.5021,-4.4342,-4.4107,-4.4107,-4.3997,-4.3819,-4.3513,-4.2856,-4.2135,-4.1301,-4.0417,-3.9623,-3.8918,-3.8428,-3.8467,-3.8241,-3.7023,-3.7917,-3.8341,-3.6445,-3.6073,-3.5385,-3.3345,-3.1417,-3.0227,-3.0419,-3.0889,-3.1219,-3.136,-3.1471,-3.1323,-3.0848,-3.0861,-3.0949,-3.0973,-3.1071,-3.1099,-3.0981,-3.0925,-3.1091,-3.1517,-3.1331,-3.1355,-3.1625,-3.1347,-3.1233,-3.1284,-3.1078,-3.1456,-3.2294,-3.2294,-3.265,-3.3281,-3.3281,-3.3281,-3.3258,-3.2856,-3.2695,-3.2695,-3.2695,-3.2937,-3.3235,-3.2833,-3.2838,-3.2885,-4.2965,-4.1465,-4.0744,-4.1542,-4.3293,-4.5156,-4.6854,-4.8029,-4.9762,-5.2505,-5.147,-5.1854,-5.5373,-5.5289,-5.5048,-5.5364,-5.4785,-5.4036,-5.3205,-5.2207,-5.1785,-5.2232,-5.081,-5.0661,-5.2166,-5.0112,0.0,-5.0423,-4.7351,-4.5781,-4.5475,-4.2566,-4.1026,-4.0603,-4.0521,-4.0517,-4.0796,-4.2866,-4.4944,-4.7018,-4.8682,-4.8996,0.0,-4.954,-4.9378,-4.8742,-4.8797,-4.8006,-4.6878,-4.6178,-4.5227,-4.4254,-4.3811,-4.3708,-4.3708,-4.3708,-4.3352,-4.2988,-4.252,-4.1796,-4.0996,-4.0588,-3.9994,-3.953,-3.9478,-3.9374,-3.9096,-3.8259,-3.8733,-3.8823,-3.7332,-3.6529,-3.5281,-3.2603,-3.1004,-3.0292,-3.0822,-3.1246,-3.1532,-3.1716,-3.2046,-3.2082,-3.1619,-3.136,-3.1261,-3.1161,-3.1184,-3.1147,-3.0999,-3.0881,-3.1053,-3.1476,-3.1067,-3.1101,-3.1593,-3.1086,-3.0943,-3.1247,-3.1078,-3.141,-3.2167,-3.2386,-3.2776,-3.3281,-3.3281,-3.3281,-3.3258,-3.296,-3.2833,-3.281,-3.2581,-3.2535,-3.2615,-3.2512,-3.2723,-3.2946,-4.3441,-4.1795,-4.1185,-4.2011,-4.3926,-4.5856,-4.7258,-4.9049,-5.1027,-5.3219,-5.2919,-5.3262,-5.5239,-5.5556,-5.5259,-5.4216,-5.5131,-5.5122,-5.3527,-5.3458,-5.3642,-5.4075,-5.1721,-5.118,-5.2743,-5.0878,-4.9749,-4.9526,-4.7662,-4.6086,-4.4855,-4.2523,-4.1255,-4.0944,-4.0734,-4.0658,-4.0965,-4.3991,-4.6044,-4.7442,-4.896,-4.9512,-4.9512,-4.9512,-4.9683,-4.984,-4.9683,-4.8402,-4.6647,-4.5714,-4.478,-4.3925,-4.3513,-4.3338,-4.3283,-4.3338,-4.2971,-4.2486,-4.2179,-4.1506,-4.079,-4.0425,-3.9827,-3.9322,-3.9478,-3.9166,-3.8841,-3.9102,-3.8945,-3.8693,-3.8458,-3.6751,-3.4472,-3.1695,-3.0723,-3.0573,-3.1248,-3.1763,-3.2069,-3.2059,-3.2373,0.0,-3.194,-3.172,-3.1447,-3.1099,-3.1444,-3.1509,-3.1013,-3.0933,-3.1058,-3.1327,-3.0449,-3.0398,-3.1319,-3.0648,-3.0512,-3.0832,-3.0963,-3.1341,-3.1901,-3.2317,-3.2776,-3.3281,-3.3281,-3.3281,-3.3281,-3.3212,-3.3178,-3.312,-3.2592,-3.2179,-3.1963,-3.2328,-3.2776,-3.3089,-4.3636,-4.3334,-4.316,-4.2591,-4.5813,-4.8253,-4.7798,-4.8292,-4.9788,-5.2865,-5.1886,-5.1983,-5.4772,-5.4228,-5.3913,-5.4459,-5.4466,-5.3895,-5.2641,-5.2303,-5.2083,-5.1956,-5.0734,-5.104,-5.3077,-5.0614,-4.9938,-5.1374,-4.7666,-4.5739,-4.5498,-4.3121,-4.1726,-4.1245,-4.1197,0.0,-4.2376,-4.458,-4.5996,-4.6795,-4.8501,-4.9183,-4.9183,-4.9183,-4.924,-4.9284,-4.9512,-4.9022,-4.8047,-4.6699,-4.5505,-4.4389,-4.3387,-4.2849,-4.2681,-4.2974,-4.2695,-4.2167,-4.1605,-4.1003,-4.04,-3.9675,-3.9384,-3.9154,-3.8724,-3.8736,-3.8684,-3.8303,-3.8356,-3.8437,-3.8392,-3.6997,-3.5068,-3.2767,-3.1937,-3.1551,-3.1477,-3.169,-3.2092,-3.2739,-3.2353,-3.1992,-3.1897,-3.172,-3.1572,-3.1485,-3.1266,-3.1091,-3.0999,-3.1003,-3.1345,-3.2152,-3.1628,-3.1682,-3.241,-3.155,-3.1463,-3.216,-3.1391,-3.172,-3.3005,-3.265,-3.2776,-3.3281,-3.3281,-3.3281,-3.3247,-3.2799,-3.2627,-3.2569,-3.2135,-3.2135,-3.2374,-3.2454,-3.2546,-3.2586,-4.4658,-4.381,-4.3043,-4.3232,-4.6156,-4.8545,-4.8729,-4.9818,-5.1183,-5.2986,-5.2052,-5.2126,-5.4533,-5.4422,-5.4051,-5.3874,-5.4287,-5.4154,-5.311,-5.3168,-5.324,-5.3284,-5.1941,-5.1829,-5.3199,-5.0796,-4.9874,-5.043,-4.8129,-4.6396,-4.5171,-4.3725,-4.2612,-4.1756,-4.1906,-4.2658,0.0,-4.5386,-4.6425,-4.7083,-4.8537,-4.9125,-4.9068,-4.8952,-4.8952,-4.9125,-4.9125,-4.8695,-4.8028,-4.7166,-4.5648,-4.3956,-4.352,-4.2975,-4.2513,-4.2694,-4.2363,-4.1813,-4.1059,-4.0459,-3.9848,-3.9186,-3.905,-3.8945,-3.8684,-3.8579,-3.8514,-3.825,-3.8198,-3.8028,-3.7484,-3.6027,-3.4336,-3.2634,-3.1976,-3.1611,-3.1241,-3.1556,-3.2046,-3.2516,0.0,0.0,-3.176,-3.1743,-3.1706,-3.1619,-3.1421,-3.131,-3.131,-3.1099,-3.12,-3.1666,-3.14,-3.147,-3.193,-3.1202,-3.1095,-3.1627,-3.1182,-3.1398,-3.211,-3.2363,-3.2627,-3.2879,-3.3166,-3.3281,-3.3258,-3.3005,-3.2741,-3.2431,-3.1997,-3.1963,-3.211,-3.2099,-3.2017,-3.1858,-4.6181,-4.4928,-4.3947,-4.4544,-4.6878,-4.8939,-4.9737,-5.158,-5.2978,-5.3198,-5.2707,-5.2916,-5.4364,-5.4685,-5.4418,-5.3358,-5.4217,-5.4522,-5.3817,-5.4244,-5.4524,-5.4595,-5.3279,-5.2769,-5.317,-5.1486,-5.0422,-5.0019,-4.9017,-4.738,-4.5253,-4.4459,-4.3577,-4.2675,-4.3051,-4.4006,-4.5343,-4.6265,-4.7027,-4.766,-4.8594,-4.8952,-4.8895,-4.8663,-4.8721,-4.8895,-4.8721,-4.8243,-4.7684,-4.7392,-4.5642,-4.361,-4.3592,-4.3104,-4.2492,-4.245,-4.2028,-4.1465,-4.0825,-4.0168,-3.9488,-3.9006,-3.8822,-3.8684,-3.8631,-3.8473,-3.8303,-3.8303,-3.806,-3.7529,-3.6477,-3.5199,-3.3798,-3.2381,-3.2055,-3.1747,-3.1138,-3.1645,-3.215,0.0,0.0,0.0,-3.1845,-3.1812,-3.1766,-3.1766,-3.1689,-3.1643,-3.1519,-3.1272,-3.1106,-3.1087,-3.089,-3.0933,-3.1206,-3.0683,-3.0545,-3.0893,-3.0855,-3.0973,-3.1258,-3.197,-3.2394,-3.2525,-3.3048,-3.3281,-3.3281,-3.3281,-3.304,-3.2592,-3.2043,-3.1882,-3.1903,-3.1789,-3.1558,-3.1302,-4.8337,-4.8691,-4.8499,-4.7298,-4.9489,-5.1292,-5.0821,-5.2324,-5.3441,-5.3253,-5.3608,-5.3951,-5.4134,-5.4194,-5.4,-5.3584,-5.3926,-5.4166,-5.4052,-5.4107,-5.3887,-5.3412,-5.3438,-5.3378,-5.3198,-5.2725,-5.257,-5.2806,-5.0309,-4.8457,-4.71,-4.5443,-4.4423,-4.4129,-4.4934,-4.5827,-4.6751,-4.7161,-4.7628,-4.8165,-4.8592,-4.8548,-4.8302,-4.8243,-4.8243,-4.8302,-4.8619,-4.8243,-4.7619,-4.7319,-4.5939,-4.4222,-4.3262,-4.2732,-4.2354,-4.2176,-4.1773,-4.1342,-4.1238,-4.0451,-3.9533,-3.9258,-3.8826,-3.8356,-3.8145,-3.8039,-3.8039,-3.8039,-3.7653,-3.7044,-3.62,-3.5494,-3.459,-3.2971,-3.2949,-3.2742,-3.1615,-3.2237,-3.2689,-3.2397,0.0,0.0,-3.2527,-3.1836,-3.1605,-3.2293,-3.2042,-3.1693,-3.1347,-3.1482,-3.1474,-3.1366,-3.1019,-3.0947,-3.1212,-3.0688,-3.066,-3.1158,-3.0567,-3.0879,-3.1999,-3.1828,-3.2062,-3.2527,-3.3058,-3.3281,-3.3281,-3.3281,-3.3258,-3.3109,-3.2193,-3.2078,-3.2363,-3.1974,-3.1569,-3.1302,-4.9788,-4.9138,-4.8474,-4.8192,-4.9911,-5.1213,-5.0962,-5.2459,-5.3388,-5.2732,-5.3359,-5.3773,-5.3773,-5.3954,-5.3683,-5.2594,-5.3495,-5.358,-5.2263,-5.3018,-5.32,-5.265,-5.2843,-5.3045,-5.3132,-5.2466,-5.2278,-5.2623,-5.0979,-4.9497,-4.8139,-4.7234,-4.6455,-4.5872,-4.6193,-4.6836,-4.7716,-4.7845,-4.8034,-4.8185,-4.8373,-4.8302,-4.8185,-4.8185,-4.8185,-4.8243,-4.8373,-4.7893,-4.71,-4.6789,-4.5827,-4.4645,-4.3681,-4.291,-4.2299,-4.1731,-4.1542,-4.1342,-4.062,-4.006,-3.9473,-3.905,-3.846,-3.7904,-3.7797,-3.7613,-3.7453,-3.7453,-3.705,-3.6635,-3.6318,-3.5805,-3.4881,-3.3313,-3.3337,-3.3135,-3.1841,-3.2219,-3.2608,-3.2579,0.0,-3.2156,-3.2466,-3.2063,-3.1869,-3.2019,-3.196,-3.1817,-3.1656,-3.179,-3.1629,-3.1076,-3.1244,-3.1169,-3.0846,-3.0524,-3.0517,-3.0743,-3.0706,-3.0868,-3.1213,-3.1706,-3.2237,-3.2779,-3.3131,-3.3281,-3.3281,-3.3281,-3.3281,-3.3212,-3.2477,-3.2512,-3.2902,-3.2056,-3.1517,-3.1182,-5.0622,-4.9433,-4.8583,-4.8888,-4.9927,-5.0775,-5.0876,-5.2459,-5.3396,-5.2735,-5.3213,-5.3592,-5.3592,-5.3833,-5.3347,-5.1897,-5.2715,-5.2654,-5.1236,-5.2078,-5.2527,-5.2338,-5.2587,-5.2761,-5.2729,-5.2211,-5.2017,-5.2191,-5.1256,-5.016,-4.8816,-4.8152,-4.7496,-4.6888,-4.7146,-4.7619,-4.8185,-4.8185,-4.8185,-4.8185,-4.8068,-4.8127,-4.8185,-4.8068,-4.8127,-4.8185,-4.8185,-4.7703,-4.6955,-4.6314,-4.5582,-4.4814,-4.3762,-4.2917,-4.2137,-4.1386,-4.1344,-4.1305,-4.0361,-3.9941,-3.9539,-3.8945,-3.8202,-3.7667,-3.7512,-3.7251,-3.7078,-3.7078,-3.6744,-3.6403,-3.6297,-3.5823,-3.5011,-3.3688,-3.363,-3.3315,-3.206,-3.2071,-3.2211,-3.214,-3.205,-3.2085,-3.2296,-3.2168,-3.2089,-3.2051,-3.2032,-3.1965,-3.1733,-3.1889,-3.1617,-3.0783,-3.1145,-3.1092,-3.0561,-3.0467,-3.0482,-3.0648,-3.0904,-3.097,-3.0934,-3.1732,-3.2368,-3.2891,-3.3081,-3.3231,-3.3281,-3.3281,-3.3189,-3.3005,-3.2627,-3.2718,-3.2956,-3.2047,-3.1505,-3.1084,-5.0677,-5.0187,-4.9892,-4.9639,-4.9874,-5.0295,-5.0842,-5.2446,-5.3592,-5.3592,-5.3592,-5.3592,-5.3592,-5.3592,-5.3106,-5.1897,-5.1527,-5.1467,-5.1783,-5.1527,-5.1709,-5.265,-5.2917,-5.2688,-5.181,-5.2306,-5.2479,-5.2191,-5.1329,-5.0254,-4.9055,-4.7594,-4.6888,-4.6933,-4.7794,-4.8185,-4.8185,-4.8185,-4.8185,-4.8185,-4.7821,-4.788,-4.8185,-4.7808,-4.7938,-4.8185,-4.8185,-4.7997,-4.7495,-4.599,-4.5257,-4.4742,-4.3274,-4.2458,-4.1928,-4.1341,-4.1184,-4.1127,-4.0781,-4.0318,-3.9703,-3.8901,-3.8283,-3.7766,-3.7249,-3.7078,-3.7078,-3.7078,-3.6744,-3.635,-3.6033,-3.5561,-3.4924,-3.4124,-3.3758,-3.3235,-3.2155,-3.1926,-3.1638,-3.0918,-3.1427,-3.1878,-3.2077,-3.2115,-3.2245,-3.258,-3.2463,-3.2071,-3.1365,-3.1572,-3.138,-3.0638,-3.0621,-3.0543,-3.0387,-3.0399,-3.0683,-3.1184,-3.1032,-3.124,-3.1715,-3.1895,-3.2331,-3.2891,-3.2891,-3.3042,-3.3281,-3.3281,-3.2971,-3.2489,-3.2489,-3.2489,-3.244,-3.1901,-3.1505,-3.1135,-5.1646,-5.1469,-5.1398,-5.1303,-5.1594,-5.1635,-5.1241,-5.217,-5.2775,-5.2399,-5.2681,-5.2909,-5.2909,-5.3349,-5.3106,-5.1897,-5.2217,-5.1928,-5.0575,-5.1334,-5.172,-5.1411,-5.1866,-5.2059,-5.2008,-5.1984,-5.2015,-5.2138,-5.1276,-5.0257,-4.912,-4.8407,-4.7982,-4.7794,-4.8107,-4.8185,-4.8185,-4.8185,-4.8185,-4.8185,-4.7808,-4.7749,-4.7808,-4.7514,-4.7442,-4.7514,-4.7514,-4.7349,-4.693,-4.5838,-4.4737,-4.3678,-4.2564,-4.1992,-4.1518,-4.0737,-4.0525,-4.0479,-4.0141,-3.96,-3.8995,-3.8774,-3.7859,-3.706,-3.6843,-3.67,-3.6538,-3.6538,-3.6259,-3.5939,-3.5897,-3.5543,-3.5061,-3.4095,-3.3876,-3.3475,-3.2467,-3.2425,-3.2364,-3.2017,-3.2042,-3.213,-3.2312,-3.2101,-3.1994,-3.2039,-3.2184,-3.2003,-3.1414,-3.1928,-3.1726,-3.0621,-3.1214,-3.1122,-3.0277,-3.0996,-3.1263,-3.1055,-3.1189,-3.1437,-3.1726,-3.233,-3.2729,-3.2891,-3.3092,-3.3231,-3.3281,-3.3281,-3.3178,-3.3028,-3.3028,-3.2807,-3.2385,-3.1844,-3.1334,-3.0836,-5.1921,-5.1455,-5.1105,-5.1105,-5.1413,-5.1464,-5.0864,-5.1851,-5.2468,-5.2122,-5.2389,-5.2602,-5.2602,-5.297,-5.2803,-5.1729,-5.1886,-5.1596,-5.0506,-5.1062,-5.1416,-5.147,-5.1675,-5.1816,-5.1927,-5.1544,-5.1377,-5.1474,-5.0603,-4.9662,-4.8734,-4.8602,-4.8431,-4.8185,-4.8185,-4.8185,-4.8185,-4.8185,-4.8185,-4.8185,-4.769,-4.7573,-4.7632,-4.7231,-4.71,-4.7205,-4.7205,-4.6853,-4.6328,-4.5477,-4.4398,-4.314,-4.2079,-4.1491,-4.1068,-4.0387,-4.0223,-4.0118,-3.9861,-3.9441,-3.9006,-3.8496,-3.7746,-3.7012,-3.663,-3.6429,-3.632,-3.632,-3.6004,-3.5797,-3.5797,-3.5577,-3.5154,-3.4283,-3.3939,-3.3495,-3.2744,-3.2309,-3.2002,-3.1937,-3.1829,-3.1879,-3.1988,-3.2065,-3.2048,-3.1895,-3.2142,-3.2031,-3.145,-3.1694,-3.1382,-3.0447,-3.093,-3.0891,-3.0216,-3.1065,-3.1329,-3.1019,-3.1422,-3.1716,-3.1874,-3.2603,-3.2891,-3.2891,-3.3181,-3.3281,-3.3281,-3.3281,-3.3166,-3.3005,-3.3201,-3.2844,-3.2074,-3.1706,-3.1259,-3.0681,-5.1596,-5.0562,-4.9663,-4.9663,-4.992,-5.0115,-5.0115,-5.1544,-5.2602,-5.2602,-5.2602,-5.254,-5.2527,-5.2527,-5.2191,-5.143,-5.0799,-5.0663,-5.1316,-5.0737,-5.1021,-5.2452,-5.2231,-5.1932,-5.1681,-5.1106,-5.0668,-5.0279,-4.9514,-4.8773,-4.8185,-4.8185,-4.8185,-4.8185,-4.8185,-4.8185,-4.8185,-4.8185,-4.8185,-4.8127,-4.7514,-4.7383,-4.7573,-4.7019,-4.6947,-4.7146,-4.7108,-4.6586,-4.5725,-4.4911,-4.4081,-4.3099,-4.1698,-4.0988,-4.0629,-4.0281,-4.0176,-4.006,-3.9849,-3.972,-3.9406,-3.8148,-3.7793,-3.7483,-3.6541,-3.63,-3.6266,-3.6223,-3.595,-3.5742,-3.5742,-3.5533,-3.5134,-3.462,-3.399,-3.3343,-3.2812,-3.1683,-3.0942,-3.0927,-3.1116,-3.126,-3.1309,-3.1955,-3.2291,-3.1975,-3.2167,-3.2074,-3.1502,-3.0974,-3.0539,-3.0159,-3.0067,-3.0102,-3.0274,-3.0835,-3.111,-3.1041,-3.1797,-3.2131,-3.212,-3.2642,-3.2942,-3.2942,-3.3181,-3.3281,-3.3281,-3.3281,-3.2994,-3.2592,-3.3036,-3.2574,-3.1667,-3.1556,-3.1208,-3.0692,-5.1596,-5.1325,-5.1067,-5.1067,-5.1204,-5.1328,-5.1527,-5.1949,-5.2245,-5.2245,-5.2245,-5.2107,-5.1846,-5.1846,-5.1855,-5.1936,-5.1786,-5.1724,-5.1909,-5.1525,-5.1452,-5.1846,-5.1783,-5.1656,-5.1649,-5.1057,-5.035,-4.9402,-4.9212,-4.8773,-4.8185,-4.8185,-4.8185,-4.8185,-4.8185,-4.8185,-4.8185,-4.8185,-4.8185,-4.8185,-4.7749,-4.7514,-4.7265,-4.69,-4.6673,-4.6478,-4.6061,-4.5763,-4.5439,-4.44,-4.3559,-4.2889,-4.2132,-4.1148,-4.0281,-3.9966,-3.972,-3.9473,-3.9426,-3.9161,-3.8827,-3.8516,-3.7804,-3.7094,-3.6631,-3.6223,-3.5852,-3.5632,-3.5368,-3.5202,-3.5202,-3.4924,-3.4526,-3.4087,-3.3857,-3.3363,-3.2351,-3.2208,-3.2002,-3.1273,-3.1559,-3.1671,-3.1247,-3.1396,-3.1476,-3.1373,-3.148,-3.1348,-3.1042,-3.0936,-3.0847,-3.0859,-3.1348,-3.1394,-3.1056,-3.2002,-3.2154,-3.1574,-3.2541,-3.2681,-3.212,-3.2891,-3.3181,-3.3181,-3.3281,-3.3281,-3.3281,-3.3281,-3.3212,-3.3109,-3.2739,-3.2213,-3.1567,-3.1165,-3.0651,-3.0193,-5.1596,-5.1596,-5.1596,-5.1596,-5.1596,-5.1659,-5.1859,-5.1996,-5.2045,-5.1859,-5.1996,-5.1983,-5.1659,-5.1596,-5.1659,-5.1859,-5.1859,-5.1921,-5.2059,-5.1921,-5.1796,-5.1596,-5.1734,-5.1796,-5.1596,-5.106,-5.0237,-4.9087,-4.8799,-4.8512,-4.8185,-4.8185,-4.8185,-4.8185,-4.8185,-4.8185,-4.8185,-4.8185,-4.8185,-4.8185,-4.769,-4.7383,-4.7146,-4.6721,-4.6434,-4.6238,-4.5686,-4.5309,-4.4957,-4.4091,-4.3399,-4.2797,-4.209,-4.1308,-4.0513,-3.9978,-3.9426,-3.9119,-3.9238,-3.8984,-3.8615,-3.8457,-3.7748,-3.6985,-3.6466,-3.615,-3.5836,-3.5468,-3.5202,-3.4991,-3.4991,-3.4758,-3.4436,-3.4174,-3.3833,-3.3382,-3.2748,-3.2285,-3.1874,-3.1456,-3.1346,-3.1245,-3.1032,-3.1034,-3.1034,-3.1034,-3.1034,-3.1008,-3.1045,-3.1034,-3.0987,-3.0868,-3.1329,-3.1487,-3.1312,-3.2013,-3.2264,-3.2048,-3.2689,-3.2715,-3.2305,-3.299,-3.3281,-3.3281,-3.3281,-3.3281,-3.3281,-3.3281,-3.3281,-3.3231,-3.2633,-3.2066,-3.1516,-3.1002,-3.0443,-2.9994,-5.1596,-5.1596,-5.1596,-5.1596,-5.1596,-5.1596,-5.1596,-5.1859,-5.1996,-5.1721,-5.1921,-5.1996,-5.1783,-5.1659,-5.1596,-5.1659,-5.1596,-5.1721,-5.1996,-5.1996,-5.1921,-5.1596,-5.178,-5.1842,-5.1596,-5.106,-5.0237,-4.9087,-4.8577,-4.8277,-4.8185,-4.8185,-4.8185,-4.8185,-4.8185,-4.8185,-4.8185,-4.8185,-4.8185,-4.8127,-4.7514,-4.7265,-4.7146,-4.6601,-4.6373,-4.6225,-4.5585,-4.5033,-4.4531,-4.389,-4.3363,-4.2862,-4.1948,-4.1435,-4.0918,-4.0083,-3.9308,-3.8812,-3.9119,-3.9001,-3.865,-3.8243,-3.7722,-3.7064,-3.633,-3.6072,-3.5793,-3.5335,-3.5091,-3.4935,-3.4935,-3.4691,-3.4524,-3.4524,-3.3892,-3.3387,-3.3335,-3.2162,-3.1323,-3.1489,-3.0957,-3.0584,-3.0733,-3.0724,-3.0724,-3.0724,-3.0724,-3.0868,-3.1178,-3.1178,-3.1055,-3.0783,-3.0994,-3.1237,-3.149,-3.1791,-3.2153,-3.2555,-3.2604,-3.2604,-3.2627,-3.3074,-3.3281,-3.3281,-3.3281,-3.3281,-3.3281,-3.3281,-3.3231,-3.3119,-3.2533,-3.1964,-3.1414,-3.0899,-3.0391,-2.9994,-5.1596,-5.1596,-5.1596,-5.1596,-5.1596,-5.1596,-5.1596,-5.1859,-5.2059,-5.2059,-5.2059,-5.2183,-5.2417,-5.197,-5.1721,-5.1996,-5.1796,-5.1596,-5.1659,-5.1659,-5.1659,-5.1596,-5.1227,-5.1201,-5.1583,-5.106,-5.0237,-4.9087,-4.8995,-4.8682,-4.8185,-4.8185,-4.8185,-4.8185,-4.8185,-4.8185,-4.8185,-4.8185,-4.8185,-4.8185,-4.7762,-4.7442,-4.7146,-4.684,-4.6554,-4.6175,-4.5133,-4.4706,-4.4468,-4.3451,-4.3049,-4.2862,-4.2231,-4.1606,-4.0918,-4.006,-3.919,-3.8548,-3.8812,-3.8645,-3.8406,-3.8339,-3.7632,-3.6879,-3.6434,-3.5733,-3.5068,-3.4702,-3.4635,-3.4579,-3.4579,-3.4524,-3.4524,-3.4524,-3.3932,-3.3398,-3.3121,-3.2159,-3.1473,-3.1232,-3.0906,-3.0691,-3.0495,-3.0443,-3.0443,-3.0443,-3.0443,-3.0651,-3.1178,-3.1178,-3.1257,-3.1462,-3.1693,-3.2007,-3.2319,-3.2592,-3.2798,-3.2867,-3.3066,-3.3166,-3.3166,-3.3247,-3.3281,-3.3281,-3.3281,-3.3281,-3.3281,-3.3281,-3.3008,-3.2471,-3.1924,-3.1414,-3.0847,-3.0339,-3.0047,-2.9994,-5.1544,-5.1596,-5.1596,-5.1596,-5.1596,-5.1596,-5.1596,-5.2045,-5.2293,-5.2121,-5.2245,-5.2417,-5.2602,-5.197,-5.1603,-5.1685,-5.1351,-5.1021,-5.0694,-5.1442,-5.1796,-5.1596,-5.1547,-5.1403,-5.1165,-5.0603,-4.991,-4.9087,-4.876,-4.846,-4.8185,-4.8185,-4.8185,-4.8185,-4.8185,-4.8127,-4.7938,-4.7938,-4.7821,-4.7632,-4.7362,-4.7125,-4.6947,-4.6673,-4.6257,-4.5761,-4.492,-4.443,-4.4053,-4.325,-4.2862,-4.2638,-4.2004,-4.1263,-4.0455,-3.9755,-3.9012,-3.838,-3.8347,-3.8358,-3.838,-3.819,-3.7584,-3.6925,-3.6311,-3.5637,-3.4998,-3.4578,-3.4524,-3.4524,-3.4524,-3.4524,-3.4524,-3.4524,-3.4139,-3.3763,-3.3422,-3.2416,-3.1648,-3.133,-3.0744,-3.0308,-3.0193,-3.0193,-3.0193,-3.0193,-3.0339,-3.0547,-3.0972,-3.1127,-3.1322,-3.1578,-3.2026,-3.2392,-3.2718,-3.298,-3.3142,-3.3142,-3.3231,-3.3281,-3.3281,-3.3281,-3.3281,-3.3281,-3.3281,-3.3281,-3.3281,-3.3281,-3.2958,-3.237,-3.1823,-3.1259,-3.0744,-3.0193,-2.9994,-2.9994,-5.1309,-5.14,-5.1452,-5.1583,-5.1596,-5.1596,-5.1596,-5.2094,-5.2417,-5.2245,-5.2417,-5.2663,-5.2847,-5.2156,-5.1636,-5.1438,-5.1031,-5.0538,-4.9923,-5.0966,-5.1452,-5.1204,-5.1465,-5.1215,-5.0407,-5.0067,-4.9623,-4.9087,-4.8616,-4.8316,-4.8185,-4.8185,-4.8185,-4.8185,-4.8185,-4.7997,-4.769,-4.769,-4.7501,-4.7205,-4.69,-4.6806,-4.6746,-4.6434,-4.5962,-4.5409,-4.4832,-4.4267,-4.3714,-4.3162,-4.2806,-4.2344,-4.1606,-4.0918,-4.0165,-3.9238,-3.8596,-3.813,-3.7878,-3.7938,-3.813,-3.7878,-3.7365,-3.6766,-3.6169,-3.5496,-3.4949,-3.46,-3.4524,-3.4524,-3.4524,-3.4468,-3.4412,-3.4412,-3.4074,-3.3766,-3.3613,-3.2542,-3.169,-3.1436,-3.0664,-3.0118,-3.0005,-2.9994,-2.9994,-2.9994,-3.0245,-3.0505,-3.0786,-3.1023,-3.1387,-3.1742,-3.2194,-3.2505,-3.2779,-3.3081,-3.3242,-3.3281,-3.3281,-3.3281,-3.3281,-3.3281,-3.3281,-3.3281,-3.3281,-3.3281,-3.3281,-3.3281,-3.2857,-3.2167,-3.1772,-3.1208,-3.0536,-3.0141,-2.9994,-2.9994,-5.0734,-5.0851,-5.1008,-5.1505,-5.1596,-5.1596,-5.1596,-5.1921,-5.2245,-5.254,-5.2602,-5.2847,-5.347,-5.2677,-5.1958,-5.1755,-5.1154,-5.0538,-4.9923,-4.9976,-5.0075,-5.0015,-5.0075,-4.9827,-4.9218,-4.9662,-4.9623,-4.9087,-4.9048,-4.8734,-4.8185,-4.8185,-4.8185,-4.8185,-4.8185,-4.7997,-4.769,-4.769,-4.7501,-4.7205,-4.69,-4.6806,-4.6746,-4.6434,-4.5962,-4.5409,-4.4832,-4.4267,-4.3714,-4.3162,-4.2806,-4.23,-4.1136,-4.0745,-4.0327,-3.8526,-3.7747,-3.7445,-3.7435,-3.7435,-3.7445,-3.7435,-3.6756,-3.6067,-3.6034,-3.5244,-3.4567,-3.4534,-3.4524,-3.4524,-3.4524,-3.4311,-3.4142,-3.4142,-3.3267,-3.2791,-3.3187,-3.2229,-3.1412,-3.1379,-3.0949,-3.047,-3.0036,-2.9994,-2.9994,-2.9994,-3.0245,-3.0505,-3.0786,-3.1023,-3.1538,-3.2317,-3.2116,-3.2179,-3.2555,-3.2779,-3.3031,-3.3281,-3.3281,-3.3281,-3.3281,-3.3281,-3.3281,-3.3281,-3.3281,-3.3281,-3.3281,-3.3281,-3.2656,-3.168,-3.1629,-3.0961,-3.0047,-2.9994,-2.9994,-2.9994,-5.0603,-5.0498,-5.0407,-5.0995,-5.0786,-5.0612,-5.0795,-5.116,-5.1402,-5.1523,-5.2011,-5.248,-5.2749,-5.2402,-5.1861,-5.1283,-5.0662,-4.9832,-4.8891,-4.8839,-4.9152,-4.9858,-4.9884,-4.9636,-4.91,-4.9283,-4.9113,-4.8525,-4.8525,-4.8407,-4.8185,-4.8185,-4.8185,-4.8185,-4.7997,-4.769,-4.7383,-4.7185,-4.6947,-4.6648,-4.6554,-4.6494,-4.6494,-4.6373,-4.5748,-4.492,-4.4706,-4.4053,-4.3263,-4.3049,-4.2806,-4.2344,-4.1537,-4.086,-4.0048,-3.8406,-3.7687,-3.7374,-3.7374,-3.7374,-3.7374,-3.7374,-3.6664,-3.6023,-3.6023,-3.5223,-3.4524,-3.4524,-3.4524,-3.4524,-3.4524,-3.4311,-3.4086,-3.4086,-3.3551,-3.3165,-3.3197,-3.2701,-3.2182,-3.1819,-3.1296,-3.0818,-3.0492,-3.016,-3.0047,-3.0245,-3.0516,-3.0776,-3.1023,-3.1322,-3.1756,-3.2372,-3.259,-3.28,-3.2902,-3.3078,-3.3192,-3.3281,-3.3281,-3.3281,-3.3281,-3.3281,-3.3281,-3.3281,-3.3281,-3.3281,-3.3281,-3.3281,-3.2606,-3.1618,-3.1618,-3.0961,-2.9994,-2.9994,-2.9994,-2.9994,-5.0067,-4.9923,-4.9819,-5.0407,-5.0172,-4.9958,-5.0212,-5.0512,-5.0751,-5.0751,-5.1382,-5.1816,-5.183,-5.1708,-5.1245,-5.0552,-4.9996,-4.9231,-4.825,-4.8185,-4.8538,-4.9322,-4.9348,-4.9178,-4.8812,-4.8799,-4.859,-4.8185,-4.8114,-4.8055,-4.8055,-4.7938,-4.788,-4.788,-4.7632,-4.7396,-4.7053,-4.69,-4.6614,-4.6313,-4.6313,-4.6313,-4.6288,-4.6125,-4.546,-4.4606,-4.443,-4.3765,-4.2974,-4.2974,-4.2694,-4.2256,-4.1663,-4.0629,-3.9403,-3.8227,-3.7687,-3.7374,-3.7374,-3.7374,-3.7374,-3.7374,-3.6664,-3.6023,-3.6023,-3.5223,-3.4524,-3.4524,-3.4524,-3.4524,-3.4524,-3.4199,-3.3974,-3.4086,-3.3692,-3.3296,-3.3193,-3.3078,-3.2815,-3.2222,-3.1688,-3.1208,-3.0848,-3.0316,-3.0099,-3.0391,-3.0672,-3.0931,-3.1333,-3.181,-3.2241,-3.259,-3.3207,-3.3537,-3.3653,-3.3578,-3.343,-3.3281,-3.3281,-3.3281,-3.3281,-3.3281,-3.3281,-3.3281,-3.3281,-3.3281,-3.3281,-3.3281,-3.2606,-3.1618,-3.1618,-3.0961,-2.9994,-2.9994,-2.9994,-2.9994,-4.8969,-4.9087,-4.9244,-4.9793,-4.9884,-4.9871,-4.9871,-5.0199,-5.0392,-5.0392,-5.0678,-5.0903,-5.0916,-5.0572,-5.0155,-4.9548,-4.9239,-4.8826,-4.8224,-4.8185,-4.8185,-4.8185,-4.8185,-4.8185,-4.8185,-4.8185,-4.8185,-4.8185,-4.788,-4.769,-4.769,-4.7383,-4.7205,-4.7205,-4.7205,-4.7053,-4.6806,-4.6806,-4.6614,-4.6313,-4.6313,-4.6313,-4.625,-4.5698,-4.5121,-4.4543,-4.4003,-4.3451,-4.2974,-4.2974,-4.2594,-4.1984,-4.132,-3.9802,-3.8227,-3.7998,-3.7687,-3.7374,-3.7374,-3.7374,-3.7374,-3.7374,-3.6664,-3.6023,-3.6023,-3.5223,-3.4524,-3.4524,-3.4524,-3.4524,-3.4524,-3.4019,-3.3681,-3.403,-3.3296,-3.2851,-3.3136,-3.3193,-3.3025,-3.2553,-3.208,-3.1619,-3.1147,-3.0432,-3.0099,-3.0401,-3.0672,-3.1034,-3.1567,-3.2536,-3.3113,-3.3124,-3.38,-3.4325,-3.4585,-3.4198,-3.3763,-3.3292,-3.3281,-3.3281,-3.3281,-3.3281,-3.3281,-3.3281,-3.3281,-3.3281,-3.3281,-3.3281,-3.2606,-3.1618,-3.1618,-3.0961,-2.9994,-2.9994,-2.9994,-2.9994,-4.8969,-4.8747,-4.8629,-4.9218,-4.8969,-4.8813,-4.9002,-4.9133,-4.9191,-4.9191,-5.0018,-5.0433,-4.9995,-5.0439,-5.0439,-4.9548,-4.9239,-4.8826,-4.8224,-4.8185,-4.8185,-4.8185,-4.8185,-4.8068,-4.788,-4.788,-4.7749,-4.7514,-4.7383,-4.7324,-4.7324,-4.7265,-4.7205,-4.7205,-4.7006,-4.6853,-4.6793,-4.6554,-4.6373,-4.6313,-4.6313,-4.6075,-4.5711,-4.5547,-4.4882,-4.4028,-4.3865,-4.3451,-4.2974,-4.275,-4.2694,-4.2525,-4.1206,-3.9989,-3.8882,-3.8118,-3.7687,-3.7374,-3.7374,-3.7566,-3.7687,-3.7435,-3.6664,-3.6023,-3.6023,-3.5223,-3.4524,-3.4524,-3.4524,-3.4524,-3.4524,-3.4188,-3.3974,-3.4086,-3.3533,-3.3079,-3.3193,-3.3193,-3.3084,-3.2654,-3.2619,-3.2437,-3.2091,-3.1596,-3.1348,-3.1464,-3.1402,-3.1424,-3.1578,-3.2241,-3.2785,-3.3113,-3.4027,-3.4553,-3.4585,-3.403,-3.3731,-3.3786,-3.3442,-3.3281,-3.3281,-3.3281,-3.3281,-3.3281,-3.3281,-3.3281,-3.3281,-3.2846,-3.2229,-3.1567,-3.1208,-3.0599,-2.9994,-2.9994,-2.9994,-2.9994,-4.8656,-4.8433,-4.8303,-4.8669,-4.842,-4.8243,-4.8489,-4.8489,-4.8489,-4.8489,-4.9142,-4.9412,-4.9048,-4.9482,-4.9607,-4.9015,-4.8839,-4.8505,-4.8023,-4.8127,-4.8055,-4.7821,-4.8055,-4.8055,-4.769,-4.7821,-4.769,-4.7205,-4.7205,-4.7159,-4.7053,-4.6934,-4.6874,-4.6874,-4.6661,-4.6614,-4.6614,-4.6373,-4.6313,-4.6313,-4.6313,-4.6112,-4.5761,-4.5321,-4.4719,-4.4066,-4.3627,-4.3263,-4.2974,-4.2638,-4.2469,-4.2174,-4.0791,-3.9873,-3.9131,-3.8178,-3.7758,-3.7566,-3.7445,-3.7758,-3.801,-3.7687,-3.7044,-3.6428,-3.6241,-3.5411,-3.4742,-3.4556,-3.4524,-3.4524,-3.4524,-3.4311,-3.4142,-3.4255,-3.3749,-3.3353,-3.3353,-3.3466,-3.342,-3.3126,-3.3098,-3.3033,-3.2878,-3.2344,-3.205,-3.2221,-3.2193,-3.2197,-3.2197,-3.2667,-3.3124,-3.3506,-3.4381,-3.4909,-3.505,-3.4487,-3.4147,-3.4004,-3.3706,-3.3465,-3.3281,-3.3281,-3.3281,-3.3281,-3.3281,-3.3281,-3.3231,-3.2633,-3.2066,-3.1567,-3.1002,-3.0495,-2.9994,-2.9994,-3.0108,-3.0274,-4.8185,-4.8185,-4.8185,-4.8185,-4.8185,-4.8185,-4.8185,-4.8185,-4.8185,-4.8185,-4.8243,-4.8243,-4.8185,-4.8243,-4.8243,-4.8185,-4.8185,-4.8055,-4.7749,-4.7997,-4.7938,-4.7324,-4.788,-4.8055,-4.769,-4.7997,-4.7821,-4.7205,-4.7205,-4.7053,-4.6806,-4.6434,-4.6313,-4.6313,-4.6313,-4.6313,-4.6313,-4.6313,-4.6313,-4.6313,-4.6313,-4.6276,-4.6125,-4.5095,-4.4631,-4.4418,-4.3413,-4.3024,-4.2974,-4.2638,-4.2118,-4.1366,-4.0153,-3.9591,-3.9131,-3.8107,-3.7878,-3.7818,-3.7506,-3.7878,-3.832,-3.7998,-3.7606,-3.7199,-3.6653,-3.5824,-3.5159,-3.4731,-3.4589,-3.4534,-3.4578,-3.4332,-3.4199,-3.4468,-3.4019,-3.3625,-3.3625,-3.3861,-3.3918,-3.3625,-3.3531,-3.344,-3.344,-3.2845,-3.2512,-3.2771,-3.2986,-3.3124,-3.3124,-3.3584,-3.3956,-3.4162,-3.477,-3.5312,-3.5797,-3.5398,-3.4842,-3.4142,-3.4096,-3.3821,-3.335,-3.335,-3.3327,-3.3281,-3.3281,-3.3281,-3.3231,-3.2583,-3.2015,-3.1516,-3.095,-3.0443,-3.0005,-3.0046,-3.0325,-3.0698,-4.8185,-4.8185,-4.8185,-4.8185,-4.8185,-4.8185,-4.8185,-4.8185,-4.8185,-4.8185,-4.8431,-4.8489,-4.8243,-4.8431,-4.8489,-4.8243,-4.8185,-4.8185,-4.8127,-4.8185,-4.8127,-4.7997,-4.8114,-4.8055,-4.769,-4.7749,-4.7632,-4.7205,-4.7006,-4.6853,-4.6806,-4.6434,-4.6313,-4.6313,-4.6313,-4.6313,-4.6313,-4.6313,-4.6313,-4.6313,-4.6313,-4.605,-4.5648,-4.5397,-4.4744,-4.3953,-4.3714,-4.335,-4.2974,-4.2638,-4.2118,-4.1366,-4.0141,-3.9509,-3.906,-3.7856,-3.7506,-3.7495,-3.7435,-3.7687,-3.807,-3.8249,-3.8231,-3.8018,-3.7445,-3.6412,-3.5641,-3.5927,-3.5218,-3.4633,-3.4993,-3.4708,-3.4412,-3.4468,-3.4199,-3.3974,-3.3974,-3.3861,-3.3681,-3.3625,-3.3821,-3.3935,-3.3935,-3.3659,-3.3432,-3.3268,-3.3182,-3.3124,-3.3124,-3.3735,-3.4108,-3.4217,-3.5154,-3.5687,-3.5797,-3.5945,-3.5741,-3.5187,-3.4808,-3.4349,-3.3843,-3.3843,-3.3648,-3.3281,-3.3281,-3.3281,-3.3231,-3.219,-3.1721,-3.1516,-3.0557,-3.0088,-3.0036,-3.0398,-3.0594,-3.0791,-4.8185,-4.8185,-4.8185,-4.8185,-4.8185,-4.8185,-4.8185,-4.8185,-4.8185,-4.8185,-4.8373,-4.836,-4.8243,-4.836,-4.8373,-4.8243,-4.8185,-4.8185,-4.8185,-4.8185,-4.8127,-4.7938,-4.8127,-4.8055,-4.769,-4.788,-4.769,-4.7205,-4.7053,-4.6959,-4.6806,-4.6434,-4.6313,-4.6313,-4.6313,-4.6313,-4.6313,-4.6313,-4.6313,-4.6313,-4.6313,-4.6137,-4.5849,-4.5585,-4.4945,-4.4166,-4.389,-4.3325,-4.2694,-4.2425,-4.2017,-4.1435,-4.0257,-3.9638,-3.9119,-3.8178,-3.7747,-3.7626,-3.7626,-3.7878,-3.819,-3.8537,-3.8596,-3.8461,-3.7965,-3.6909,-3.6097,-3.6363,-3.5536,-3.4917,-3.5168,-3.5004,-3.4775,-3.4556,-3.4356,-3.4255,-3.4097,-3.4086,-3.3963,-3.3861,-3.4086,-3.4311,-3.4311,-3.4183,-3.4097,-3.3931,-3.3857,-3.3825,-3.3988,-3.4394,-3.4691,-3.4954,-3.5497,-3.5906,-3.6059,-3.6223,-3.614,-3.5875,-3.5382,-3.4877,-3.4383,-3.4383,-3.4108,-3.3648,-3.3901,-3.3729,-3.3242,-3.2343,-3.1826,-3.1497,-3.0653,-3.0325,-3.0377,-3.0843,-3.1153,-3.1433,-4.8185,-4.8185,-4.8185,-4.8185,-4.8185,-4.8185,-4.8185,-4.8185,-4.8185,-4.8185,-4.8185,-4.8185,-4.8185,-4.8185,-4.8185,-4.8185,-4.8185,-4.8185,-4.8185,-4.8185,-4.8068,-4.7808,-4.8055,-4.8055,-4.7821,-4.8055,-4.7938,-4.7383,-4.7265,-4.71,-4.6853,-4.6494,-4.6313,-4.6313,-4.6313,-4.6313,-4.6313,-4.6313,-4.6313,-4.6313,-4.6313,-4.6313,-4.6263,-4.5799,-4.5271,-4.4694,-4.4141,-4.3356,-4.2525,-4.2211,-4.1915,-4.1492,-4.0513,-3.9767,-3.919,-3.8548,-3.813,-3.7818,-3.7818,-3.8058,-3.8369,-3.8633,-3.8752,-3.8698,-3.836,-3.7419,-3.662,-3.6709,-3.5967,-3.5343,-3.5343,-3.5266,-3.5059,-3.46,-3.4524,-3.4412,-3.4199,-3.4367,-3.4412,-3.4199,-3.4356,-3.4524,-3.4524,-3.4524,-3.4524,-3.4524,-3.4524,-3.4702,-3.4991,-3.5091,-3.5368,-3.5797,-3.5852,-3.6004,-3.632,-3.632,-3.632,-3.632,-3.5853,-3.5393,-3.4923,-3.4923,-3.4636,-3.4165,-3.4601,-3.4274,-3.3366,-3.2827,-3.2175,-3.1536,-3.1095,-3.0803,-3.075,-3.1288,-3.1774,-3.2163,-4.8185,-4.8185,-4.8185,-4.8185,-4.8185,-4.8185,-4.8185,-4.8185,-4.8185,-4.8185,-4.8185,-4.8185,-4.8185,-4.8185,-4.8185,-4.8185,-4.8185,-4.8185,-4.8185,-4.8185,-4.8185,-4.8114,-4.8185,-4.8185,-4.8114,-4.8185,-4.8185,-4.8055,-4.7501,-4.7205,-4.7146,-4.6601,-4.6313,-4.6313,-4.6313,-4.6313,-4.6313,-4.6313,-4.6313,-4.6313,-4.6313,-4.6313,-4.6301,-4.6225,-4.5849,-4.5296,-4.4719,-4.3853,-4.2862,-4.2268,-4.2041,-4.1814,-4.0571,-3.9767,-3.9178,-3.8526,-3.7927,-3.7445,-3.7445,-3.7687,-3.807,-3.8369,-3.8645,-3.8848,-3.9098,-3.8277,-3.7571,-3.803,-3.6971,-3.5867,-3.5867,-3.5506,-3.5059,-3.46,-3.4524,-3.4468,-3.4468,-3.4468,-3.4468,-3.4468,-3.4468,-3.4524,-3.4524,-3.4524,-3.4524,-3.4524,-3.4758,-3.4935,-3.4991,-3.5423,-3.5742,-3.5797,-3.6059,-3.6277,-3.632,-3.632,-3.632,-3.632,-3.6208,-3.591,-3.5416,-3.5416,-3.5152,-3.4705,-3.4773,-3.4455,-3.3795,-3.3471,-3.2625,-3.1497,-3.1622,-3.1246,-3.0791,-3.164,-3.2184,-3.2587,-4.8185,-4.8185,-4.8185,-4.8185,-4.8185,-4.8185,-4.8185,-4.8185,-4.8185,-4.8185,-4.8185,-4.8185,-4.8185,-4.8185,-4.8185,-4.8185,-4.8185,-4.8185,-4.8185,-4.8185,-4.8185,-4.8185,-4.8185,-4.8185,-4.8185,-4.8185,-4.8185,-4.8185,-4.7514,-4.7205,-4.7205,-4.6588,-4.6313,-4.6313,-4.6313,-4.6313,-4.6313,-4.6313,-4.6313,-4.6313,-4.6313,-4.6313,-4.6313,-4.6313,-4.5962,-4.5372,-4.448,-4.3652,-4.2918,-4.2481,-4.2211,-4.1928,-4.1057,-4.006,-3.9178,-3.8693,-3.8036,-3.7506,-3.7878,-3.7807,-3.7807,-3.8716,-3.8716,-3.8716,-3.919,-3.8664,-3.81,-3.8335,-3.7336,-3.6293,-3.6078,-3.578,-3.5386,-3.4644,-3.4524,-3.4524,-3.4524,-3.4524,-3.4524,-3.4524,-3.4524,-3.4524,-3.4524,-3.4524,-3.4579,-3.4758,-3.4935,-3.5146,-3.5423,-3.5687,-3.5906,-3.6059,-3.6211,-3.632,-3.632,-3.632,-3.632,-3.632,-3.632,-3.6205,-3.5944,-3.5944,-3.5669,-3.5221,-3.5497,-3.5036,-3.4114,-3.401,-3.3341,-3.2426,-3.2423,-3.2272,-3.2156,-3.2507,-3.2664,-3.2727]},{"header":{"parameterUnit":"m.s-1","parameterCategory":1,"la1":30.6,"la2":28.766,"lo1":-90.7593,"lo2":-88.6598,"dy":0.0162,"dx":0.0183,"nx":116,"ny":114,"refTime":"2024-05-01T12:00:00:Z","depth":0,"parameterNumber":3,"parameterNumberName":"V-component_of_WINDS"},"data":[0.0,0.0,0.0,0.0,0.0,0.0,0.0,0.0,0.0,0.0,0.0,0.0,0.0,0.0,0.0,0.0,0.0,0.0,0.0,0.0,0.0,0.0,0.0,0.0,0.0,0.0,0.0,0.0,0.0,0.0,0.0,0.0,0.0,0.0,0.0,0.0,0.0,0.0,0.0,0.0,0.0,0.0,0.0,0.0,0.0,0.0,0.0,0.0,0.0,0.0,0.0,0.0,0.0,0.0,0.0,0.0,0.0,0.0,0.0,0.0,0.0,0.0,0.0,0.0,0.0,0.0,0.0,0.0,0.0,0.0,0.0,0.0,0.0,0.0,0.0,0.0,0.0,0.0,0.0,0.0,0.0,0.0,0.0,0.0,0.0,0.0,0.0,0.0,0.0,0.0,0.0,0.0,0.0,0.0,0.0,0.0,0.0,0.0,0.0,0.0,0.0,0.0,0.0,0.0,0.0,0.0,0.0,0.0,0.0,0.0,0.0,0.0,0.0,0.0,0.0,0.0,0.0,0.0,0.0,0.0,0.0,0.0,0.0,0.0,0.0,0.0,0.0,0.0,0.0,0.0,0.0,0.0,0.0,0.0,0.0,0.0,0.0,0.0,0.0,0.0,0.0,0.0,0.0,0.0,0.0,0.0,0.0,0.0,0.0,0.0,0.0,0.0,0.0,0.0,0.0,0.0,0.0,0.0,0.0,0.0,0.0,0.0,0.0,0.0,0.0,0.0,0.0,0.0,0.0,0.0,0.0,0.0,0.0,0.0,0.0,0.0,0.0,0.0,0.0,0.0,0.0,0.0,0.0,0.0,0.0,0.0,0.0,0.0,0.0,0.0,0.0,0.0,0.0,0.0,0.0,0.0,0.0,0.0,0.0,0.0,0.0,0.0,0.0,0.0,0.0,0.0,0.0,0.0,0.0,0.0,0.0,0.0,0.0,0.0,0.0,0.0,0.0,0.0,0.0,0.0,0.0,0.0,0.0,0.0,0.0,0.0,0.0,0.0,0.0,0.0,0.0,0.0,0.0,0.0,0.0,0.0,0.0,0.0,0.0,0.0,0.0,0.0,0.0,0.0,0.0,0.0,0.0,0.0,0.0,0.0,0.0,0.0,0.0,0.0,0.0,0.0,0.0,0.0,0.0,0.0,0.0,0.0,0.0,0.0,0.0,0.0,0.0,0.0,0.0,0.0,0.0,0.0,0.0,0.0,0.0,0.0,0.0,0.0,0.0,0.0,0.0,0.0,0.0,0.0,0.0,0.0,0.0,0.0,0.0,0.0,0.0,0.0,0.0,0.0,0.0,0.0,0.0,0.0,0.0,0.0,0.0,0.0,0.0,0.0,0.0,0.0,0.0,0.0,0.0,0.0,0.0,0.0,0.0,0.0,0.0,0.0,0.0,0.0,0.0,0.0,0.0,0.0,0.0,0.0,0.0,0.0,0.0,0.0,0.0,0.0,0.0,0.0,0.0,0.0,0.0,0.0,0.0,0.0,0.0,0.0,0.0,0.0,0.0,0.0,0.0,0.0,0.0,0.0,0.0,0.0,0.0,0.0,0.0,0.0,0.0,0.0,0.0,0.0,0.0,0.0,0.0,0.0,0.0,0.0,0.0,0.0,0.0,0.0,0.0,0.0,0.0,0.0,0.0,0.0,0.0,0.0,0.0,0.0,0.0,0.0,0.0,0.0,0.0,0.0,0.0,0.0,0.0,0.0,0.0,0.0,0.0,0.0,0.0,0.0,0.0,0.0,0.0,0.0,0.0,0.0,0.0,0.0,0.0,0.0,0.0,0.0,0.0,0.0,0.0,0.0,0.0,0.0,0.0,0.0,0.0,0.0,0.0,0.0,0.0,0.0,0.0,0.0,0.0,0.0,0.0,0.0,0.0,0.0,0.0,0.0,0.0,0.0,0.0,0.0,0.0,0.0,0.0,0.0,0.0,0.0,0.0,0.0,0.0,0.0,0.0,0.0,0.0,0.0,0.0,0.0,0.0,0.0,0.0,0.0,0.0,0.0,0.0,0.0,0.0,0.0,0.0,0.0,0.0,0.0,0.0,0.0,0.0,0.0,0.0,0.0,0.0,0.0,0.0,0.0,0.0,0.0,0.0,0.0,0.0,0.0,0.0,0.0,0.0,0.0,0.0,0.0,0.0,0.0,0.0,0.0,0.0,0.0,0.0,0.0,0.0,0.0,0.0,0.0,0.0,0.0,0.0,0.0,0.0,0.0,0.0,0.0,0.0,0.0,0.0,0.0,0.0,0.0,0.0,0.0,0.0,0.0,0.0,0.0,0.0,0.0,0.0,0.0,0.0,0.0,0.0,0.0,0.0,0.0,0.0,0.0,0.0,0.0,0.0,0.0,0.0,0.0,0.0,0.0,0.0,0.0,0.0,0.0,0.0,0.0,0.0,0.0,0.0,0.0,0.0,0.0,0.0,0.0,0.0,0.0,0.0,0.0,0.0,0.0,0.0,0.0,0.0,0.0,0.0,0.0,0.0,0.0,0.0,0.0,0.0,0.0,0.0,0.0,0.0,0.0,0.0,0.0,0.0,0.0,0.0,0.0,0.0,0.0,0.0,0.0,0.0,0.0,0.0,0.0,0.0,0.0,0.0,0.0,0.0,0.0,0.0,0.0,0.0,0.0,0.0,0.0,0.0,0.0,0.0,0.0,0.0,0.0,0.0,0.0,0.0,0.0,0.0,0.0,0.0,0.0,0.0,0.0,0.0,0.0,0.0,0.0,0.0,0.0,0.0,0.0,0.0,0.0,0.0,0.0,0.0,0.0,0.0,0.0,0.0,0.0,0.0,0.0,0.0,0.0,0.0,0.0,0.0,0.0,0.0,0.0,0.0,0.0,0.0,0.0,0.0,0.0,0.0,0.0,0.0,0.0,0.0,0.0,0.0,0.0,0.0,0.0,0.0,0.0,0.0,0.0,0.0,0.0,0.0,0.0,0.0,0.0,0.0,0.0,0.0,0.0,0.0,0.0,0.0,0.0,0.0,0.0,0.0,0.0,0.0,0.0,0.0,0.0,0.0,0.0,0.0,0.0,0.0,0.0,0.0,0.0,0.0,0.0,0.0,0.0,0.0,0.0,0.0,0.0,0.0,0.0,0.0,0.0,0.0,0.0,0.0,0.0,0.0,0.0,0.0,0.0,0.0,0.0,0.0,0.0,0.0,0.0,0.0,0.0,0.0,0.0,0.0,0.0,0.0,0.0,0.0,0.0,0.0,0.0,0.0,0.0,0.0,0.0,0.0,0.0,0.0,0.0,0.0,0.0,0.0,0.0,0.0,0.0,0.0,0.0,0.0,0.0,0.0,0.0,0.0,0.0,0.0,0.0,0.0,0.0,0.0,0.0,0.0,0.0,0.0,0.0,0.0,0.0,0.0,0.0,0.0,0.0,0.0,0.0,0.0,0.0,0.0,0.0,0.0,0.0,0.0,0.0,0.0,0.0,0.0,0.0,0.0,0.0,0.0,0.0,0.0,0.0,0.0,0.0,0.0,0.0,0.0,0.0,0.0,0.0,0.0,0.0,0.0,0.0,0.0,0.0,0.0,0.0,0.0,0.0,0.0,0.0,0.0,0.0,0.0,0.0,0.0,0.0,0.0,0.0,0.0,0.0,0.0,0.0,0.0,0.0,0.0,0.0,0.0,0.0,0.0,0.0,0.0,0.0,0.0,0.0,0.0,0.0,0.0,0.0,0.0,0.0,0.0,0.0,0.0,0.0,0.0,0.0,0.0,0.0,0.0,0.0,0.0,0.0,0.0,0.0,0.0,0.0,0.0,0.0,0.0,0.0,0.0,0.0,0.0,0.0,0.0,0.0,0.0,0.0,0.0,0.0,0.0,0.0,0.0,0.0,0.0,0.0,0.0,0.0,0.0,0.0,0.0,0.0,0.0,0.0,0.0,0.0,0.0,0.0,0.0,0.0,0.0,0.0,0.0,0.0,0.0,0.0,0.0,0.0,0.0,0.0,0.0,0.0,0.0,0.0,0.0,0.0,0.0,0.0,0.0,0.0,0.0,0.0,0.0,0.0,0.0,0.0,0.0,0.0,0.0,0.0,0.0,0.0,0.0,0.0,0.0,0.0,0.0,0.0,0.0,0.0,0.0,0.0,0.0,0.0,0.0,0.0,0.0,0.0,0.0,0.0,0.0,0.0,0.0,0.0,0.0,0.0,0.0,0.0,0.0,0.0,0.0,0.0,0.0,0.0,0.0,0.0,0.0,0.0,0.0,0.0,0.0,0.0,0.0,0.0,0.0,0.0,0.0,0.0,0.0,0.0,0.0,0.0,0.0,0.0,0.0,0.0,0.0,0.0,0.0,0.0,0.0,0.0,0.0,0.0,0.0,0.0,0.0,0.0,0.0,0.0,0.0,0.0,0.0,0.0,0.0,0.0,0.0,0.0,0.0,0.0,0.0,0.0,0.0,0.0,0.0,0.0,0.0,0.0,0.0,0.0,0.0,0.0,0.0,0.0,0.0,0.0,0.0,0.0,0.0,0.0,0.0,0.0,0.0,0.0,0.0,0.0,0.0,0.0,0.0,0.0,0.0,0.0,0.0,0.0,0.0,0.0,0.0,0.0,0.0,0.0,0.0,0.0,0.0,0.0,0.0,0.0,0.0,0.0,0.0,0.0,0.0,0.0,0.0,0.0,0.0,0.0,0.0,0.0,0.0,0.0,0.0,0.0,0.0,0.0,0.0,0.0,0.0,0.0,0.0,0.0,0.0,0.0,0.0,0.0,0.0,0.0,0.0,0.0,0.0,0.0,0.0,0.0,0.0,0.0,0.0,0.0,0.0,0.0,0.0,0.0,0.0,0.0,0.0,0.0,0.0,0.0,0.0,0.0,0.0,0.0,0.0,0.0,0.0,0.0,0.0,0.0,0.0,0.0,0.0,0.0,0.0,0.0,0.0,0.0,0.0,0.0,0.0,0.0,0.0,0.0,0.0,0.0,0.0,0.0,0.0,0.0,0.0,0.0,0.0,0.0,0.0,0.0,0.0,0.0,0.0,0.0,0.0,0.0,0.0,0.0,0.0,0.0,0.0,0.0,0.0,0.0,0.0,0.0,0.0,0.0,0.0,0.0,0.0,0.0,0.0,0.0,0.0,0.0,0.0,0.0,0.0,0.0,0.0,0.0,0.0,0.0,0.0,0.0,0.0,0.0,0.0,0.0,0.0,0.0,0.0,0.0,0.0,0.0,0.0,0.0,0.0,0.0,0.0,0.0,0.0,0.0,0.0,0.0,0.0,0.0,0.0,0.0,0.0,0.0,0.0,0.0,0.0,0.0,0.0,0.0,0.0,0.0,0.0,0.0,0.0,0.0,0.0,0.0,0.0,0.0,0.0,0.0,0.0,0.0,0.0,0.0,0.0,0.0,0.0,0.0,0.0,0.0,0.0,0.0,0.0,0.0,0.0,0.0,0.0,0.0,0.0,0.0,0.0,0.0,0.0,0.0,0.0,0.0,0.0,0.0,0.0,0.0,0.0,0.0,0.0,0.0,0.0,0.0,0.0,0.0,0.0,0.0,0.0,0.0,0.0,0.0,0.0,0.0,0.0,0.0,0.0,0.0,0.0,0.0,0.0,0.0,0.0,0.0,0.0,0.0,0.0,0.0,0.0,0.0,0.0,0.0,0.0,0.0,0.0,0.0,0.0,0.0,0.0,0.0,0.0,0.0,0.0,0.0,0.0,0.0,0.0,0.0,0.0,0.0,0.0,0.0,0.0,0.0,0.0,0.0,0.0,0.0,0.0,0.0,0.0,0.0,0.0,0.0,0.0,0.0,0.0,0.0,0.0,0.0,0.0,0.0,0.0,0.0,0.0,0.0,0.0,0.0,0.0,0.0,0.0,0.0,0.0,0.0,0.0,0.0,0.0,0.0,0.0,0.0,0.0,0.0,0.0,0.0,0.0,0.0,0.0,0.0,0.0,0.0,0.0,0.0,0.0,0.0,0.0,0.0,0.0,0.0,0.0,0.0,0.0,0.0,0.0,0.0,0.0,0.0,0.0,0.0,0.0,0.0,0.0,0.0,0.0,0.0,0.0,0.0,0.0,0.0,0.0,0.0,0.0,0.0,0.0,0.0,0.0,0.0,3.0192,2.8277,0.0,0.0,0.0,0.0,0.0,0.0,0.0,0.0,0.0,0.0,0.0,0.0,0.0,0.0,0.0,0.0,0.0,0.0,0.0,0.0,0.0,0.0,0.0,2.7452,2.7452,2.7951,2.7715,2.7631,2.762,0.0,0.0,0.0,0.0,0.0,2.7204,2.7696,2.8081,2.8362,2.9567,3.1035,3.275,3.1961,3.0855,2.9638,0.0,0.0,0.0,0.0,0.0,0.0,0.0,0.0,0.0,0.0,0.0,0.0,0.0,0.0,0.0,0.0,0.0,0.0,0.0,0.0,0.0,0.0,0.0,0.0,0.0,0.0,0.0,0.0,0.0,0.0,0.0,0.0,0.0,0.0,0.0,0.0,0.0,0.0,0.0,0.0,0.0,0.0,0.0,0.0,0.0,0.0,0.0,0.0,0.0,0.0,0.0,0.0,0.0,0.0,0.0,0.0,0.0,0.0,0.0,0.0,0.0,0.0,0.0,0.0,0.0,0.0,0.0,0.0,0.0,0.0,3.406,3.224,0.0,0.0,0.0,0.0,0.0,0.0,0.0,0.0,0.0,0.0,0.0,0.0,0.0,0.0,0.0,0.0,0.0,0.0,0.0,0.0,0.0,2.8803,2.9082,2.8373,2.8233,2.8945,2.8362,2.8092,2.8398,2.8351,0.0,0.0,0.0,2.8301,2.8246,2.886,2.9294,2.9585,3.1589,3.3412,3.4993,3.5354,3.4306,3.2093,3.1031,0.0,0.0,0.0,0.0,0.0,0.0,0.0,0.0,0.0,0.0,0.0,0.0,0.0,0.0,0.0,0.0,0.0,0.0,0.0,0.0,0.0,0.0,0.0,0.0,0.0,0.0,0.0,0.0,0.0,0.0,0.0,0.0,0.0,0.0,0.0,0.0,0.0,0.0,0.0,0.0,0.0,0.0,0.0,0.0,0.0,0.0,0.0,0.0,0.0,0.0,0.0,0.0,0.0,0.0,0.0,0.0,0.0,0.0,0.0,0.0,0.0,0.0,0.0,4.0536,4.0631,4.0781,4.0364,3.983,3.9197,3.7615,3.6371,3.5331,3.4088,0.0,0.0,0.0,0.0,0.0,0.0,0.0,0.0,0.0,0.0,0.0,0.0,0.0,0.0,0.0,0.0,0.0,0.0,0.0,2.976,2.9174,2.9209,2.952,3.0181,2.9806,2.9681,3.0136,2.9806,2.9268,2.8585,2.9222,2.9468,2.9288,3.0381,3.1513,3.2718,3.4939,3.6056,3.6131,3.6862,3.6866,3.6209,3.4062,3.2834,3.229,0.0,0.0,0.0,0.0,0.0,0.0,0.0,0.0,0.0,0.0,0.0,0.0,0.0,0.0,0.0,0.0,0.0,0.0,0.0,0.0,0.0,0.0,0.0,0.0,0.0,0.0,0.0,0.0,0.0,0.0,0.0,0.0,0.0,0.0,0.0,0.0,0.0,0.0,0.0,0.0,0.0,3.258,3.3514,0.0,0.0,0.0,0.0,0.0,0.0,0.0,0.0,0.0,0.0,0.0,0.0,0.0,4.0194,4.1243,4.1298,4.1924,4.3098,4.3098,4.2725,4.2038,4.1809,4.1369,4.0717,4.0463,0.0,3.7392,3.578,0.0,0.0,0.0,0.0,0.0,0.0,0.0,0.0,0.0,0.0,0.0,0.0,0.0,0.0,0.0,0.0,0.0,0.0,0.0,0.0,0.0,3.0385,3.0554,3.1258,3.089,3.0744,3.1101,3.0666,3.026,2.9943,3.0136,3.0422,3.073,3.1397,3.2746,3.4773,3.6463,3.7701,3.8477,3.9009,3.9136,3.8856,3.7549,3.5832,3.3787,3.2937,0.0,0.0,0.0,0.0,0.0,0.0,0.0,0.0,0.0,0.0,0.0,0.0,0.0,0.0,0.0,0.0,0.0,0.0,0.0,0.0,0.0,0.0,0.0,0.0,0.0,0.0,0.0,0.0,0.0,0.0,0.0,0.0,0.0,0.0,0.0,0.0,0.0,0.0,0.0,3.315,3.3716,3.4787,3.4944,3.5481,0.0,0.0,0.0,0.0,0.0,0.0,0.0,0.0,0.0,4.0962,4.1241,4.1882,4.2955,4.2969,4.3285,4.382,4.382,4.3632,4.3228,4.2668,4.2295,4.2065,4.1326,4.0562,3.9775,3.856,3.8034,3.7786,0.0,0.0,0.0,0.0,3.3129,3.4005,0.0,0.0,0.0,0.0,0.0,0.0,0.0,0.0,0.0,0.0,0.0,0.0,3.1837,3.1745,3.189,3.2382,3.2162,3.2135,3.2455,3.2059,3.1821,3.1684,3.1708,3.1958,3.2389,3.3227,3.4583,3.6411,3.788,3.917,4.0323,4.0776,4.0941,4.0763,4.0307,3.8341,3.5393,3.458,3.327,3.1629,0.0,0.0,0.0,0.0,0.0,0.0,0.0,0.0,0.0,0.0,0.0,0.0,0.0,0.0,0.0,0.0,0.0,0.0,0.0,0.0,0.0,0.0,0.0,0.0,0.0,0.0,0.0,0.0,0.0,0.0,0.0,0.0,0.0,0.0,0.0,0.0,0.0,3.4537,3.5147,3.6248,3.652,3.713,0.0,0.0,0.0,0.0,0.0,0.0,4.0574,4.1015,4.1568,4.2166,4.2596,4.3227,4.4211,4.4211,4.4313,4.4472,4.4472,4.4385,4.4124,4.3474,4.3185,4.311,4.1952,4.1568,4.175,4.0743,4.0152,3.9732,3.8062,3.7565,3.7548,3.6006,3.6265,3.7345,0.0,0.0,0.0,0.0,0.0,0.0,0.0,0.0,0.0,0.0,0.0,3.2537,3.2394,3.3189,3.3726,3.3637,3.3885,3.4277,3.4779,3.455,3.4243,3.3847,3.4497,3.4727,3.437,3.6673,3.7821,3.7717,3.9749,4.0704,4.0594,4.164,4.2098,4.2064,4.1608,3.9914,3.7352,3.6333,3.5132,3.3838,3.2512,0.0,0.0,0.0,0.0,0.0,0.0,0.0,0.0,0.0,0.0,0.0,0.0,0.0,0.0,0.0,0.0,0.0,0.0,0.0,0.0,0.0,0.0,0.0,0.0,0.0,0.0,0.0,0.0,0.0,0.0,0.0,0.0,0.0,0.0,0.0,0.0,0.0,0.0,3.8141,3.8472,0.0,0.0,0.0,0.0,4.0645,4.1086,4.1354,4.1354,4.1787,4.2257,4.2667,4.288,4.3587,4.4821,4.4835,4.5155,4.5779,4.5779,4.5385,4.4569,4.4526,4.4165,4.3531,4.2897,4.2751,4.2806,4.151,4.0618,4.0122,4.0217,3.99,3.9384,3.9275,3.9155,3.9062,0.0,0.0,0.0,2.7383,2.7707,2.7956,2.8518,2.9552,3.0325,3.0433,3.2197,3.3527,3.3614,3.4663,3.5413,3.5478,3.5791,3.6008,3.6224,3.5548,3.5173,3.5391,3.5035,3.5088,3.5655,3.8024,3.9213,3.9095,4.0885,4.1998,4.2461,4.2852,4.3146,4.3338,4.3185,4.2105,4.033,3.912,3.7826,3.6556,3.5201,3.3601,0.0,0.0,0.0,0.0,0.0,0.0,0.0,0.0,0.0,0.0,0.0,0.0,0.0,0.0,0.0,0.0,0.0,0.0,0.0,0.0,0.0,0.0,0.0,0.0,0.0,0.0,0.0,0.0,0.0,0.0,0.0,0.0,0.0,0.0,0.0,0.0,0.0,3.9057,3.9246,0.0,4.0605,4.0675,4.0887,4.1564,4.1745,4.1829,4.1829,4.2009,4.2326,4.2907,4.337,4.4037,4.4879,4.5314,4.5738,4.609,4.597,4.5809,4.5592,4.5038,4.4675,4.437,4.3618,4.3113,4.278,4.2295,4.1694,4.1164,4.1247,4.1186,4.1107,4.0984,4.1066,4.1244,0.0,2.5579,0.0,2.6927,2.7396,2.7846,2.8573,2.9517,3.0326,3.0823,3.2637,3.4038,3.4502,3.5839,3.6682,3.6641,3.7117,3.741,3.7397,3.6805,3.6621,3.7096,3.6417,3.6509,3.7592,3.9406,4.0418,4.0518,4.2078,4.3107,4.3529,4.3878,4.4142,4.4289,4.4195,4.3582,4.2616,4.1626,4.0203,3.8506,3.7346,3.5866,3.4221,0.0,0.0,0.0,0.0,0.0,0.0,0.0,0.0,0.0,0.0,0.0,0.0,0.0,0.0,0.0,0.0,0.0,0.0,0.0,0.0,0.0,0.0,0.0,0.0,0.0,0.0,0.0,0.0,0.0,0.0,0.0,0.0,0.0,0.0,3.8765,3.937,4.0142,4.0229,4.0631,4.1647,4.1437,4.1579,4.2424,4.2439,4.2397,4.2397,4.2397,4.2586,4.2977,4.3459,4.4037,4.4691,4.54,4.5854,4.5991,4.6092,4.6194,4.6299,4.5638,4.5346,4.5317,4.4531,4.3777,4.3127,4.2981,4.2503,4.1841,4.166,4.1489,4.1344,4.1039,4.1219,4.1538,0.0,2.4916,2.5438,2.5681,2.664,2.7639,2.8386,2.9145,2.9964,3.0968,3.2701,3.4169,3.4964,3.6669,3.754,3.7007,3.7852,3.8437,3.8439,3.8423,3.8563,3.8881,3.8737,3.9154,4.0173,4.0979,4.1566,4.1937,4.3432,4.3942,4.3519,4.4567,4.4972,4.4769,4.4551,4.427,4.4035,4.3757,4.212,3.9655,3.8808,3.7706,3.6414,0.0,0.0,0.0,0.0,0.0,0.0,0.0,0.0,0.0,0.0,0.0,0.0,0.0,0.0,0.0,0.0,0.0,0.0,0.0,0.0,0.0,0.0,0.0,0.0,0.0,0.0,0.0,0.0,0.0,0.0,0.0,0.0,0.0,3.9254,3.9883,4.0617,4.1354,4.1438,4.1689,4.2351,4.1993,4.217,4.3186,4.3118,4.2992,4.2992,4.3007,4.3021,4.3021,4.317,4.3574,4.4265,4.5065,4.5532,4.5636,4.627,4.658,4.6594,4.6314,4.621,4.6181,4.561,4.485,4.4022,4.3608,4.2896,4.208,4.162,4.0912,4.0108,3.9746,3.9704,4.0096,2.4603,2.46,2.492,2.6088,2.6566,2.721,2.8326,2.9145,3.0073,3.1417,3.3409,3.5093,3.6237,3.7863,3.8803,3.8654,3.9067,3.9352,3.9338,3.8959,3.876,3.8666,3.9577,4.0191,4.049,4.2067,4.2809,4.2632,4.3851,4.4175,4.3818,4.4197,4.4452,4.4586,4.4677,4.4644,4.4551,4.4303,4.3515,4.2385,4.1185,4.0328,3.9425,0.0,0.0,0.0,0.0,0.0,0.0,0.0,0.0,0.0,0.0,0.0,0.0,0.0,0.0,0.0,0.0,0.0,0.0,0.0,0.0,0.0,0.0,0.0,0.0,0.0,0.0,0.0,0.0,0.0,0.0,0.0,3.9554,4.056,4.0759,4.11,4.1437,4.187,4.1926,4.2036,4.2351,4.2269,4.2368,4.2831,4.3065,4.3217,4.3217,4.3542,4.3531,4.317,4.3992,4.4181,4.3705,4.4748,4.5493,4.5867,4.5508,4.5874,4.68,4.6225,4.6194,4.6491,4.6123,4.5595,4.488,4.4151,4.3425,4.2702,4.2127,4.1838,4.1732,4.1664,4.1732,4.1977,2.4083,2.4202,2.4611,2.5372,2.5981,2.6653,2.7636,2.8646,2.9816,3.1326,3.3209,3.5018,3.6552,3.8064,3.902,3.9278,3.9554,3.9774,3.9922,3.9763,3.953,3.9322,4.0076,4.0827,4.1415,4.253,4.3296,4.3692,4.441,4.4576,4.4276,4.4455,4.449,4.4473,4.4474,4.4397,4.4303,4.427,4.4007,4.3525,4.2848,4.2038,4.0992,3.9152,3.8272,3.7792,3.6311,3.5458,3.4856,3.3824,0.0,0.0,0.0,0.0,0.0,0.0,0.0,0.0,0.0,0.0,0.0,0.0,0.0,0.0,0.0,0.0,0.0,0.0,0.0,0.0,0.0,0.0,0.0,0.0,4.052,4.1324,4.1978,4.2117,4.2172,4.231,4.2351,4.2433,4.2607,4.2831,4.3137,4.3622,4.4034,4.4218,4.4147,4.4384,4.424,4.3608,4.4263,4.4455,4.4065,4.4966,4.5654,4.6124,4.6003,4.6313,4.7062,4.6535,4.6417,4.6594,4.6535,4.6021,4.5273,4.4864,4.4237,4.3439,0.0,0.0,0.0,0.0,4.1572,4.1982,2.3238,2.3839,2.4438,2.4164,2.5131,2.6151,2.6713,2.7862,2.9236,3.0851,3.247,3.419,3.6115,3.7477,3.8445,3.9017,3.9349,3.9713,4.0204,4.0447,4.0518,4.0345,4.047,4.1171,4.2556,4.2615,4.3328,4.473,4.4861,4.4832,4.4709,4.4904,4.4748,4.4359,4.4134,4.3912,4.3709,4.3926,4.3926,4.3709,4.3974,4.3168,4.1815,4.1221,4.0676,4.0137,3.9246,3.8762,3.8272,3.6523,0.0,0.0,0.0,0.0,0.0,0.0,0.0,0.0,0.0,0.0,0.0,0.0,0.0,0.0,0.0,0.0,0.0,0.0,0.0,0.0,0.0,0.0,0.0,0.0,4.1478,4.1811,4.282,4.2835,4.2729,4.2688,4.2688,4.2769,4.2996,4.3368,4.3989,4.4864,4.5291,4.5475,4.539,4.5376,0.0,0.0,0.0,4.4522,4.4791,4.5445,4.5947,4.6294,4.6877,4.7191,4.7309,4.6975,4.68,4.6683,4.6844,4.6372,4.5493,4.5535,4.5036,4.4046,4.2278,4.1096,4.0386,4.0165,4.0537,4.1181,2.3394,2.3682,2.4095,2.4314,2.5131,2.5993,2.6697,2.7357,2.845,3.0436,3.1807,3.3328,3.516,3.6463,3.7287,3.7566,3.8009,3.8724,3.9831,3.9957,4.0182,4.0574,4.1092,4.1753,4.257,4.2735,4.3312,4.4245,4.4015,4.3933,4.4065,4.4214,4.4231,4.4169,4.4279,4.4317,4.4256,4.4317,4.4317,4.4256,4.4317,4.4012,4.344,4.2471,4.2017,4.1794,4.075,3.9934,3.917,3.8356,3.7191,3.6055,3.5907,3.5294,0.0,0.0,0.0,0.0,0.0,0.0,0.0,0.0,0.0,0.0,0.0,0.0,0.0,0.0,0.0,0.0,0.0,0.0,0.0,4.1,4.1729,4.2322,4.2688,4.2875,4.2875,4.2729,4.2688,4.2769,4.2996,4.3059,4.3496,4.437,4.4876,4.5332,4.5837,4.5991,4.5767,4.5271,4.5467,4.5341,4.4893,4.5376,4.5884,4.6294,4.6057,0.0,4.7309,4.6858,4.6858,4.7164,4.6975,4.6755,4.6519,4.5697,4.4615,4.3462,4.3088,4.2634,4.2213,4.2158,4.232,4.2602,2.3934,2.3897,2.394,2.4003,2.496,2.5889,2.6465,2.7459,2.8695,3.0244,3.1516,3.2859,3.4444,3.5606,3.6425,3.6817,3.7585,3.8519,3.9564,3.983,4.0224,4.0816,4.1026,4.1446,4.2093,4.2314,4.3032,4.415,4.4089,4.4178,4.4494,4.4555,4.4485,4.427,4.4363,4.4317,4.4223,4.4504,4.4275,4.3761,4.4025,4.3796,4.3296,4.323,4.2926,4.2483,4.184,4.1044,4.0199,3.9548,3.8457,3.7429,3.7429,3.6979,3.6356,0.0,0.0,0.0,0.0,0.0,0.0,0.0,0.0,0.0,0.0,0.0,0.0,0.0,0.0,3.9286,4.0253,0.0,4.1451,4.2029,4.2461,4.2825,4.315,4.301,4.289,4.297,4.301,4.305,4.3155,4.3453,4.393,4.4601,4.5272,4.5858,4.6268,4.6447,4.6356,4.5965,4.613,4.609,4.5792,4.6109,4.6456,4.6815,4.6542,4.6764,4.7309,4.7048,4.6826,4.6658,4.6629,4.6349,4.5936,4.5381,4.456,4.3634,4.3634,4.3278,4.2732,4.3097,4.3116,4.2981,2.4345,2.4208,2.4011,2.3824,2.4929,2.5939,2.6256,2.7651,2.9067,3.0041,3.1175,3.2383,3.3595,3.4611,3.543,3.6102,3.7064,3.8076,3.9173,3.955,4.0083,4.0831,4.073,4.091,4.1513,4.172,4.252,4.3965,4.4174,4.4445,4.4847,4.4929,4.4769,4.4411,4.4411,4.427,4.4129,4.4551,4.4176,4.3389,4.3663,4.3285,4.2697,4.3575,4.337,4.2564,4.2345,4.1783,4.1034,4.0162,3.9422,3.8794,3.8642,3.83,3.7874,3.7635,3.7356,0.0,0.0,0.0,0.0,0.0,0.0,0.0,0.0,4.106,4.1191,4.0796,4.0789,4.108,4.1985,4.2243,4.2509,4.304,4.2966,4.2977,4.3394,4.2985,4.2828,4.3349,4.3325,4.325,4.325,4.3888,4.4504,4.501,4.5821,4.6435,4.6741,4.6844,4.6756,4.6514,4.6533,4.6652,4.6729,4.686,4.7019,4.7309,4.7309,4.7309,4.7309,4.7309,4.6864,4.6081,4.6102,4.5687,4.4986,4.4986,4.4599,4.402,4.4139,4.3627,4.2868,4.3401,4.3334,4.3036,2.4007,2.4323,2.4594,2.4585,2.5515,2.6256,2.6294,2.7484,2.8663,2.9553,3.0648,3.1563,3.2332,3.3145,3.3968,3.4831,3.5259,3.6265,3.8228,3.838,3.9019,4.0332,4.04,4.0721,4.1335,4.1196,4.1737,4.3043,4.3264,4.3548,4.3933,4.4329,4.4457,4.4411,4.4411,4.4364,4.4364,4.4411,4.4369,4.421,4.3708,4.3178,4.2654,4.3297,4.3006,4.2189,4.176,4.1534,4.1292,4.0162,3.9736,3.9556,3.8807,3.8671,3.8706,3.8384,3.8765,3.9246,3.9168,4.0591,4.2365,4.3639,4.4192,4.4427,0.0,4.4596,4.4403,4.4106,4.4246,4.4267,4.3846,4.3637,4.3284,4.2602,4.2342,4.2289,4.2529,4.2474,4.2802,4.3786,4.3407,4.3036,4.3036,4.3792,4.4586,4.5203,4.5891,4.6563,4.7178,4.7019,4.6873,4.6845,4.6668,4.6712,4.6903,4.6917,4.7019,4.7309,4.7309,4.7309,4.7309,4.7309,4.6907,4.6249,4.5678,4.5254,4.4986,4.4986,4.4599,4.4065,4.4644,4.4191,4.3225,4.3125,4.3135,4.325,2.4491,2.4873,2.5238,2.5455,2.6123,2.6835,2.766,2.8112,2.8807,2.9913,3.0457,3.0973,3.1558,3.2559,3.3484,3.405,3.4481,3.5468,3.7252,3.7516,3.8316,3.9812,3.9821,4.0002,4.0528,4.0469,4.0979,4.2127,4.2215,4.2672,4.3519,4.3398,4.3617,4.4019,4.3543,4.3736,4.4383,4.4156,4.379,4.3357,4.3578,4.2803,4.1559,4.2013,4.1667,4.1071,4.2062,4.2122,0.0,4.0586,4.0155,3.991,3.9227,3.9083,3.9104,3.8949,3.9278,3.9862,4.0742,4.2138,4.37,4.4879,4.5477,4.5789,4.6021,4.5915,4.566,4.5331,4.5221,4.5126,4.4894,4.4838,4.4665,4.4259,4.3917,4.3627,4.3381,4.2989,4.2952,4.3522,4.326,4.334,4.4258,4.4433,4.4837,4.5647,4.6087,4.652,4.7032,4.7121,4.7062,4.6916,4.699,4.699,4.6916,4.7062,4.697,4.6741,4.7115,4.7115,4.6756,4.713,4.695,4.6249,4.5589,4.5039,4.4613,4.4613,4.4184,4.3617,4.3886,4.3702,4.3334,4.3628,4.3578,4.329,2.4635,2.5235,2.5791,2.6063,2.6715,2.7471,2.83,2.8655,2.9138,3.0085,3.0453,3.0822,3.1276,3.2234,3.2959,3.33,3.3769,3.4675,3.6085,3.6568,3.7417,3.882,3.8961,3.9158,3.9513,3.9631,4.0159,4.1042,4.1311,4.1884,4.2732,4.2561,4.2795,4.3325,4.2935,4.3283,4.413,4.3758,4.3262,4.2778,4.3088,4.2237,4.0881,4.1181,4.0826,4.035,4.1682,4.1837,4.1233,4.0476,4.02,4.0078,3.9495,3.9349,3.9435,3.9673,4.0042,4.0675,4.1975,4.3358,4.4668,4.5653,4.6585,4.7287,4.7342,4.7198,4.6931,4.6481,4.615,4.5893,4.5798,4.5638,4.5491,4.5419,4.4909,4.4443,4.4116,4.3564,4.3283,4.3585,4.3343,4.3747,4.5389,4.513,4.5191,4.5994,4.6373,4.67,4.6989,4.7207,4.7207,4.7019,4.7251,4.7294,4.7091,4.7381,4.7137,4.6391,4.7066,4.6993,4.6294,4.6621,4.6529,4.6077,4.5166,4.4627,4.4383,4.4122,4.3723,4.329,4.329,4.3344,4.3483,4.3963,4.3788,4.329,2.397,2.5205,2.6244,2.6103,2.7231,2.7989,2.7528,2.8714,2.967,2.9706,3.0628,3.1403,3.1637,3.1926,3.2202,3.2431,3.2874,3.3582,3.4615,3.5404,3.6194,3.7035,3.7806,3.8245,3.8245,3.8684,3.9176,3.9675,4.0515,4.1085,4.1393,4.1934,4.2227,4.2255,4.2823,4.3254,4.3526,4.3222,4.3087,4.2994,4.2046,4.1525,4.1276,4.1304,4.1046,4.0616,4.0005,3.999,4.0178,3.9522,3.9712,4.0078,3.9495,3.9496,3.9854,4.0625,4.1456,4.2289,4.3048,4.4501,4.596,4.647,4.8198,4.9694,4.9293,4.9081,4.8811,4.8324,4.7861,4.7306,4.6594,4.5845,4.5303,4.5215,4.4313,4.3806,4.4236,4.3892,4.3805,4.4381,4.384,4.4126,4.5989,4.583,4.5779,4.6237,4.692,4.7279,4.7309,4.7309,4.7309,4.7309,4.7467,4.7596,4.7581,4.7837,4.7489,4.6599,4.7249,4.7121,4.6264,4.5648,4.5488,4.5619,4.4053,4.3883,4.4625,4.3723,4.3305,4.329,4.329,4.3463,4.369,4.3705,4.3533,4.3329,2.4687,2.5385,2.6039,2.6414,2.7069,2.7493,2.7278,2.7964,2.8804,2.9644,3.0381,0.0,0.0,0.0,0.0,0.0,3.1749,3.2637,3.3855,3.453,3.5272,3.6214,3.6407,3.6449,3.6398,3.6905,3.7507,3.8153,3.8767,3.9473,4.0184,4.008,4.0484,4.1332,4.0945,4.1408,4.2397,4.189,4.165,4.1637,4.1906,4.1491,4.0789,4.1775,4.1705,4.1128,0.0,4.1073,4.0597,4.0092,4.0024,4.0078,3.9289,3.9203,3.9537,3.9963,4.08,4.1716,4.229,4.3689,4.5285,4.6353,4.7497,4.8522,4.9166,4.8908,4.851,4.8328,4.7837,4.7342,4.7184,4.6609,4.627,4.6652,4.5946,4.5332,4.5427,4.5024,4.4793,4.5011,4.4539,4.4694,4.6062,4.5468,4.5442,4.6445,4.6696,4.6815,4.6815,4.7121,4.7337,4.751,4.7117,4.7018,4.7216,4.669,4.6033,4.5288,4.5365,4.5548,4.5842,4.5915,4.6187,4.6535,4.5638,4.5323,4.5273,4.4338,4.3678,4.3329,4.3518,4.3596,4.3729,4.3832,4.3832,4.3778,0.0,2.5424,2.597,2.6438,2.6973,0.0,0.0,0.0,0.0,0.0,0.0,0.0,0.0,0.0,0.0,0.0,0.0,3.1815,3.2577,3.3237,3.3886,3.4602,3.4715,3.4715,3.4679,3.4956,3.5417,3.6024,3.623,3.6813,3.7723,3.7801,3.8434,3.9509,3.9563,4.0218,4.126,4.0848,4.0748,4.0999,4.1304,4.1141,4.083,4.1667,4.1867,0.0,4.2203,4.1747,4.0849,4.0472,4.0142,3.9766,3.9067,3.9217,3.9758,4.0167,4.0916,4.1689,4.1948,4.3128,4.4449,4.5263,4.6263,4.7307,4.8366,4.8373,4.8142,4.7976,4.798,4.7904,4.7569,4.7213,4.714,4.7758,4.6916,4.6256,4.6309,4.5873,4.5478,4.5389,4.5033,4.5102,4.5987,4.5384,4.5475,4.6624,4.6639,4.6683,4.6858,4.7135,4.7276,4.7234,4.6912,4.6747,4.6767,4.6214,4.5678,4.5213,4.4649,4.4689,4.5273,4.5477,4.5785,4.6157,4.5488,4.5278,4.5257,4.4323,4.3678,4.3329,4.3596,4.3729,4.3832,4.4026,4.4127,4.4205,0.0,0.0,2.6047,0.0,0.0,0.0,0.0,0.0,0.0,0.0,0.0,0.0,0.0,0.0,0.0,0.0,0.0,0.0,3.0929,3.16,3.2111,3.2347,3.282,3.3051,3.3051,3.2866,3.3025,3.3458,3.3018,3.3312,3.4284,3.5284,3.6128,3.6907,3.8529,3.9505,4.0006,4.0006,4.0345,4.0884,4.0189,4.0481,4.1288,4.1052,4.1443,4.2206,4.2662,4.2016,4.0949,4.0721,4.0072,3.9241,3.8901,3.9511,4.0467,4.1037,4.1667,4.2077,4.1961,4.271,4.3488,4.339,4.4642,4.6093,4.7038,4.7619,4.7843,4.7466,4.8397,4.8953,0.0,4.7582,4.7759,4.8378,4.7225,4.6388,4.6829,4.6358,4.588,4.5595,0.0,0.0,0.0,0.0,4.5911,4.6829,4.6712,4.6771,4.7222,4.7279,4.7094,4.6659,4.6808,4.6706,4.6278,4.6392,4.6376,4.6177,4.5082,4.4564,4.4564,4.4408,4.4438,4.468,4.3753,4.3868,4.4625,4.3693,4.329,4.3344,4.3596,4.3847,4.4026,4.4243,4.4435,4.4587,0.0,0.0,0.0,0.0,0.0,0.0,0.0,0.0,0.0,0.0,0.0,0.0,0.0,0.0,0.0,0.0,0.0,0.0,3.0951,3.1116,3.134,3.1566,3.1471,3.1249,3.0795,3.1374,3.1505,3.1307,3.1762,3.2164,3.2476,3.2934,3.3737,3.4813,3.5607,3.6334,3.6914,3.7131,3.7741,3.8559,3.8604,3.9207,4.0265,4.1429,4.1719,4.168,4.2876,4.2705,4.1796,4.143,4.04,3.9353,3.9788,3.9844,3.9878,4.0233,4.0705,4.105,4.1026,4.1469,4.2122,4.2932,4.3612,4.4484,4.6172,4.7003,4.7616,4.8173,4.8828,4.9238,4.888,4.8013,4.7552,4.8239,4.7155,4.6432,4.7121,4.6887,0.0,4.6565,0.0,4.6269,4.6358,4.618,4.6254,4.6873,4.6712,4.655,4.6476,4.6687,4.6894,4.7128,4.6209,4.5758,4.5771,4.5202,4.4801,4.4567,4.4267,4.4152,4.4167,4.4398,4.468,4.4895,4.4298,4.4288,4.4625,4.3693,4.3423,4.3596,4.3832,4.4065,4.4243,4.4473,4.4648,4.4799,0.0,0.0,0.0,0.0,0.0,0.0,0.0,0.0,0.0,0.0,0.0,0.0,0.0,0.0,0.0,0.0,0.0,0.0,0.0,3.0111,3.0116,3.0559,3.0079,2.9818,2.9827,3.0036,3.0144,2.996,2.9934,3.0067,3.0454,3.0762,3.1506,3.2711,3.3482,3.4379,3.5391,3.5537,3.6215,0.0,0.0,3.8647,3.9915,4.1156,4.1647,4.1837,4.2761,4.2625,4.1987,4.1846,4.0897,3.9821,4.0329,4.0177,3.9895,4.0216,0.0,4.0702,4.0702,4.0873,4.1256,4.1937,4.2389,4.3084,4.4655,4.6043,4.7106,4.7482,4.898,5.0004,4.9539,4.8805,4.8372,4.879,4.7643,4.6815,4.7251,4.7062,4.6916,0.0,4.68,0.0,4.6712,4.6535,4.6373,4.6356,4.6211,4.6167,4.624,4.609,4.6056,4.6123,4.5513,4.5192,4.5141,4.4695,4.4396,4.4243,4.4166,4.4127,4.4143,4.4155,4.4337,4.4534,4.4178,4.4178,4.4361,4.3747,4.3636,4.3832,4.3949,4.4127,4.4358,4.461,4.4799,4.4911,0.0,0.0,0.0,0.0,0.0,0.0,0.0,0.0,0.0,0.0,2.733,2.814,2.893,2.9433,0.0,0.0,0.0,0.0,0.0,0.0,2.8913,2.9588,2.8849,2.8741,2.9448,2.9093,2.889,2.8901,2.7963,2.7749,2.8267,2.8567,2.9412,3.065,3.1623,3.2923,3.4262,3.4372,3.5181,3.6379,3.7047,3.8163,3.9548,0.0,4.1025,4.1793,4.2192,4.2168,4.1915,4.2088,4.1341,4.0425,4.0728,4.0534,4.0265,4.059,4.0702,4.0702,4.0659,4.0659,4.0702,4.0887,4.1269,4.1861,4.2987,4.4976,4.6539,4.6474,4.9023,5.0969,4.9975,4.9704,4.9644,4.9704,0.0,4.7446,4.7459,4.7196,4.702,4.6975,4.6975,4.696,4.7019,4.6756,4.6373,4.581,4.5708,4.5793,4.6145,4.5612,4.5146,4.4745,4.4959,4.4976,4.471,4.4618,4.461,4.461,4.4435,4.432,4.4281,4.3949,4.3871,4.3988,4.3808,4.3793,4.391,4.3769,4.3793,4.3934,4.3988,4.4127,4.4396,4.4761,4.4911,4.4911,0.0,0.0,0.0,0.0,0.0,0.0,0.0,0.0,0.0,2.6256,2.679,2.7357,0.0,0.0,0.0,0.0,0.0,0.0,0.0,0.0,0.0,2.9034,2.8441,2.8334,2.8824,2.8764,2.8094,2.674,2.6994,2.6714,2.5918,2.6215,2.7134,2.8564,2.9159,3.0157,3.1376,3.2168,3.3226,3.4445,3.4928,3.5963,3.728,3.8342,0.0,0.0,4.0687,4.1603,4.2189,4.1925,4.138,4.0875,4.1329,4.1039,4.0604,4.0674,4.0702,4.0659,4.0515,4.0428,4.0471,4.0515,4.0702,4.1156,4.2224,4.4501,0.0,4.7244,4.9401,5.1159,5.0947,5.0344,4.9893,5.0062,4.9101,4.8222,4.8148,4.7926,4.7614,0.0,4.7207,4.7294,4.7452,4.6946,4.6635,4.6761,4.6192,4.5711,4.5412,4.5314,4.5358,4.5432,4.5471,4.5448,4.5418,4.4902,4.461,4.461,4.4572,4.4473,4.4281,4.4243,4.4127,4.3988,4.3949,4.3738,4.3423,4.3636,4.3714,4.3684,4.3895,4.4205,4.4587,4.4799,4.4911,4.4911,0.0,0.0,0.0,0.0,0.0,0.0,2.6188,2.6266,2.6354,2.624,2.6314,2.6672,2.7383,2.8103,2.8788,0.0,0.0,0.0,0.0,0.0,0.0,2.8333,2.7713,2.7758,2.858,2.8705,2.8277,2.7169,0.0,2.672,2.569,2.5741,2.6239,2.7103,2.7575,2.8644,3.0037,3.0526,3.156,3.2964,3.3734,3.4793,3.5923,0.0,0.0,0.0,0.0,4.0751,4.1137,4.1882,4.1641,4.105,4.1316,4.1619,4.1817,4.1318,4.1317,4.1411,4.1,4.0548,4.0255,4.0356,4.0544,4.0985,4.2053,0.0,0.0,4.742,4.9532,5.1214,5.1214,5.0583,5.0088,5.0166,4.9491,4.8759,4.8386,4.8193,4.7895,4.7384,4.7608,4.7755,4.7611,4.7404,4.721,4.7027,4.653,4.5938,4.5152,4.4807,4.4884,4.5432,4.5094,4.4987,4.5064,4.4779,4.461,4.461,4.4496,4.4473,4.4473,4.4243,4.422,4.432,4.4205,4.4011,4.3856,4.3949,4.4011,4.3996,4.4127,4.4358,4.4648,4.4927,4.5002,4.4949,0.0,0.0,0.0,0.0,0.0,0.0,2.6018,2.6271,2.6438,2.6218,2.6162,2.6402,2.7128,2.7555,2.8131,0.0,0.0,0.0,0.0,0.0,0.0,0.0,0.0,2.7372,2.843,0.0,0.0,2.7827,2.7299,0.0,0.0,0.0,0.0,0.0,2.6558,2.7705,2.9206,2.9429,3.0328,0.0,0.0,3.3886,0.0,0.0,0.0,0.0,0.0,3.9927,4.0307,4.1534,4.1603,4.126,4.1337,4.2126,4.2892,4.2214,4.2127,4.2175,4.158,4.0722,4.0053,4.0255,4.0414,4.0884,4.2224,4.4327,0.0,4.739,4.9367,5.0911,5.0911,5.0551,5.0268,5.0314,4.9911,4.9268,4.8416,4.8492,4.8267,0.0,4.7803,0.0,4.7742,4.7699,4.7549,4.7178,4.6674,4.6072,4.5392,4.4843,4.4952,4.5767,4.5139,4.4864,4.5041,4.4764,4.461,4.461,4.4435,4.4473,4.4572,4.4281,4.4281,4.4572,4.4435,4.432,4.4243,4.4281,4.4281,4.4243,4.4281,4.4435,4.4663,4.5055,4.5055,4.4911,0.0,0.0,0.0,0.0,0.0,0.0,2.5423,2.5871,2.6145,2.6216,2.6563,2.6839,2.6926,2.7034,2.7213,0.0,0.0,0.0,0.0,0.0,0.0,0.0,0.0,0.0,0.0,0.0,0.0,2.6854,2.5986,0.0,0.0,0.0,0.0,0.0,0.0,2.7205,2.8204,2.9085,0.0,0.0,0.0,0.0,0.0,0.0,0.0,0.0,0.0,3.9335,4.0986,0.0,0.0,4.1679,4.1788,4.24,4.3101,4.3266,0.0,0.0,4.1973,4.0938,4.0009,4.0053,4.0039,4.0606,4.2721,0.0,4.5595,4.7257,4.8873,5.0022,5.0022,5.028,5.0526,5.0718,5.0562,4.991,4.8506,4.9133,4.8939,4.6668,0.0,0.0,4.7998,4.7367,4.7141,4.7502,4.6386,4.5909,4.6441,4.6394,4.6687,4.7363,4.6733,4.6419,4.6419,4.5187,4.461,4.461,4.4572,4.4572,4.461,4.4572,4.4587,4.461,4.4587,4.4358,4.405,4.4205,4.4205,4.4065,4.4243,4.4435,4.4663,4.5055,4.498,4.4723,0.0,0.0,0.0,0.0,0.0,0.0,2.5615,2.5945,2.6173,2.6207,2.627,2.6416,2.6712,2.6745,2.7139,2.8077,2.7735,0.0,0.0,0.0,0.0,0.0,0.0,0.0,0.0,0.0,2.7271,2.6745,2.5934,0.0,0.0,0.0,0.0,0.0,0.0,2.6801,2.7619,2.8182,0.0,0.0,0.0,0.0,0.0,0.0,0.0,0.0,0.0,0.0,3.9511,4.003,0.0,0.0,4.2239,4.3348,0.0,0.0,4.3784,4.3366,4.2791,4.127,3.9848,3.9966,3.9996,4.063,4.3083,4.4366,4.5595,4.7698,4.8957,4.9639,4.9639,4.9799,4.9796,4.9491,4.9291,4.8968,4.8401,4.8656,4.8596,4.7623,4.8099,0.0,0.0,4.7262,4.7084,4.701,4.6126,4.588,4.6557,4.5818,4.5695,4.6372,4.5741,4.5387,4.5387,4.4887,4.461,4.461,4.4473,4.4473,4.4587,4.4473,4.4511,4.461,4.461,4.4266,4.3801,4.4266,4.4205,4.3801,4.4305,4.4534,4.461,4.4927,4.4852,4.4701,0.0,0.0,0.0,0.0,0.0,2.5135,2.5654,2.5921,2.6075,2.6093,2.6142,2.6331,2.678,2.7053,2.7734,2.8858,2.8021,0.0,0.0,0.0,0.0,0.0,0.0,0.0,0.0,0.0,2.6998,2.6714,2.565,2.4888,0.0,0.0,2.43,2.4565,0.0,0.0,0.0,0.0,0.0,0.0,0.0,0.0,0.0,0.0,0.0,0.0,0.0,0.0,0.0,0.0,0.0,0.0,0.0,0.0,0.0,0.0,4.4738,4.4344,4.3789,4.2205,4.0735,4.0899,4.1068,4.182,4.4032,4.4912,4.5798,4.7815,4.863,4.9107,4.9314,4.925,4.9056,4.8599,4.8342,4.8044,4.7655,4.7819,4.7997,4.7997,0.0,4.7792,4.7519,4.7361,4.7074,4.6435,4.5878,4.5764,4.6082,4.5164,4.4987,4.5849,4.5418,4.508,4.4918,4.4918,4.4825,4.461,4.4473,4.4458,4.4587,4.4473,4.4504,4.4672,4.4626,4.4457,4.4187,4.4511,4.4388,4.4128,4.4458,4.461,4.461,4.4836,4.4761,4.4701,0.0,0.0,0.0,0.0,0.0,2.4189,2.5341,2.5661,2.585,2.5883,2.6469,2.6974,2.725,2.8188,2.8959,2.9441,2.8583,0.0,0.0,0.0,0.0,0.0,0.0,0.0,2.6911,2.64,2.6255,2.6506,2.4775,2.4182,2.4679,2.3875,2.3788,2.4345,0.0,0.0,0.0,0.0,0.0,0.0,0.0,0.0,3.4784,0.0,0.0,0.0,0.0,0.0,0.0,0.0,0.0,0.0,0.0,4.375,4.4916,4.5972,4.5816,4.5214,4.5023,4.4054,4.3046,4.3046,4.358,4.4396,4.5751,4.5936,4.6101,4.7285,4.7747,4.8119,4.8803,4.8678,4.8525,4.8571,4.8192,4.7436,4.6202,4.6761,4.7309,0.0,4.6741,4.6931,4.8424,4.7821,4.6921,4.5961,4.5721,4.5393,4.4934,4.4726,4.5187,4.6542,4.6573,4.6249,4.5588,4.5572,4.5249,4.461,4.461,4.461,4.461,4.461,4.471,4.4889,4.4688,4.4952,4.5529,4.4871,4.4872,4.5244,4.4772,4.461,4.461,4.4836,4.4761,4.4701,0.0,0.0,0.0,0.0,0.0,0.0,2.5436,2.5624,2.5721,2.5884,2.5984,2.6334,2.7228,2.7911,2.8689,2.9669,2.9305,0.0,0.0,0.0,0.0,0.0,0.0,2.7225,2.69,2.6544,2.64,2.6496,2.4848,2.4245,2.4528,2.3941,2.3843,2.4196,2.5246,2.6162,0.0,0.0,0.0,0.0,0.0,3.3339,3.4372,0.0,0.0,0.0,0.0,0.0,0.0,0.0,0.0,0.0,0.0,0.0,0.0,4.6084,4.583,4.5276,4.5228,4.4023,4.2859,4.3252,4.3688,4.4514,4.6569,4.6543,4.6517,4.8131,4.8178,4.7956,4.8179,4.8163,4.8118,4.8118,4.7762,4.7372,4.6954,0.0,0.0,4.7923,4.7237,4.6698,4.6751,4.5984,4.5439,4.5486,4.5125,4.4857,4.4703,4.4619,4.4772,4.5203,4.5664,4.5803,4.5588,4.5588,4.548,4.5264,4.4803,4.461,4.461,4.461,4.4619,4.4688,4.4641,4.4395,4.4048,4.445,4.4327,4.3986,4.4435,4.4685,4.4799,4.4874,4.4964,4.5055,0.0,0.0,0.0,0.0,0.0,0.0,2.5338,2.5601,2.5728,2.577,2.5728,2.6063,2.6933,2.7732,2.8574,2.9523,2.9897,0.0,0.0,0.0,0.0,0.0,2.7951,2.7584,2.7177,2.6842,2.6496,2.6197,2.528,2.4638,2.4341,2.419,2.4204,2.4345,2.4988,2.5887,0.0,0.0,0.0,0.0,3.2221,3.3552,3.4619,0.0,0.0,0.0,0.0,0.0,0.0,0.0,0.0,0.0,0.0,0.0,0.0,0.0,4.626,4.5901,4.5737,4.4678,4.374,4.4213,4.4882,4.5806,4.7268,4.7342,4.727,4.788,4.7585,4.7243,4.7407,4.708,4.6961,4.7318,4.7137,4.6892,4.6834,0.0,0.0,4.6569,4.7099,4.686,4.5464,4.519,4.5078,4.5025,4.4856,4.4723,4.4723,4.4723,4.4723,4.4723,4.5519,4.5849,4.5588,4.5834,4.5834,4.5572,4.501,4.4685,4.461,4.4685,4.471,4.471,4.4619,4.4479,0.0,4.4519,4.4419,4.4204,4.4488,4.4685,4.4799,4.4874,4.4964,4.5129,0.0,0.0,0.0,0.0,0.0,0.0,2.5158,2.5666,2.591,2.5708,2.5824,2.6093,2.6584,2.7695,2.8614,2.9148,3.0289,0.0,0.0,0.0,0.0,2.9531,2.8595,2.7951,2.7631,2.7177,2.6564,2.5791,2.5924,2.5377,2.4275,2.4601,2.4776,2.4748,2.4659,2.5409,0.0,0.0,0.0,0.0,3.2533,3.3977,0.0,0.0,0.0,0.0,0.0,0.0,0.0,0.0,0.0,0.0,0.0,0.0,0.0,0.0,0.0,0.0,0.0,4.5906,4.5447,4.5784,4.6894,4.7889,4.7876,4.8187,0.0,4.6993,4.6399,4.6218,4.6608,4.5821,4.5448,4.6535,4.6514,4.6282,4.6051,4.5672,4.5072,4.4033,4.6521,4.731,4.48,4.5321,4.5483,4.4741,4.4792,4.4874,4.4911,4.4874,4.4874,4.4911,4.5951,4.6219,4.5588,4.6203,4.6203,4.5572,4.5124,4.4799,4.4587,4.4799,4.4872,4.4868,4.4657,4.5024,4.5718,4.4941,4.4972,4.5456,4.4833,4.461,4.4648,4.4836,4.4911,4.5002,0.0,0.0,0.0,0.0,0.0,0.0,0.0,0.0,0.0,0.0,2.6281,2.6422,2.7053,2.8092,2.9036,0.0,0.0,0.0,0.0,0.0,0.0,2.984,2.9405,2.8746,2.7904,2.7452,2.7043,2.6793,2.6,2.5661,2.5675,2.4945,2.4792,2.5225,2.5479,2.6574,0.0,0.0,0.0,0.0,3.2661,3.3785,0.0,0.0,0.0,0.0,3.8273,3.889,0.0,0.0,0.0,0.0,0.0,0.0,0.0,0.0,4.6851,4.6835,4.7429,0.0,4.6087,4.6943,4.6976,4.7192,0.0,4.8219,4.7821,4.8058,4.7519,4.7071,4.7307,4.6621,4.6388,4.7701,4.7417,4.6862,4.6311,4.6578,4.6683,4.6256,4.7269,4.7676,4.689,4.566,4.5026,4.5333,4.4918,4.4723,4.4874,4.4761,4.4723,4.4911,4.5503,4.5757,4.5588,4.5757,4.5663,4.5353,4.5048,4.4723,4.4396,4.4723,4.4816,4.4649,4.4458,4.4503,4.4686,4.4634,4.4603,4.4626,4.4747,4.4836,4.4836,4.4874,4.5114,4.5352,0.0,0.0,0.0,0.0,0.0,0.0,0.0,0.0,0.0,0.0,2.6585,2.6672,2.7261,2.8105,2.8891,0.0,0.0,0.0,0.0,3.1407,3.1095,3.0556,3.0011,2.9312,2.8513,2.8126,2.7627,2.6943,2.6899,2.6596,2.6017,2.585,2.594,2.6215,2.7168,2.8039,2.8937,3.0369,3.134,3.2135,3.3258,0.0,0.0,0.0,0.0,0.0,3.7883,3.8612,0.0,4.0482,4.1423,4.2289,0.0,0.0,0.0,0.0,4.7018,4.7296,4.7975,4.73,4.6481,4.6962,4.7108,4.7416,4.8615,4.8602,4.8462,0.0,0.0,0.0,4.7946,4.7021,4.6636,4.7682,4.7351,4.6734,4.6059,4.6269,4.6346,4.5935,4.6523,4.6891,4.6572,4.5572,4.5018,4.5256,4.5031,4.4964,4.5151,4.5077,4.5039,4.5151,4.5321,4.5549,4.5881,4.5766,4.5665,4.5572,4.529,4.4927,4.4473,4.4852,4.4889,4.4572,4.4396,4.4396,4.4572,4.4496,4.4511,4.4587,4.4723,4.4761,4.4761,4.4874,4.5077,4.5368,0.0,0.0,0.0,0.0,0.0,0.0,0.0,0.0,0.0,0.0,0.0,0.0,0.0,0.0,0.0,0.0,0.0,0.0,3.135,3.1528,3.1572,3.135,3.051,2.9737,2.9174,2.8895,2.815,2.6933,2.7912,2.7636,2.6206,2.6941,2.7273,2.7341,2.8928,2.9518,2.9425,3.1086,3.2089,3.2717,3.3953,0.0,0.0,0.0,0.0,0.0,0.0,0.0,0.0,4.007,4.0995,4.1861,4.3239,0.0,0.0,0.0,0.0,0.0,4.8316,4.7745,4.6928,4.6692,4.7059,4.7617,4.817,0.0,0.0,0.0,0.0,0.0,0.0,4.7332,0.0,4.7231,4.6849,4.6271,4.583,4.5679,4.5524,4.5122,4.5571,4.5829,4.5504,4.5314,4.5141,4.492,4.5055,4.5241,4.5442,4.5442,4.5426,4.5442,4.5294,4.5485,4.6084,4.5894,4.578,4.5688,4.5522,4.5167,4.4648,4.5017,4.5017,4.4701,4.4473,4.461,4.4927,4.4587,4.461,4.4874,4.4739,4.4663,4.461,4.4799,4.5002,4.522,0.0,0.0,0.0,0.0,0.0,0.0,0.0,0.0,0.0,0.0,0.0,0.0,0.0,0.0,0.0,0.0,0.0,0.0,3.1617,3.1439,3.1439,3.1617,3.0892,3.017,2.9439,2.919,2.868,2.7975,2.8053,2.8045,2.7873,2.7299,2.7416,2.8061,2.9279,3.0135,3.083,3.2025,3.2696,3.3105,3.3911,0.0,0.0,0.0,0.0,0.0,0.0,0.0,0.0,3.9927,4.0989,4.1571,4.3387,0.0,0.0,0.0,0.0,0.0,4.8878,4.8876,4.8182,4.7405,4.6637,4.6218,4.6711,4.6783,0.0,0.0,0.0,0.0,0.0,4.79,4.7065,4.7475,4.6542,4.5936,4.6376,4.612,4.6176,4.7051,4.6613,4.6203,4.6137,4.5434,4.496,4.4911,4.4911,4.5039,4.5257,4.5077,4.5077,4.5257,4.522,4.5341,4.5583,4.5397,4.5135,4.4802,4.5101,4.5092,4.4874,4.5092,4.5182,4.5108,4.4889,4.4927,4.5129,4.5114,4.4986,4.4911,4.5055,4.4905,4.461,4.4648,4.4889,4.5257,0.0,0.0,0.0,0.0,0.0,0.0,0.0,0.0,0.0,0.0,0.0,0.0,0.0,0.0,0.0,0.0,3.0532,3.1038,3.1661,3.1673,3.1661,3.1705,3.1395,3.0931,3.0341,2.9991,2.9514,2.8788,2.8816,2.8658,2.8301,2.8083,2.8416,2.9207,2.9982,3.0809,3.1781,3.2431,3.2955,3.344,0.0,0.0,0.0,0.0,0.0,0.0,0.0,0.0,0.0,0.0,4.0623,4.1354,4.3359,0.0,0.0,0.0,0.0,0.0,4.8713,4.9295,4.9413,4.8404,4.7347,4.6516,4.643,4.6416,0.0,0.0,0.0,0.0,0.0,4.8324,4.7539,4.6989,4.5667,4.487,4.5308,4.516,4.5327,4.6111,4.569,4.5485,4.5764,4.5133,4.4852,4.5055,4.5055,4.5204,4.5515,4.5426,4.5426,4.5515,4.5515,4.5515,4.5515,4.5515,4.5368,4.5092,4.5278,4.5204,4.4911,4.5002,4.4964,4.4852,4.4663,4.4739,4.5039,4.4927,4.4964,4.5055,4.5039,4.4927,4.4761,4.4889,4.5092,4.5405,0.0,0.0,0.0,0.0,0.0,0.0,0.0,0.0,0.0,0.0,0.0,0.0,0.0,0.0,0.0,0.0,3.0544,3.1026,3.1572,3.1805,3.1849,3.1717,3.1705,3.1499,3.1101,3.0695,3.0171,2.9505,2.9538,2.9245,2.8564,2.8932,2.9429,3.0083,3.0588,3.1261,3.2076,3.2524,3.2918,3.3286,0.0,0.0,0.0,0.0,0.0,0.0,0.0,0.0,0.0,0.0,0.0,0.0,0.0,0.0,0.0,4.5806,4.6972,4.7944,4.8351,4.9062,4.9476,4.8744,4.8087,4.7419,4.6759,4.6665,4.6978,0.0,0.0,0.0,0.0,4.8373,4.765,4.615,4.5135,4.4554,4.4541,4.4488,4.4603,4.5096,4.4887,4.4879,4.524,4.4987,4.4927,4.5182,4.5257,4.5405,4.5698,4.5735,4.5735,4.5735,4.5771,4.5698,4.5515,4.5698,4.5662,4.5442,4.5478,4.5352,4.5039,4.5039,4.4986,4.4889,4.4701,4.4814,4.5039,4.4927,4.4964,4.5129,4.5002,4.4911,4.4874,4.5092,4.5294,4.5478,0.0,0.0,0.0,0.0,0.0,0.0,0.0,0.0,0.0,0.0,0.0,0.0,0.0,0.0,0.0,0.0,3.0363,3.0802,3.1306,3.1572,3.1705,3.1705,3.1705,3.1544,3.1286,3.0791,3.0368,3.0024,2.9756,2.9513,2.9342,2.9633,2.9918,3.0213,3.0821,3.1194,3.1441,3.2342,3.2457,3.2197,3.3065,0.0,0.0,0.0,0.0,0.0,0.0,0.0,0.0,0.0,0.0,0.0,0.0,0.0,4.4583,4.5851,4.6417,4.6963,4.8015,4.7747,4.7228,4.7617,4.8238,4.8536,4.7692,4.7223,4.7232,4.8122,0.0,0.0,0.0,4.7802,4.6994,4.5049,4.55,4.5917,4.5306,4.501,4.5024,4.5518,4.5339,4.5161,4.5207,4.5362,4.5368,4.522,4.5368,4.5478,4.5515,4.5515,4.5515,4.5515,4.5698,4.5698,4.5515,4.5698,4.5589,4.522,4.5405,4.5478,4.5478,4.5478,4.5552,4.5698,4.5698,4.5589,4.5478,4.5662,4.5389,4.4949,4.5092,4.4942,4.4663,4.5055,4.522,4.5294,0.0,0.0,0.0,0.0,0.0,0.0,0.0,0.0,0.0,0.0,0.0,2.9731,2.9521,0.0,0.0,0.0,3.0057,3.0499,3.1261,3.1693,3.1869,3.1893,3.2038,3.2103,3.1988,3.1314,3.0893,3.0785,2.9776,2.9381,2.95,2.9233,2.9347,2.9721,3.0033,3.0455,3.0948,3.1552,3.2089,3.2493,3.3001,3.3673,0.0,0.0,0.0,0.0,0.0,0.0,0.0,0.0,4.0782,4.1005,4.3255,4.4256,4.4801,4.5896,4.6771,4.7555,4.8133,4.8431,4.8624,4.8815,4.8876,4.8648,0.0,4.663,4.6213,4.7058,4.6979,0.0,0.0,4.6531,4.5889,4.5303,4.5241,4.521,4.5079,4.4969,4.502,4.5315,4.5263,4.5257,4.5373,4.5352,4.5405,4.5552,4.5515,4.5625,4.5844,4.588,4.588,4.588,4.5952,4.588,4.5698,4.5771,4.5662,4.5405,4.5331,4.5241,4.5114,4.5114,4.5151,4.5225,4.5225,4.5278,4.5331,4.5405,4.5278,4.5092,4.5039,4.5017,4.498,4.5145,4.5368,4.5589,0.0,0.0,0.0,0.0,0.0,0.0,0.0,0.0,3.0232,0.0,0.0,0.0,0.0,2.9722,0.0,0.0,2.9839,3.0193,3.0904,3.1383,3.1693,3.1761,3.2038,3.2236,3.2306,3.1832,3.154,3.1316,3.0089,2.9625,2.9768,2.9318,2.9329,2.9798,3.0158,3.0502,3.0908,3.1589,3.2055,3.2446,3.2813,3.3391,0.0,0.0,0.0,0.0,0.0,0.0,0.0,0.0,4.0809,4.0985,4.2752,4.384,4.4613,4.5547,4.6491,4.7435,4.7951,4.8201,4.8451,4.8793,4.8468,0.0,4.7762,4.664,4.5877,4.6535,4.6245,4.5998,4.6384,4.5988,4.5572,4.5502,4.5256,4.5084,4.4996,4.5039,4.5151,4.5294,4.5368,4.5426,4.5594,4.5463,4.5515,4.588,4.5771,4.5844,4.6168,4.6152,4.6152,4.6152,4.6096,4.604,4.5896,4.5771,4.5625,4.5515,4.5294,4.5129,4.5002,4.5077,4.5077,4.5077,4.5077,4.5167,4.5294,4.522,4.5182,4.5092,4.4874,4.4889,4.5017,4.5129,4.5368,4.5625,0.0,0.0,0.0,0.0,0.0,0.0,0.0,0.0,3.0879,3.1178,3.0809,0.0,0.0,0.0,0.0,0.0,2.9695,2.9977,3.017,3.0634,3.1038,3.1306,3.1572,3.1824,3.2112,3.2358,3.2212,3.1582,3.0818,3.0317,3.0184,3.0043,3.0224,3.0631,3.1461,3.1604,3.1373,3.2561,3.2561,3.1862,3.2265,3.258,3.2968,0.0,0.0,0.0,0.0,0.0,0.0,0.0,4.0488,4.0836,4.1576,4.2754,4.3958,4.4702,4.5448,4.623,4.7315,4.6659,4.5995,4.7043,4.6773,0.0,4.824,4.7502,4.6573,4.6865,4.667,4.6451,4.624,4.6338,4.621,4.5329,4.5765,4.5953,4.5313,4.5368,4.5515,4.5515,4.5662,4.5807,4.5807,4.5807,4.588,4.6112,4.6112,4.6168,4.6314,4.6298,4.6298,4.6298,4.6152,4.6096,4.6112,4.5698,4.5515,4.5515,4.5294,4.5182,4.522,4.5405,4.5515,4.5515,4.5515,4.5515,4.5478,4.5294,4.5092,4.4874,4.4685,4.461,4.4663,4.5055,4.5182,4.5257,0.0,0.0,0.0,0.0,0.0,0.0,0.0,0.0,3.1127,3.1178,3.1254,0.0,0.0,0.0,0.0,0.0,0.0,0.0,3.0465,3.0758,3.1083,3.1572,3.1661,3.1789,3.2035,3.2319,3.2289,3.1895,3.1103,3.0579,3.0338,3.0109,3.0005,3.0088,3.0809,3.0929,3.0582,3.1913,3.2227,3.1835,3.237,3.2584,3.2712,0.0,0.0,0.0,0.0,0.0,0.0,0.0,0.0,0.0,4.2052,4.349,4.4755,4.4877,4.5975,4.7079,4.6921,4.6853,4.6803,4.6651,4.6557,4.6616,0.0,4.663,0.0,0.0,4.6327,4.6278,4.6202,4.6262,4.6059,4.5329,4.5391,4.5512,4.562,4.5552,4.5646,4.6028,4.59,4.5936,4.6333,4.6008,4.5972,4.6404,4.6223,4.6223,4.6493,4.6528,4.6528,4.6528,4.6474,4.6349,4.6112,4.6004,4.5771,4.5515,4.5442,4.5331,4.522,4.5405,4.5515,4.5515,4.5515,4.5405,4.5257,4.4927,4.4814,4.4874,4.4685,4.4776,4.5017,4.5145,4.5368,4.5625,0.0,0.0,0.0,0.0,0.0,0.0,3.1338,3.1365,3.1449,3.1655,3.1647,3.1458,0.0,0.0,0.0,0.0,0.0,0.0,3.0159,3.0442,3.0904,3.1528,3.1528,3.1757,3.2309,3.2528,3.2545,3.2332,3.1636,3.1064,3.0703,3.0349,3.0116,3.014,3.0838,3.1027,3.0841,3.202,3.2246,3.1845,3.2477,3.2323,3.1972,0.0,0.0,0.0,0.0,0.0,0.0,0.0,0.0,0.0,4.1063,4.2572,4.4027,4.4281,4.5416,4.6584,4.6731,4.6822,4.6829,4.6511,4.6564,4.6607,4.6238,0.0,0.0,0.0,4.6376,4.6351,4.6084,4.6022,4.5896,4.5504,4.5442,4.5515,4.5787,4.5698,4.5735,4.6064,4.5972,4.606,4.6385,4.6116,4.6116,4.6563,4.6349,4.6349,4.6703,4.6738,4.6738,4.6738,4.6652,4.6458,4.6187,4.606,4.5844,4.5625,4.5552,4.5478,4.5442,4.5478,4.5515,4.5515,4.5515,4.5405,4.5182,4.4852,4.4799,4.4874,4.4685,4.4739,4.498,4.5145,4.5368,4.5589,0.0,0.0,3.2354,3.2842,0.0,0.0,3.2015,3.1848,3.1924,3.2383,3.2001,3.1592,0.0,0.0,0.0,2.9985,0.0,0.0,2.9632,3.0057,3.059,3.1261,3.135,3.18,3.2755,3.2783,3.2839,3.2875,3.2385,3.1841,3.1206,3.0785,3.0664,3.0826,3.1434,3.1662,3.1676,3.258,3.2465,3.1782,3.2416,3.1937,3.1096,3.3447,0.0,0.0,0.0,0.0,0.0,0.0,0.0,0.0,3.928,4.0628,4.2337,4.3313,4.4264,4.5275,4.6634,4.6656,4.6389,4.6526,4.6693,4.6649,4.5937,4.6495,4.6997,4.6551,4.6607,4.656,4.5934,4.5818,4.585,4.5823,4.5807,4.5807,4.5807,4.5807,4.5807,4.5844,4.5988,4.6096,4.6112,4.6096,4.6259,4.6598,4.6423,4.6493,4.6876,4.6876,4.6876,4.6876,4.6738,4.6528,4.6333,4.6008,4.5807,4.5807,4.5589,4.5589,4.5771,4.5589,4.5515,4.5515,4.5515,4.5405,4.522,4.5002,4.4865,4.4781,4.4593,4.4486,4.4478,4.4868,4.5064,4.52,0.0,0.0,3.3648,3.3872,0.0,0.0,3.3009,3.2846,3.2798,3.296,3.2514,3.2219,3.2167,3.1525,0.0,3.097,3.0976,0.0,3.0405,3.087,3.1122,3.1085,3.1584,3.2042,3.2472,3.291,3.3205,3.3446,3.3305,3.2658,3.1501,3.1838,3.2066,3.2191,3.242,3.2298,3.1946,3.2836,3.2411,3.1162,3.1865,3.185,3.1497,3.2609,3.3852,0.0,0.0,0.0,0.0,0.0,0.0,0.0,3.9275,4.055,4.2067,4.3063,4.4515,4.5955,4.6781,4.69,4.6662,4.616,4.6191,4.6623,4.7597,4.7213,4.6536,4.6045,4.6292,4.6412,4.5897,4.6087,4.6223,4.585,4.5807,4.5859,4.6004,4.5896,4.5916,4.6171,4.6132,4.6132,4.6243,4.6243,4.6333,4.6582,4.6563,4.6633,4.6892,4.6876,4.6876,4.6876,4.6858,4.6738,4.6528,4.6191,4.5972,4.5807,4.5589,4.5515,4.5552,4.5662,4.5735,4.5735,4.5552,4.5478,4.5405,4.5039,4.458,4.4115,4.3899,4.359,4.3273,4.3474,4.4033,4.4663,0.0,0.0,0.0,0.0,0.0,0.0,0.0,0.0,3.3201,3.3388,3.282,3.2383,3.2383,3.178,0.0,0.0,3.1318,3.1352,3.1009,3.1435,3.1727,3.1722,3.2358,3.2734,3.2736,3.327,3.3603,3.374,3.424,3.392,3.2746,3.2637,3.2721,3.2847,3.2583,3.2325,3.2122,3.2572,3.2205,3.1371,3.2114,3.2185,3.1963,3.3045,3.4016,3.4944,3.5831,0.0,0.0,0.0,0.0,0.0,0.0,0.0,4.0777,4.2081,4.3272,4.4508,4.5932,4.6153,4.5995,4.6013,0.0,4.6971,4.7554,4.7211,4.6745,4.658,4.6334,4.6071,4.5834,4.6019,4.6108,4.5979,4.5844,4.588,4.6076,4.6004,4.6024,4.6187,4.6278,4.6385,4.6423,4.6423,4.6528,4.6738,4.6652,4.6703,4.6876,4.6876,4.6858,4.6772,4.6772,4.6668,4.6458,4.6207,4.606,4.5952,4.5735,4.5698,4.5771,4.5823,4.5807,4.5807,4.5771,4.5771,4.5771,4.5463,4.5133,4.4768,4.4101,4.3686,4.3454,4.331,4.378,4.4483,0.0,0.0,0.0,0.0,0.0,0.0,0.0,0.0,0.0,3.3813,3.3116,3.2549,3.2514,3.2003,3.1502,0.0,0.0,0.0,3.1652,3.2063,3.2441,3.2747,3.331,3.3507,3.3232,3.3702,3.3991,3.4092,3.4964,3.5065,3.4515,3.3699,3.3418,3.3637,3.2913,3.2559,3.2652,3.2512,3.2211,3.1888,3.2508,3.2577,3.2356,3.366,3.4217,3.459,3.6171,3.6449,3.6305,3.7761,0.0,0.0,0.0,0.0,3.9349,4.1065,4.1848,4.2667,4.4914,4.5299,4.529,4.605,4.672,0.0,4.6898,4.6929,4.7068,4.7213,4.6514,4.588,4.59,4.59,4.5952,4.6076,4.5968,4.5916,4.6096,4.6096,4.6112,4.6132,4.6404,4.6582,4.6563,4.6617,4.6703,4.6842,4.6738,4.6722,4.6876,4.6876,4.6807,4.6617,4.6617,4.6563,4.6369,4.6187,4.6096,4.6132,4.5916,4.5932,4.6096,4.5789,4.5717,4.5916,4.606,4.6132,4.6132,4.5916,4.5765,4.5518,4.4418,4.3878,4.3706,4.3216,4.3553,4.4279,0.0,0.0,0.0,0.0,0.0,0.0,0.0,0.0,0.0,0.0,3.357,3.3182,3.3027,3.2347,3.1962,3.2162,3.2493,3.2689,3.2711,0.0,0.0,3.3762,3.4127,3.415,3.3809,3.4022,3.4432,3.4939,3.4853,3.5453,3.6735,3.5695,3.538,3.5589,3.5045,3.4603,3.4333,3.3846,3.3149,3.2332,3.2356,3.2353,3.2414,3.3093,3.3805,3.459,3.5963,3.6419,3.65,3.7412,3.7714,0.0,0.0,0.0,3.9116,4.0881,4.17,4.2482,4.4539,0.0,4.5665,0.0,4.6255,4.6202,0.0,0.0,4.6657,4.6692,4.6468,4.6227,4.623,4.6211,4.6207,4.6096,4.6076,4.6096,4.6243,4.6152,4.6132,4.6243,4.6474,4.6528,4.6369,4.6649,4.6807,4.6652,4.6772,4.6876,4.6876,4.6876,4.6807,4.6617,4.6772,4.6772,4.6547,4.6262,4.6171,4.6278,4.5936,4.5932,4.6096,4.5409,4.5511,4.6227,4.6278,4.6262,4.6278,4.6136,4.5607,4.4843,4.389,4.302,4.2306,4.1789,4.2422,4.3572,0.0,0.0,0.0,0.0,0.0,0.0,0.0,0.0,0.0,0.0,0.0,3.3225,3.2846,3.2781,3.2752,3.2656,3.3124,3.3552,3.3711,3.4258,3.4538,3.4465,3.4537,3.4474,3.4305,3.4048,3.4459,3.55,3.522,3.5962,3.7651,3.7169,3.7019,3.7086,3.6256,3.5713,3.5346,3.4818,3.3899,3.2842,3.3119,3.3189,3.3119,3.341,3.4067,3.5011,3.6227,3.6564,3.6633,3.8253,3.8225,3.7618,3.8064,0.0,0.0,0.0,4.1028,4.1921,4.3336,4.4564,4.5418,0.0,4.5816,4.6366,4.6961,4.7077,4.7123,4.744,4.7028,4.6598,4.6477,4.6298,4.6187,4.6223,4.6223,4.6243,4.6298,4.6349,4.6404,4.6458,4.6633,4.6738,4.6633,4.6789,4.6842,4.6772,4.6842,4.6876,4.6876,4.6876,4.6807,4.6617,4.6703,4.6703,4.6582,4.6278,4.608,4.6008,4.5988,4.5988,4.6096,4.5943,4.5856,4.5725,4.5429,4.5303,4.5335,4.5667,4.5341,4.4583,4.4042,4.3316,4.2516,4.2284,4.2787,4.3684,0.0,0.0,0.0,0.0,0.0,0.0,0.0,0.0,0.0,0.0,0.0,3.3367,3.2943,0.0,0.0,0.0,3.3566,3.3891,3.4101,3.4895,3.5178,3.4637,3.4666,3.4641,3.4523,3.4118,3.4517,3.5797,3.5576,3.6335,3.7961,3.8066,3.8177,3.8279,3.7445,3.6744,3.6165,3.581,3.4945,3.3973,3.4546,3.444,3.4047,3.4784,3.51,3.5414,3.712,3.7343,3.7105,3.8999,3.8877,3.7991,3.83,3.8987,0.0,0.0,0.0,4.1605,4.2415,0.0,4.4697,4.4557,4.5375,4.6275,0.0,4.6881,4.7159,4.7758,4.7207,4.6666,4.674,4.6525,4.633,4.6369,4.6369,4.6404,4.6439,4.6528,4.6617,4.6668,4.6807,4.6876,4.6876,4.6876,4.6876,4.6876,4.6876,4.6876,4.6876,4.6876,4.6807,4.6617,4.6652,4.6652,4.6582,4.6314,4.6024,4.5807,4.5952,4.604,4.6096,4.6141,4.5913,4.5381,4.5198,4.5105,4.5153,4.5685,4.5491,4.4763,4.4403,4.3722,4.2983,4.29,4.326,4.3936,0.0,0.0,0.0,0.0,0.0,0.0,0.0,0.0,0.0,0.0,0.0,3.4017,3.383,3.3618,3.3724,3.4272,3.3642,3.3255,3.3358,3.4295,3.4613,3.4072,3.4466,0.0,3.4235,3.4428,3.4958,3.5815,3.5797,3.6509,3.791,3.8242,3.8642,3.9164,3.9062,3.8299,3.7024,3.7078,3.6601,3.5951,3.678,3.6159,3.5028,3.7709,3.7284,3.5629,3.8887,3.9166,3.813,3.902,3.9583,3.9753,3.8664,3.9096,4.007,0.0,0.0,0.0,0.0,4.2758,0.0,4.4127,4.4792,4.5383,4.5782,4.5885,4.6081,4.683,4.6374,4.615,4.7019,4.6996,4.6823,4.6617,4.6582,4.6668,4.6842,4.6703,4.6668,4.6842,4.6876,4.6876,4.6876,4.6876,4.6876,4.6876,4.6876,4.6876,4.6876,4.6876,4.6807,4.6617,4.6772,4.6807,4.6582,4.6404,4.6136,4.5807,4.5807,4.5932,4.608,4.538,4.5256,4.5617,4.6435,4.6779,4.6779,4.6811,4.632,4.5456,4.478,4.3955,4.3147,4.2983,4.3377,4.4058,0.0,0.0,0.0,0.0,0.0,0.0,0.0,0.0,0.0,0.0,0.0,0.0,0.0,3.4907,3.5024,3.493,3.4799,3.4667,3.4533,3.518,3.5328,3.4783,3.4881,3.4787,3.4466,3.4324,3.4839,3.5978,3.5696,3.6347,3.7932,3.8227,3.8503,3.871,3.9242,3.9165,3.8692,3.854,3.7836,3.6789,3.7086,3.6925,3.645,3.6952,3.6991,3.694,3.7954,3.8584,3.8961,3.9373,4.0389,4.1221,4.0098,4.0563,4.1493,4.1293,4.146,4.1736,0.0,0.0,0.0,4.3669,4.4006,4.4334,4.4953,4.4875,4.4934,4.6049,4.5662,4.5549,4.6785,4.6842,4.6687,4.6617,4.6703,4.6772,4.6703,4.6772,4.6807,4.6876,4.6471,4.618,4.618,4.5791,4.5726,4.6164,4.618,4.639,4.686,4.6876,4.6876,4.6807,4.6842,4.6738,4.6404,4.6333,4.6136,4.5807,4.5807,4.5844,4.5916,4.5754,4.584,4.6086,4.6537,4.6272,4.5532,4.5532,4.5094,4.4349,4.409,4.3652,4.3277,4.3727,4.4234,4.4779,0.0,0.0,0.0,3.7292,0.0,3.6483,3.6526,3.6254,3.5982,3.6091,0.0,0.0,0.0,0.0,3.5795,3.5103,3.5539,3.5513,3.4725,3.5347,3.5494,3.4947,3.4939,3.492,3.4891,3.4637,3.5154,3.641,3.6069,3.6527,3.7638,3.8048,3.8229,3.829,3.9099,3.943,3.9352,3.9303,3.8598,3.7554,3.8478,3.8509,3.8049,3.8963,3.9129,3.9025,3.9814,4.0196,4.0501,4.0848,4.1723,4.2385,4.0995,4.1183,4.1861,4.158,4.1541,0.0,4.1581,0.0,0.0,0.0,4.3107,4.3312,4.4071,4.404,4.4111,4.5287,4.5194,4.5129,4.6036,4.6324,4.6498,4.6655,4.6807,4.6842,4.6738,4.6597,4.6554,4.6622,4.5938,4.5485,4.5518,4.508,4.4982,4.5435,4.5467,4.5775,4.6488,4.652,4.6633,4.6876,4.6876,4.6719,4.6298,4.6298,4.6136,4.5807,4.588,4.588,4.5807,4.606,4.6223,4.6298,4.6423,4.6102,4.5484,4.5241,4.4706,4.4075,4.3994,4.3669,4.3391,4.4388,4.4912,4.5234,3.7986,3.7838,3.7679,3.7667,3.7143,3.6874,3.7096,3.6688,3.6429,3.67,0.0,0.0,0.0,0.0,0.0,3.4968,3.5844,3.5671,3.3801,3.4669,3.4997,3.4483,3.4627,3.4918,3.5398,3.5398,3.5935,3.6998,3.6998,3.7027,3.7147,3.7663,3.7985,3.8078,3.8876,3.9114,3.8878,3.9431,3.905,3.8331,4.1104,4.1071,3.989,4.3976,4.3804,4.1793,4.4519,4.4256,4.2736,4.3282,4.3528,4.326,4.136,4.0827,4.0952,4.1232,0.0,0.0,0.0,0.0,0.0,4.1844,4.2055,4.237,4.3173,4.3327,4.3605,4.4543,4.4854,4.4903,4.4804,4.5455,4.6204,4.6749,4.6862,4.6862,4.6862,4.6212,4.5842,4.6059,4.5325,4.4821,4.4952,4.4821,4.4739,4.4755,4.4755,4.5046,4.5726,4.5791,4.6131,4.686,4.6876,4.6719,4.6298,4.6298,4.6136,4.5807,4.6004,4.5988,4.5776,4.6104,4.6266,4.625,4.625,4.6445,4.6763,4.6067,4.5386,4.4754,4.4556,4.4038,4.3603,4.485,4.5309,4.5456,3.8526,3.8843,3.9002,3.8534,3.8536,3.8443,3.8087,3.7761,3.756,0.0,0.0,0.0,3.7822,3.774,3.7246,3.6339,3.6849,3.6874,3.5973,3.636,3.6213,3.5228,3.542,3.5504,3.5398,3.5589,3.6126,3.6998,3.6818,3.7176,3.8032,3.8396,3.8815,3.9255,3.988,4.0096,4.0044,4.0346,4.0335,4.0195,4.1367,4.206,4.2409,4.323,4.3153,4.2644,4.2879,4.3126,4.3294,4.3026,4.3985,4.5002,4.3082,4.1892,0.0,4.111,0.0,0.0,4.102,0.0,0.0,0.0,0.0,0.0,4.2085,4.2293,4.2507,4.3159,4.3185,4.338,4.4296,4.4314,4.4462,4.5257,4.5454,4.5586,4.5718,4.544,4.5277,4.5489,4.4756,4.4252,4.4268,4.3636,4.3411,4.3962,4.401,4.4318,4.503,4.5548,4.6131,4.686,4.6772,4.6563,4.6298,4.6298,4.6207,4.604,4.6187,4.5952,4.5457,4.5546,4.5309,4.4779,4.4779,4.4916,4.5137,4.4943,4.475,4.4524,4.3926,4.4133,4.4818,4.5321,4.5821,4.6306,3.8792,3.9269,3.9498,3.8902,3.9058,3.9296,3.9303,3.8713,3.8514,0.0,0.0,0.0,3.892,3.8822,3.8383,3.7445,3.7702,3.7705,3.7158,3.7166,3.6897,3.6257,3.624,3.6192,3.6102,3.6373,3.678,3.7377,3.7228,3.7546,3.8407,3.8587,3.9023,3.9734,4.0155,4.0374,4.0542,4.0963,4.1161,4.115,4.2002,4.272,4.3414,4.4032,4.4084,4.3794,4.3818,4.4173,4.4555,4.4338,4.4785,4.5151,4.3799,4.2684,4.1716,4.1054,4.1001,0.0,0.0,0.0,0.0,4.0601,0.0,0.0,4.1353,4.1755,4.2091,4.249,4.2848,4.3185,4.3524,4.3703,4.3896,4.4169,4.4296,4.4524,4.5097,4.4837,4.4658,4.4834,4.4069,4.3535,4.3535,4.2987,4.278,4.3201,4.3233,4.3573,4.4302,4.4998,4.571,4.6407,4.6045,4.5908,4.6006,4.5613,4.54,4.5311,4.54,4.5176,4.4774,4.4998,4.4773,4.4188,4.4289,4.4439,4.4622,4.4539,4.4506,4.4456,4.4161,4.4523,4.5221,4.5734,4.6156,4.6528,0.0,3.9567,3.9799,3.9154,3.9409,3.9894,4.0543,3.977,3.9569,0.0,4.0381,3.9911,3.9849,3.9837,3.9429,3.8354,3.8435,3.8327,3.783,3.7589,3.7446,3.7371,3.7071,3.7015,3.7257,3.7503,3.7709,3.7946,3.7946,3.8128,3.8535,3.8553,3.9019,3.9807,4.0107,4.038,4.0656,4.1298,4.1574,4.1647,4.2839,4.3257,4.3545,4.5722,4.5895,4.51,4.6135,4.6338,4.622,4.6443,4.572,4.4598,4.3856,4.3186,4.2436,4.1105,4.1015,0.0,0.0,0.0,0.0,3.9838,3.9807,0.0,4.0851,4.1555,4.2077,4.2254,4.3088,4.3538,4.2684,4.3342,4.3866,4.3427,4.3388,4.3725,4.4722,4.4315,4.3939,4.4048,4.3368,4.2899,4.2899,4.2728,4.2602,4.2602,4.2602,4.291,4.367,4.4318,4.5014,4.5775,4.5144,4.5028,4.5602,4.4657,4.4221,4.4221,4.4221,4.4138,4.3988,4.4443,4.446,4.4109,4.4293,4.4508,4.4721,4.4586,4.4585,4.4649,4.4934,4.5082,4.5225,4.5987,4.6298,4.6369,4.0743,4.1232,4.1465,4.0897,4.1479,4.1865,4.1582,4.1344,4.1319,4.16,4.1483,4.119,4.0696,4.0646,4.0341,3.9429,3.9418,3.9295,3.9007,3.8918,3.8788,3.8487,3.8421,3.8297,3.8144,3.8178,3.8192,3.8122,3.8122,3.8503,3.921,3.9499,3.9961,4.0608,4.0932,4.1106,4.1161,4.1097,4.1574,4.2505,4.3852,4.4374,4.4544,4.6184,4.6844,4.6851,4.6591,4.6781,4.7106,4.6894,4.6117,4.5095,4.4206,4.365,4.3027,4.1395,4.1085,4.1054,4.0022,0.0,3.9188,3.9099,3.9375,0.0,4.0696,4.129,4.1654,4.1555,4.2027,4.2382,4.2077,4.251,4.2921,4.2978,4.3221,4.3501,4.3828,4.3547,4.3295,4.3309,4.3057,4.2899,4.2899,4.2728,4.2602,4.2602,4.2602,4.291,4.367,4.3848,4.4496,4.5759,4.4994,4.4878,4.5602,4.4657,4.4289,4.4439,4.4439,4.42,4.3767,4.3864,4.3734,4.3388,4.3454,4.3792,4.4337,4.4742,4.5085,4.5375,4.5452,4.5699,4.6087,4.625,4.6388,4.6563,4.1269,4.1607,4.1804,4.1602,4.1786,4.2176,4.2762,4.2345,4.2265,4.2954,4.2907,4.2703,4.2234,4.2064,4.1573,4.0642,4.0917,4.0725,3.9753,3.9943,3.9817,3.9261,3.91,3.8997,3.8999,3.9155,3.9246,3.9316,3.9316,3.9508,3.9847,4.0338,4.0728,4.1046,4.1643,4.208,4.2319,4.1878,4.2457,4.3643,4.3517,4.352,4.3787,4.4969,4.5679,4.6112,4.6064,4.6801,4.7789,4.7592,4.6723,4.5486,4.4533,4.3712,4.2715,4.0899,4.0561,4.0459,3.9487,3.888,3.86,3.876,3.9235,0.0,0.0,4.1073,4.1555,4.1489,4.1785,4.2109,4.2141,4.2397,4.2728,4.3084,4.3298,4.3432,4.3492,4.3372,4.319,4.3037,4.2961,4.2868,4.2775,4.2665,4.2602,4.2602,4.2602,4.2748,4.312,4.3073,4.3541,4.4623,4.3781,4.365,4.4406,4.3516,4.3197,4.3444,4.3346,4.3218,4.3057,4.3412,4.3427,4.3212,4.3648,4.426,4.4918,4.5255,4.5693,4.6083,4.5907,4.5767,4.5713,4.6044,4.609,4.6012,4.1677,4.1881,4.1991,4.1987,4.1929,4.2356,4.3848,4.3335,4.3192,4.4377,4.438,4.4144,4.384,4.3519,4.2933,4.1904,4.2391,4.2192,4.0758,4.0934,4.0887,4.0297,3.985,3.9667,3.9826,4.0031,4.0264,4.0475,4.0321,4.0268,4.0281,4.0869,4.1088,4.1114,4.2029,4.2838,4.3543,4.2744,4.3423,4.4913,4.3149,4.2821,4.3537,4.4445,4.5136,4.5683,4.603,4.7114,4.8337,4.8193,4.7305,4.6026,4.4829,4.3778,4.2551,4.0559,4.004,3.9908,3.9186,3.8515,3.8207,3.8748,3.9357,3.9928,0.0,0.0,0.0,4.1588,4.1818,4.2093,4.2254,4.2413,4.2665,4.316,4.3204,4.3204,4.3251,4.3204,4.3129,4.293,4.2868,4.2775,4.2634,4.2539,4.2539,4.2571,4.2571,4.2571,4.2571,4.2476,4.2735,4.3476,4.2607,4.2445,4.3198,4.2346,4.2061,4.2349,4.2286,4.2286,4.2382,4.3185,4.3489,4.3403,4.4242,4.5016,4.5709,4.583,4.6118,4.6528,4.6294,4.5801,4.5285,4.5909,4.5856,4.56,4.3149,4.3115,4.3046,4.2822,4.3375,4.4058,4.4526,4.4703,4.494,4.5395,4.5435,4.5315,4.5034,4.4778,4.4247,4.3329,4.3371,4.3203,4.2718,4.2217,4.2041,4.228,4.15,4.0929,4.0649,4.0685,4.0675,4.0663,4.0139,3.9976,4.0204,4.0581,4.0757,4.0811,4.1732,4.2891,4.4094,4.2744,4.3765,4.6199,4.4106,4.4506,4.6544,4.7621,4.827,4.855,4.8343,4.8578,4.8941,4.8299,4.7852,4.7146,4.5063,4.4317,4.3714,4.132,4.0337,3.9966,3.9327,3.8978,3.8855,3.9161,3.973,4.0404,4.104,0.0,4.1037,4.1489,0.0,4.1736,4.1931,0.0,0.0,4.2634,4.2539,4.2491,4.2665,4.2539,4.2522,4.2868,4.2728,4.2634,4.2602,4.2333,4.2238,4.2413,4.2413,4.2413,4.2413,4.2413,4.2735,4.3476,4.2607,4.2445,4.3198,4.2346,4.198,4.2158,4.2585,4.2586,4.219,4.3501,4.4024,4.3968,4.462,4.5371,4.6056,4.6056,4.6179,4.6333,4.6493,4.6285,4.5985,4.6211,4.625,4.6237,4.3751,4.3846,4.3909,4.3822,4.3842,4.4276,4.5495,4.5926,4.5969,4.5562,4.5594,4.5808,4.6377,4.6183,4.5629,4.4603,4.5399,4.5071,4.3143,4.3521,4.3829,4.3815,4.2669,4.2227,4.2544,4.2043,4.1855,4.1984,4.1741,4.1584,4.1491,4.1984,4.2079,4.192,4.2541,4.3685,4.5147,4.3706,4.4759,4.7391,4.6204,4.6813,4.8233,4.6545,4.6487,4.746,4.8644,4.9412,4.9771,4.929,4.8696,4.7974,4.6883,4.5673,4.4376,4.2963,0.0,0.0,4.1156,4.0764,4.0392,3.9888,4.0415,4.083,3.995,4.0373,4.0909,4.0706,0.0,0.0,0.0,0.0,0.0,0.0,4.2013,4.2029,4.2142,4.1821,4.1867,4.2522,4.2366,4.2141,4.2045,4.1996,4.1964,4.1948,4.1948,4.2013,4.2222,4.2045,4.2156,4.2671,4.2107,4.1961,4.2263,4.1911,4.2008,4.2554,4.2408,4.249,4.2765,4.3655,4.405,4.4061,4.5174,4.581,4.6112,4.6187,4.6187,4.6187,4.6294,4.5968,4.5524,4.5885,4.5881,4.5789,4.4397,4.4443,4.4504,4.4558,4.4204,4.4468,4.6087,4.6698,4.6818,4.6397,4.6341,4.6703,4.7814,4.7734,4.7236,4.6365,4.7425,4.7089,4.4433,4.5046,4.5317,4.5054,4.3769,4.3436,4.4278,4.3349,4.3031,4.3389,4.2984,4.2665,4.2383,4.2916,4.3031,4.2818,4.3142,4.4235,4.5698,4.4601,4.5893,4.8578,4.8049,4.8326,4.8723,4.6437,4.6269,4.7426,4.8948,4.9903,5.0382,4.9911,4.9244,4.8514,4.7919,4.6508,4.4925,0.0,0.0,0.0,4.2782,4.2481,4.2029,4.0729,4.0954,4.0995,3.926,3.9675,4.0313,3.992,4.0422,0.0,0.0,0.0,4.1111,4.1105,0.0,4.1158,4.1322,4.0784,4.0769,4.1773,4.147,4.1133,4.1052,4.1003,4.0938,4.0922,4.0997,4.1157,4.1532,4.1511,4.1654,4.1948,4.172,4.1588,4.1588,4.1794,4.2113,4.2547,4.2452,4.2612,4.3096,4.3836,4.4198,4.4278,4.55,4.604,4.604,4.6116,4.6116,4.604,4.604,4.5707,4.5258,4.5726,4.5726,4.5591,4.5413,4.5106,4.4783,4.4676,4.4737,4.51,4.604,4.6804,4.7612,4.838,4.8287,4.8469,4.9316,4.9396,4.9278,4.8969,4.9191,4.8829,4.7639,4.6781,4.6239,4.5956,4.4843,4.4666,4.5529,4.4358,4.4079,4.4651,4.3128,4.2397,4.243,4.2678,4.2818,4.2818,4.3142,4.4125,4.55,4.5189,4.6934,4.988,4.9308,4.8537,4.7898,4.9231,4.999,5.0314,4.9907,5.0081,5.0383,4.9648,4.9225,4.8747,4.7228,4.6228,4.561,4.5235,0.0,0.0,4.3689,4.3762,4.3472,4.1638,4.1153,4.081,3.9723,3.913,3.8914,3.941,3.9742,4.0056,4.0455,4.0196,3.9947,3.9882,3.9524,0.0,0.0,3.9268,3.9115,4.0498,3.9897,3.9456,3.9644,3.9026,3.8767,3.9154,3.9404,3.9743,4.0138,4.0896,4.1423,4.1621,4.1621,4.1588,4.1588,4.2299,4.2299,4.1669,4.3011,4.3311,4.276,4.4069,4.4685,4.4717,4.5476,4.5807,4.5807,4.5807,4.5807,4.5807,4.5807,4.5807,4.5812,4.6024,4.6096,4.6116,4.6094,4.5883,4.5518,4.5429,4.5513,4.5709,4.5979,4.7036,4.7953,4.8208,4.8406,4.9018,5.0219,5.034,5.0102,4.9395,4.9453,4.9008,4.7827,4.71,4.7026,4.7757,4.6449,4.6168,4.7027,4.5723,4.5272,4.5872,4.4329,4.3876,4.4366,4.3452,4.3083,4.3268,4.3199,4.3787,4.4875,4.5979,4.7457,4.9079,4.9939,4.9959,4.9452,4.9137,4.8994,4.8925,4.9165,4.9987,5.0934,5.066,5.0231,4.9687,4.9195,4.8614,4.807,4.7937,4.7563,4.7203,4.7018,4.6672,4.6035,4.4558,4.3997,4.3409,4.1906,4.1881,4.1841,4.0842,4.1608,4.197,4.0284,4.0735,4.0898,3.9512,3.9355,3.9253,0.0,3.7704,3.7122,3.7507,3.8256,3.8659,3.8348,3.8246,3.8114,3.8062,3.8211,3.8434,3.8701,3.9614,4.0269,4.0582,4.1121,4.1456,4.1588,4.1841,4.2078,4.2315,4.2315,4.2679,4.339,4.3848,4.4255,4.4749,4.5491,4.5807,4.5807,4.5807,4.5807,4.5807,4.5807,4.5807,4.5807,4.5896,4.5687,4.5416,4.63,4.6461,4.6413,4.6239,4.646,4.6565,4.6469,4.7781,4.8812,4.9022,4.9446,5.0184,5.133,5.1302,5.106,5.0634,5.0488,4.9949,4.8805,4.8175,4.8042,4.8508,4.7535,4.7359,4.8259,4.7029,4.6621,4.7106,4.5454,4.4944,4.5508,4.4377,4.3945,4.4188,4.3853,4.3985,4.4631,4.6666,4.7927,4.873,5.0618,5.101,5.0427,4.9221,4.8624,4.8531,4.9344,5.0211,5.0906,5.0882,5.0486,5.0047,5.0032,4.9785,4.9453,4.9551,4.9393,4.916,4.9022,4.8471,4.7583,4.615,4.5382,4.4496,4.2887,4.2943,4.3052,4.1879,4.2651,4.3025,4.1302,4.1262,4.0979,3.9496,3.8819,3.8156,0.0,3.6369,3.5829,3.5567,3.6524,3.717,3.6987,3.6884,3.6798,3.6698,3.7082,3.7334,3.7349,3.8669,3.9511,3.9809,4.061,4.1187,4.1489,4.1808,4.2094,4.2299,4.2078,4.2584,4.3706,4.3706,4.4211,4.5128,4.5602,4.5807,4.5807,4.5807,4.5807,4.5807,4.5807,4.5807,4.5807,4.5807,4.5579,4.5361,4.5936,4.678,4.7406,4.6992,4.7433,4.7728,4.7539,4.8893,5.0175,5.0743,5.1339,5.1904,5.2591,5.2329,5.2267,5.2588,5.2214,5.1588,5.0492,4.9814,4.9089,4.8321,4.798,4.8262,4.9156,4.8275,4.7973,4.8327,4.6452,4.5655,4.5901,4.5364,4.5247,4.5461,4.4929,4.4684,4.4854,4.7229,4.8395,4.8944,5.1297,5.163,5.0677,4.9632,4.915,4.9221,5.0374,5.0668,5.0493,5.0312,5.0119,4.9875,4.9774,4.9732,4.9781,5.0038,5.0135,5.0036,4.9613,4.9058,4.8174,4.6531,4.5329,4.4218,4.2935,4.2659,4.2629,4.2599,4.2956,4.3309,4.3319,4.1833,4.0411,3.979,3.7974,3.6292,3.5302,3.5282,3.517,3.4704,3.4769,3.5052,0.0,3.5067,3.4831,3.5115,3.5996,3.6373,3.6134,3.7994,3.9096,3.921,4.0058,4.0746,4.1241,4.2149,4.2266,4.1652,4.2363,4.3058,4.3756,4.3756,4.4496,4.5807,4.5807,4.5807,4.5807,4.5776,4.576,4.576,4.576,4.5776,4.5807,4.5776,4.5776,4.588,4.6178,4.7192,4.7956,4.7421,4.7724,4.8209,4.8778,4.9061,4.9669,5.1019,5.1238,5.1764,5.2836,5.287,5.2776,5.2623,5.1523,5.0818,5.0685,4.9322,4.8718,4.9164,4.8694,4.8857,4.977,4.8695,4.8667,4.9924,4.7963,4.725,4.7708,4.6325,4.5456,4.5051,4.4903,4.4784,4.4793,4.7128,4.9141,5.0868,5.2076,5.175,5.0531,5.0958,5.0649,5.0049,5.0166,5.0991,5.1966,5.1432,5.1148,5.0998,5.0451,5.0294,5.0294,5.039,5.0519,5.0499,4.9957,4.9443,4.8895,4.7954,4.7116,4.6484,4.6307,4.6149,4.5878,4.5213,4.5691,4.5693,4.3918,4.3566,4.264,3.9916,3.7276,3.5391,3.4839,3.4685,3.452,3.4074,3.3971,3.4108,3.4486,3.4501,3.4448,3.4399,3.4889,3.5073,3.4864,3.6208,3.7218,3.7728,3.869,3.9596,4.0478,4.1038,4.1541,4.199,4.2482,4.3295,4.4448,4.4448,4.4938,4.5807,4.5807,4.5807,4.5776,4.5223,4.5001,4.5001,4.5001,4.5333,4.5744,4.5191,4.5405,4.5997,4.6991,4.77,4.8342,4.8639,4.8719,4.885,4.9158,4.9627,5.0308,5.1372,5.1695,5.2195,5.324,5.3159,5.3043,5.2883,5.2103,5.1502,5.1268,5.0306,4.9899,5.0111,4.9389,4.9459,5.0376,4.946,0.0,5.0643,4.9141,4.856,4.8873,4.7378,4.6474,4.6197,4.58,4.5595,4.5608,4.7712,4.9915,5.199,5.2319,5.1971,0.0,5.175,5.1581,5.1028,5.0975,5.148,5.2064,5.1511,5.1233,5.1021,5.0733,5.0614,5.0614,5.0614,5.0535,5.0332,5.0115,4.9371,4.8641,4.8371,4.7875,4.7424,4.7467,4.7553,4.7428,4.6826,4.7196,4.7096,4.5288,4.4709,4.3181,3.9288,3.6705,3.5001,3.4457,3.4099,3.3888,3.3716,3.3403,3.3368,3.3833,3.4074,3.4191,3.423,3.4709,3.4821,3.4428,3.5524,3.6278,3.661,3.8024,3.91,3.9807,4.0696,4.1343,4.175,4.2385,4.3232,4.4275,4.4575,4.5112,4.5807,4.5807,4.5807,4.5776,4.5365,4.5191,4.5159,4.4843,4.478,4.4891,4.4749,4.5247,4.5977,4.8035,4.8292,4.8865,4.9956,5.0088,4.9825,4.9366,5.046,5.1474,5.1844,5.2345,5.2914,5.3577,5.3416,5.3247,5.3394,5.3239,5.2768,5.203,5.185,5.1575,5.1092,5.0274,5.0185,5.1044,5.0436,5.0404,5.0951,5.0006,4.9638,4.9707,4.8488,4.7985,4.8045,4.7274,4.6978,4.7125,4.875,5.0579,5.2344,5.2274,5.2289,5.2289,5.2289,5.2127,5.195,5.2127,5.2019,5.1693,5.1218,5.095,5.0866,5.0834,5.0855,5.0902,5.0855,5.0424,4.9965,5.0045,4.9029,4.7971,4.8177,4.7887,4.7596,4.7467,4.7724,4.7964,4.7752,4.788,4.7782,4.6966,4.5384,4.2856,3.862,3.6533,3.5093,3.4176,3.3618,3.3353,3.3417,3.3304,0.0,3.3585,3.3793,3.402,3.4312,3.4922,3.4994,3.4443,3.535,3.5965,3.6197,3.777,3.8908,3.955,4.0857,4.1517,4.1572,4.2325,4.3137,4.4009,4.448,4.5112,4.5807,4.5807,4.5807,4.5807,4.5713,4.5665,4.5586,4.4859,4.429,4.3892,4.4496,4.5112,4.5753,4.857,4.9413,4.9979,4.9978,5.1104,5.1971,5.1594,5.1561,5.1783,5.2177,5.2685,5.3246,5.3942,5.3992,5.4031,5.4341,5.3641,5.3079,5.2872,5.2189,5.1856,5.1956,5.1627,5.16,5.2045,5.1169,5.1039,5.1598,5.0782,5.0355,5.031,4.9934,4.9507,4.9045,4.888,0.0,4.9288,5.0058,5.086,5.1744,5.2354,5.2627,5.2627,5.2627,5.2573,5.2505,5.2289,5.2455,5.2665,5.1751,5.2003,5.255,5.1479,5.1293,5.1433,5.1214,5.0657,5.003,4.9583,4.8865,4.8147,4.781,4.7671,4.7709,4.8034,4.8049,4.8091,4.837,4.8328,4.8214,4.805,4.5688,4.2826,3.9838,3.7809,3.5977,3.4126,3.3687,3.3304,3.2668,3.4618,3.5375,3.376,3.3793,3.3931,3.3985,3.4345,3.453,3.4428,3.4583,3.5663,3.7729,3.7609,3.8605,4.0928,4.0931,4.1563,4.2774,4.2714,4.3658,4.5428,4.4938,4.5112,4.5807,4.5807,4.5807,4.576,4.5144,4.4907,4.4828,4.4129,4.4129,4.4559,4.467,4.4796,4.5057,4.9489,4.9956,5.0285,5.0174,5.1374,5.2286,5.2141,5.2727,5.3233,5.3218,5.3316,5.3626,5.4295,5.4185,5.4169,5.4346,5.3933,5.3567,5.3342,5.3284,5.324,5.3168,5.274,5.2741,5.3199,5.203,5.1646,5.2222,5.1499,5.1078,5.0944,5.0522,5.0113,4.9763,4.9611,4.9946,0.0,5.0962,5.1447,5.2063,5.2507,5.268,5.2734,5.2841,5.2841,5.268,5.268,5.3025,5.3341,5.2383,5.2397,5.2735,5.198,5.1671,5.1572,5.1448,5.0936,5.0275,4.9809,4.919,4.8555,4.7961,4.7794,4.788,4.8091,4.8175,4.8202,4.8412,4.8453,4.8239,4.7548,4.4889,4.2213,4.0299,3.8362,3.6365,3.4394,3.3839,3.3403,3.2945,0.0,0.0,3.3836,3.3744,3.3779,3.3833,3.3991,3.4094,3.4094,3.4312,3.4957,3.6187,3.6522,3.7257,3.8477,3.9668,4.0616,4.1217,4.2236,4.3216,4.4196,4.4543,4.4907,4.5254,4.5649,4.5807,4.5776,4.5428,4.5065,4.4638,4.394,4.3892,4.4196,4.418,4.4576,4.5288,5.0508,5.0559,5.0666,5.0793,5.1722,5.248,5.2641,5.3881,5.4622,5.4134,5.3987,5.4083,5.4602,5.4447,5.4299,5.4416,5.4335,5.4167,5.3934,5.4363,5.4524,5.4121,5.3863,5.3816,5.4107,5.2967,5.2556,5.294,5.222,5.1819,5.1601,5.092,5.0573,5.0521,5.0406,5.0847,5.1704,5.1722,5.2114,5.27,5.2799,5.2841,5.2894,5.3107,5.3054,5.2894,5.3054,5.3462,5.3779,5.3098,5.297,5.3021,5.253,5.2173,5.1892,5.1725,5.1212,5.0638,5.0303,4.9604,4.8873,4.8384,4.8155,4.8091,4.8133,4.826,4.837,4.837,4.8388,4.8035,4.6899,4.455,4.2395,4.1076,3.9234,3.7253,3.5273,3.4687,3.4326,0.0,0.0,0.0,3.5059,3.464,3.4364,3.4364,3.3982,3.3785,3.3874,3.4128,3.4622,3.537,3.5929,3.6458,3.6943,3.8834,3.9807,3.981,4.1604,4.2728,4.3221,4.4104,4.4689,4.5077,4.5591,4.5807,4.5807,4.5807,4.5476,4.4859,4.4003,4.3782,4.3911,4.3753,4.4448,4.5651,5.1384,5.1534,5.2009,5.2185,5.2955,5.3697,5.4143,5.4898,5.5098,5.419,5.4552,5.4901,5.4967,5.4908,5.5071,5.5367,5.5116,5.488,5.4884,5.4939,5.4717,5.4116,5.4856,5.4914,5.4134,5.4242,5.4201,5.3971,5.3015,5.2421,5.231,5.159,5.1442,5.1669,5.2033,5.237,5.2727,5.2492,5.2781,5.3375,5.3146,5.3213,5.341,5.3462,5.3462,5.341,5.3174,5.3462,5.3942,5.4075,5.4386,5.4488,5.3306,5.3006,5.3009,5.22,5.1471,5.094,5.0924,4.9953,4.9037,4.9133,4.8702,4.8328,4.8495,4.8578,4.8578,4.8578,4.8086,4.7521,4.6964,4.6152,4.4876,4.2968,4.1423,3.9631,3.7262,3.7166,3.703,3.6218,0.0,0.0,3.9022,3.7689,3.668,3.6181,3.4587,3.3764,3.4059,3.3908,3.5341,3.8561,3.7049,3.7541,4.0402,3.9993,4.0137,4.0789,4.1404,4.2796,4.4757,4.411,4.464,4.6131,4.592,4.5807,4.5807,4.5807,4.5776,4.557,4.4208,4.405,4.4543,4.3908,4.4464,4.5651,5.2351,5.2694,5.3016,5.2823,5.3523,5.4203,5.4412,5.504,5.5285,5.4724,5.5014,5.532,5.532,5.5144,5.5108,5.5423,5.5154,5.4881,5.4714,5.5262,5.5331,5.464,5.5564,5.5776,5.5261,5.5167,5.4969,5.4612,5.4074,5.3428,5.2766,5.2689,5.2624,5.2538,5.2673,5.2939,5.3227,5.3138,5.323,5.3515,5.3372,5.341,5.3515,5.3515,5.3515,5.3462,5.3372,5.3777,5.4421,5.4662,5.4735,5.4522,5.3821,5.3465,5.3177,5.2581,5.2108,5.1742,5.1642,5.0815,4.9959,4.9646,4.9116,4.8733,4.8816,4.8908,4.9031,4.9031,4.8503,4.796,4.776,4.7193,4.6079,4.4008,4.3055,4.175,3.9408,3.8998,3.8775,3.8314,0.0,3.8237,3.8691,3.7625,3.658,3.5875,3.4423,3.3675,3.3799,3.4315,3.5438,3.7282,3.6988,3.756,3.9128,3.9601,3.9951,4.0246,4.1592,4.278,4.3759,4.4246,4.5091,4.6168,4.5916,4.5807,4.5807,4.5807,4.5807,4.5713,4.4701,4.4749,4.5286,4.4837,4.5431,4.6557,5.3578,5.3593,5.3603,5.3352,5.3775,5.4212,5.4439,5.504,5.5414,5.5208,5.5345,5.5496,5.5496,5.5261,5.5243,5.541,5.5308,5.5123,5.4824,5.5481,5.5594,5.4912,5.578,5.5964,5.5322,5.5624,5.5538,5.4998,5.4725,5.4145,5.3391,5.3361,5.3215,5.2997,5.3055,5.3236,5.3515,5.3515,5.3515,5.3515,5.362,5.3568,5.3515,5.362,5.3568,5.3515,5.3515,5.3919,5.4494,5.4708,5.4685,5.4484,5.4283,5.3834,5.3331,5.2853,5.2563,5.2395,5.2363,5.1701,5.095,5.0298,4.9786,4.931,4.9109,4.921,4.9316,4.9316,4.876,4.8308,4.8387,4.7864,4.6886,4.5217,4.4528,4.3516,4.15,4.0773,4.0314,4.0045,3.8707,3.8322,3.9617,3.8507,3.7654,3.761,3.5968,3.4579,3.3807,3.4649,3.5658,3.6686,3.7199,3.7801,3.8506,3.9349,3.9905,4.0122,4.1859,4.302,4.3669,4.4899,4.5693,4.6112,4.5952,4.5844,4.5807,4.5807,4.5681,4.5428,4.4907,4.5033,4.5464,4.5346,4.6056,4.7186,5.5183,5.4173,5.362,5.3935,5.3718,5.3699,5.4284,5.5025,5.5496,5.5496,5.5496,5.5496,5.5496,5.5496,5.5475,5.541,5.562,5.5676,5.5409,5.562,5.5451,5.464,5.552,5.528,5.3768,5.5481,5.5908,5.4998,5.4684,5.4484,5.4361,5.3442,5.2997,5.2931,5.3315,5.3515,5.3515,5.3515,5.3515,5.3515,5.3815,5.3762,5.3515,5.38,5.371,5.3515,5.3515,5.3658,5.392,5.4086,5.4295,5.4518,5.4648,5.4222,5.3545,5.2914,5.2713,5.2758,5.3026,5.2544,5.1859,5.139,5.0804,5.0117,4.9431,4.9316,4.9316,4.9316,4.876,4.8348,4.8585,4.8059,4.7413,4.686,4.604,4.5018,4.3654,4.256,4.17,4.1216,4.0681,4.1171,4.3251,4.1383,4.081,4.2652,3.991,3.6974,3.4229,3.4911,3.6178,3.7919,3.7983,3.857,3.978,3.9796,4.0168,4.0916,4.2129,4.3595,4.5293,4.6191,4.6388,4.6112,4.6112,4.6004,4.5807,4.5807,4.5381,4.4717,4.4717,4.4717,4.4752,4.5138,4.6056,4.7152,5.6361,5.6046,5.5846,5.5987,5.5692,5.5493,5.5433,5.5823,5.5979,5.5581,5.5879,5.6121,5.6121,5.5729,5.5475,5.541,5.5752,5.5808,5.5435,5.6144,5.6319,5.586,5.6478,5.6565,5.5894,5.6607,5.6764,5.6279,5.5958,5.5328,5.4434,5.3526,5.3172,5.3315,5.3428,5.3515,5.3515,5.3515,5.3515,5.3515,5.38,5.3852,5.38,5.406,5.4097,5.406,5.406,5.423,5.4465,5.4266,5.427,5.43,5.4114,5.399,5.3864,5.333,5.3173,5.3233,5.3512,5.2551,5.1514,5.1339,5.0585,4.9743,4.9564,4.9597,4.9717,4.9717,4.9679,4.9694,4.9749,4.9714,4.9267,4.8132,4.7712,4.7039,4.5623,4.4425,4.3937,4.4576,4.2618,4.2062,4.4169,4.3184,4.2361,4.2229,4.1848,4.0054,3.6458,3.6891,3.7476,3.7983,3.9683,4.0743,4.1011,4.1985,4.2346,4.216,4.3126,4.4175,4.5309,4.5959,4.6203,4.6112,4.5968,4.5844,4.5807,4.5807,4.5665,4.546,4.546,4.5572,4.5824,4.6226,4.6785,4.7371,5.7035,5.6772,5.651,5.651,5.623,5.5918,5.5752,5.6092,5.6266,5.5894,5.618,5.6408,5.6408,5.6063,5.5764,5.5594,5.6007,5.6062,5.5603,5.6338,5.6729,5.6416,5.689,5.692,5.6421,5.6745,5.6686,5.6174,5.5832,5.5155,5.4125,5.3507,5.3319,5.3515,5.3515,5.3515,5.3515,5.3515,5.3515,5.3515,5.3904,5.4008,5.3956,5.4333,5.4421,5.4304,5.4304,5.4376,5.4363,5.3958,5.3739,5.3631,5.3377,5.3465,5.3643,5.3474,5.3377,5.3481,5.3746,5.306,5.2117,5.167,5.101,5.0362,4.9843,4.9797,4.9876,4.9876,5.0129,5.0301,5.0301,5.0457,5.0205,4.9074,4.8695,4.8171,4.6981,4.5087,4.425,4.54,4.3409,4.2594,4.4332,4.4541,4.4313,4.37,4.3737,4.2603,3.9895,3.9401,3.9101,3.8795,4.0767,4.1747,4.1588,4.2758,4.3121,4.2695,4.3849,4.4671,4.5205,4.5814,4.6112,4.6112,4.588,4.5807,4.5807,4.5807,4.5649,4.5428,4.5697,4.5834,4.6019,4.6675,4.7116,4.7471,5.7303,5.6526,5.5888,5.5888,5.5685,5.5536,5.5536,5.6004,5.6408,5.6408,5.6408,5.6466,5.6451,5.6451,5.6337,5.6003,5.6418,5.6514,5.6001,5.6473,5.6665,5.6494,5.6751,5.6549,5.5664,5.614,5.5904,5.4991,5.4631,5.4168,5.3515,5.3515,5.3515,5.3515,5.3515,5.3515,5.3515,5.3515,5.3515,5.3568,5.406,5.4149,5.4008,5.4568,5.4605,5.4355,5.4311,5.4065,5.3774,5.3286,5.2885,5.2633,5.2657,5.2817,5.3069,5.3334,5.3437,5.3524,5.373,5.3801,5.3498,5.2386,5.2017,5.1591,5.0295,4.9963,4.9916,4.9971,5.0168,5.034,5.034,5.0512,5.041,4.9673,4.9111,4.8514,4.7741,4.4934,4.328,4.4271,4.3323,4.3026,4.4097,4.553,4.6439,4.6633,4.562,4.4656,4.396,4.2341,4.1084,4.0296,4.1479,4.2008,4.1764,4.2539,4.2918,4.292,4.4373,4.5047,4.5031,4.5762,4.6076,4.6076,4.588,4.5807,4.5807,4.5807,4.5412,4.4859,4.5575,4.5667,4.5541,4.6565,4.715,4.7488,5.7303,5.7127,5.6965,5.6965,5.6868,5.6756,5.6602,5.6692,5.6766,5.6766,5.6766,5.6865,5.7078,5.7078,5.6963,5.6678,5.6762,5.6819,5.6649,5.6973,5.7144,5.7078,5.7134,5.7118,5.6861,5.658,5.5797,5.4627,5.4535,5.4168,5.3515,5.3515,5.3515,5.3515,5.3515,5.3515,5.3515,5.3515,5.3515,5.3515,5.3852,5.406,5.4252,5.4671,5.489,5.4902,5.441,5.4177,5.3913,5.2797,5.2608,5.2728,5.2261,5.2667,5.3334,5.3643,5.3801,5.3958,5.4017,5.3654,5.3197,5.2892,5.2033,5.1173,5.1001,5.0549,5.0262,5.0418,5.0628,5.0743,5.0743,5.0934,5.0828,5.0063,4.9842,4.9115,4.7181,4.5997,4.5282,4.5291,4.4758,4.4918,4.6326,4.6767,4.6996,4.7064,4.6781,4.6257,4.5379,4.4907,4.385,4.199,4.3445,4.4013,4.3439,4.4659,4.5078,4.4676,4.5306,4.5397,4.5031,4.5583,4.588,4.588,4.5807,4.5807,4.5807,4.5807,4.5713,4.557,4.6005,4.6327,4.6581,4.7085,4.7538,4.7853,5.7303,5.7303,5.7303,5.7303,5.7303,5.7247,5.7092,5.6993,5.6922,5.7092,5.6993,5.6979,5.7247,5.7303,5.7247,5.7092,5.7092,5.7035,5.6936,5.7035,5.7149,5.7303,5.7205,5.7149,5.7303,5.6708,5.5794,5.4517,5.4197,5.3878,5.3515,5.3515,5.3515,5.3515,5.3515,5.3515,5.3515,5.3515,5.3515,5.3515,5.3904,5.4149,5.4355,5.4824,5.5093,5.5104,5.4446,5.3997,5.3578,5.2546,5.2182,5.2148,5.2093,5.2517,5.3157,5.3659,5.4017,5.4215,5.413,5.3904,5.364,5.3297,5.2435,5.1612,5.1479,5.1152,5.0824,5.0653,5.0743,5.0912,5.0912,5.1048,5.1054,5.0665,4.9575,4.8345,4.7097,4.5895,4.5205,4.5449,4.5502,4.5997,4.722,4.7335,4.7335,4.7335,4.7335,4.7071,4.6462,4.6445,4.5511,4.3476,4.4227,4.445,4.3999,4.4675,4.5024,4.5034,4.5199,4.5132,4.4874,4.5512,4.5807,4.5807,4.5807,4.5807,4.5807,4.5807,4.5807,4.5844,4.6175,4.6547,4.6945,4.7286,4.7671,4.8001,5.7303,5.7303,5.7303,5.7303,5.7303,5.7303,5.7303,5.7092,5.6993,5.7191,5.7035,5.6993,5.7134,5.7247,5.7303,5.7247,5.7303,5.7191,5.6993,5.6993,5.7035,5.7303,5.7005,5.6949,5.7303,5.6708,5.5794,5.4517,5.395,5.3617,5.3515,5.3515,5.3515,5.3515,5.3515,5.3515,5.3515,5.3515,5.3515,5.3568,5.406,5.4252,5.4355,5.4926,5.5143,5.5089,5.4326,5.3668,5.3069,5.2306,5.1678,5.1308,5.2033,5.2442,5.2846,5.3556,5.4103,5.4412,5.4215,5.4301,5.4311,5.3738,5.3006,5.2323,5.1885,5.1636,5.1355,5.0817,5.082,5.095,5.095,5.107,5.1183,5.1183,4.9084,4.746,4.7497,4.5719,4.4733,4.5498,4.6003,4.6649,4.7438,4.7537,4.7537,4.7537,4.7537,4.742,4.7217,4.7217,4.6478,4.4894,4.4677,4.4507,4.4352,4.4161,4.4357,4.4911,4.4875,4.4875,4.4907,4.5523,4.5807,4.5807,4.5807,4.5807,4.5807,4.5807,4.5844,4.59,4.6246,4.6617,4.7014,4.7354,4.7704,4.8001,5.7303,5.7303,5.7303,5.7303,5.7303,5.7303,5.7303,5.7092,5.6936,5.6936,5.6936,5.6823,5.658,5.6964,5.7191,5.6993,5.7149,5.7303,5.7247,5.7247,5.7247,5.7303,5.6768,5.6739,5.7289,5.6708,5.5794,5.4517,5.4415,5.4067,5.3515,5.3515,5.3515,5.3515,5.3515,5.3515,5.3515,5.3515,5.3515,5.3515,5.3867,5.4097,5.4355,5.4722,5.4991,5.5029,5.3788,5.3279,5.2995,5.1783,5.1304,5.1308,5.1803,5.2306,5.2846,5.3524,5.4189,5.4671,5.4412,5.4555,5.4723,5.4627,5.362,5.2669,5.2764,5.1871,5.1025,5.1086,5.1108,5.1146,5.1146,5.1183,5.1183,5.1183,4.972,4.8594,4.876,4.7454,4.655,4.6853,4.7139,4.7372,4.7638,4.7671,4.7671,4.7671,4.7671,4.7538,4.7217,4.7217,4.7001,4.6534,4.633,4.6137,4.5943,4.5798,4.577,4.5865,4.5722,4.5649,4.5649,4.576,4.5807,4.5807,4.5807,4.5807,4.5807,4.5807,4.5956,4.6266,4.6668,4.7014,4.7387,4.7737,4.7968,4.8001,5.7245,5.7303,5.7303,5.7303,5.7303,5.7303,5.7303,5.6922,5.6694,5.688,5.6766,5.658,5.6408,5.6964,5.706,5.6404,5.6657,5.6665,5.6302,5.6758,5.7149,5.7303,5.6874,5.6714,5.6824,5.62,5.5431,5.4517,5.4154,5.382,5.3515,5.3515,5.3515,5.3515,5.3515,5.3568,5.371,5.371,5.3815,5.3956,5.4245,5.4451,5.4605,5.489,5.4884,5.4536,5.3533,5.295,5.2501,5.1543,5.1308,5.1494,5.1987,5.2577,5.3201,5.3726,5.4316,5.4813,5.4765,5.4781,5.4813,5.4922,5.4177,5.3351,5.3204,5.234,5.1522,5.1264,5.1183,5.1183,5.1183,5.1183,5.1183,5.1183,4.9673,4.8556,4.8744,4.761,4.6809,4.6999,4.7454,4.7803,4.7853,4.7853,4.7853,4.7853,4.7737,4.7605,4.7352,4.7251,4.7098,4.6927,4.6598,4.6369,4.6187,4.6024,4.5932,4.5932,4.5844,4.5807,4.5807,4.5807,4.5807,4.5807,4.5807,4.5807,4.5807,4.5807,4.5992,4.6337,4.6738,4.7116,4.7454,4.7853,4.8001,4.8001,5.6984,5.7086,5.7144,5.7289,5.7303,5.7303,5.7303,5.6851,5.658,5.6766,5.658,5.6351,5.6178,5.6794,5.6846,5.5889,5.6181,5.6128,5.5445,5.6109,5.6644,5.6868,5.6658,5.6384,5.5982,5.5605,5.5112,5.4517,5.3994,5.366,5.3515,5.3515,5.3515,5.3515,5.3515,5.3658,5.3904,5.3904,5.4045,5.4304,5.4671,5.4803,5.4854,5.5093,5.4775,5.4117,5.3428,5.2755,5.2097,5.1439,5.1354,5.1711,5.2306,5.2846,5.3421,5.413,5.4613,5.4964,5.5113,5.5072,5.4964,5.5113,5.4494,5.3745,5.3371,5.2624,5.1815,5.1297,5.1183,5.1183,5.1183,5.1221,5.1258,5.1258,4.9694,4.8673,4.9252,4.802,4.7204,4.7608,4.8017,4.8199,4.8017,4.8001,4.8001,4.8001,4.782,4.7654,4.752,4.7319,4.7196,4.717,4.6625,4.6314,4.6168,4.5952,4.5859,4.5807,4.5807,4.5807,4.5807,4.5807,4.5807,4.5807,4.5807,4.5807,4.5807,4.5807,4.6064,4.6477,4.6772,4.715,4.7588,4.7886,4.8001,4.8001,5.6345,5.6476,5.665,5.7202,5.7303,5.7303,5.7303,5.7035,5.6766,5.6466,5.6408,5.6178,5.5613,5.6365,5.6578,5.5622,5.607,5.6128,5.5445,5.5503,5.5492,5.5547,5.5492,5.5217,5.4662,5.5155,5.5112,5.4517,5.4473,5.4125,5.3515,5.3515,5.3515,5.3515,5.3515,5.3658,5.3904,5.3904,5.4045,5.4304,5.4671,5.4803,5.4854,5.5093,5.4775,5.4117,5.3428,5.2755,5.2097,5.1439,5.1354,5.1772,5.2652,5.298,5.3274,5.4639,5.518,5.5385,5.5369,5.5369,5.5385,5.5369,5.4365,5.3346,5.3298,5.2252,5.1248,5.1199,5.1183,5.1183,5.1183,5.135,5.1462,5.1462,5.0261,4.9896,5.1596,4.9866,4.8836,4.9853,4.9408,4.8763,4.8067,4.8001,4.8001,4.8001,4.782,4.7654,4.752,4.7319,4.7424,4.7912,4.7058,4.6493,4.6278,4.6168,4.5988,4.5807,4.5807,4.5807,4.5807,4.5807,4.5807,4.5807,4.5807,4.5807,4.5807,4.5807,4.6207,4.6858,4.6892,4.7336,4.7968,4.8001,4.8001,4.8001,5.62,5.6084,5.5982,5.6636,5.6403,5.6087,5.5921,5.5587,5.5364,5.5251,5.541,5.5424,5.5222,5.6194,5.6349,5.4994,5.5409,5.5344,5.4299,5.4241,5.4589,5.5373,5.5402,5.5126,5.4531,5.4734,5.4546,5.3892,5.3892,5.3762,5.3515,5.3515,5.3515,5.3515,5.3658,5.3904,5.4149,5.4399,5.4605,5.486,5.4991,5.5042,5.5042,5.5143,5.4521,5.3533,5.3279,5.2501,5.1558,5.1304,5.1354,5.1711,5.2336,5.2891,5.3509,5.4723,5.5221,5.5409,5.5409,5.5409,5.5409,5.5409,5.4357,5.3281,5.3281,5.222,5.1183,5.1183,5.1183,5.1183,5.1183,5.135,5.1499,5.1499,5.1173,5.1192,5.1984,5.084,5.0152,5.0798,4.9721,4.8844,4.868,4.8266,4.7968,4.782,4.7671,4.7504,4.7319,4.7098,4.7302,4.7993,4.7419,4.7061,4.6989,4.6267,4.5896,4.5807,4.5807,4.5807,4.5807,4.5807,4.5807,4.5807,4.5807,4.5807,4.5807,4.5807,4.6243,4.6876,4.6876,4.7336,4.8001,4.8001,4.8001,4.8001,5.5605,5.5445,5.5329,5.5982,5.5721,5.5362,5.5158,5.4883,5.4662,5.4662,5.4741,5.4842,5.4856,5.5693,5.5801,5.4448,5.48,5.4676,5.3588,5.3515,5.3907,5.4778,5.4807,5.4618,5.4212,5.4197,5.3965,5.3515,5.3553,5.3605,5.3605,5.371,5.3762,5.3762,5.3956,5.4164,5.4487,5.4671,5.4941,5.5194,5.5194,5.5194,5.5164,5.497,5.4177,5.3159,5.295,5.2157,5.1214,5.1214,5.1448,5.1834,5.2261,5.3069,5.3985,5.4848,5.5221,5.5409,5.5409,5.5409,5.5409,5.5409,5.4357,5.3281,5.3281,5.222,5.1183,5.1183,5.1183,5.1183,5.1183,5.1424,5.1573,5.1499,5.1758,5.2013,5.2102,5.155,5.1139,5.1192,4.9981,4.9106,4.901,4.8398,4.7935,4.7704,4.7571,4.7403,4.7115,4.7383,4.7799,4.8317,4.8204,4.8118,4.8061,4.675,4.6013,4.5807,4.5807,4.5807,4.5807,4.5807,4.5807,4.5807,4.5807,4.5807,4.5807,4.5807,4.6243,4.6876,4.6876,4.7336,4.8001,4.8001,4.8001,4.8001,5.4386,5.4517,5.4691,5.53,5.5402,5.5387,5.5387,5.5143,5.4993,5.4993,5.4703,5.4467,5.4482,5.4828,5.4734,5.4072,5.4327,5.4226,5.3559,5.3515,5.3515,5.3515,5.3515,5.3515,5.3515,5.3515,5.3515,5.3515,5.3762,5.3904,5.3904,5.4149,5.4304,5.4304,5.4304,5.4487,5.4803,5.4803,5.4941,5.5194,5.5194,5.5194,5.5119,5.4461,5.3773,5.3084,5.2441,5.1783,5.1214,5.1214,5.1556,5.2078,5.2532,5.3667,5.4848,5.5031,5.5221,5.5409,5.5409,5.5409,5.5409,5.5409,5.4357,5.3281,5.3281,5.222,5.1183,5.1183,5.1183,5.1183,5.1183,5.152,5.1741,5.1536,5.2013,5.2318,5.2139,5.2102,5.1839,5.1098,5.0356,4.9631,4.889,4.8349,4.7935,4.7721,4.7571,4.7335,4.6911,4.8236,4.8977,4.8994,4.9526,4.9711,4.9507,4.7723,4.6471,4.5823,4.5807,4.5807,4.5807,4.5807,4.5807,4.5807,4.5807,4.5807,4.5807,4.5807,4.6243,4.6876,4.6876,4.7336,4.8001,4.8001,4.8001,4.8001,5.4386,5.4139,5.4009,5.4662,5.4386,5.3975,5.3829,5.3737,5.3683,5.3683,5.3637,5.373,5.4084,5.4445,5.4445,5.4072,5.4327,5.4226,5.3559,5.3515,5.3515,5.3515,5.3515,5.362,5.3762,5.3762,5.3852,5.406,5.4149,5.42,5.42,5.4252,5.4304,5.4304,5.4553,5.4737,5.4788,5.4991,5.5143,5.5194,5.5194,5.491,5.4476,5.4281,5.3488,5.2471,5.2276,5.1783,5.1214,5.1401,5.1448,5.1587,5.2622,5.3552,5.4386,5.4948,5.5221,5.5409,5.5409,5.5303,5.5221,5.5369,5.4357,5.3281,5.3281,5.222,5.1183,5.1183,5.1183,5.1183,5.1183,5.1408,5.1573,5.1499,5.1884,5.2175,5.2102,5.2102,5.2056,5.2004,5.1078,5.0429,5.0373,4.9715,4.897,4.8104,4.7443,4.703,4.6927,4.7799,4.8492,4.8977,4.9394,4.9576,4.9507,4.7819,4.6856,4.6503,4.6029,4.5807,4.5807,4.5807,4.5807,4.5807,4.5807,4.5807,4.5807,4.6048,4.6458,4.6911,4.715,4.7571,4.8001,4.8001,4.8001,4.8001,5.4038,5.3791,5.3646,5.4052,5.3776,5.3462,5.3266,5.3266,5.3266,5.3266,5.3278,5.3453,5.3761,5.4,5.4018,5.3844,5.4004,5.3989,5.3687,5.3568,5.3605,5.3815,5.3605,5.3605,5.3904,5.3815,5.3904,5.4304,5.4304,5.437,5.4487,5.459,5.4641,5.4641,5.4875,5.4941,5.4941,5.5143,5.5194,5.5194,5.5194,5.4955,5.4536,5.4012,5.3294,5.2516,5.1992,5.1558,5.1214,5.1494,5.1634,5.1849,5.292,5.364,5.4231,5.4906,5.5196,5.5303,5.5385,5.5196,5.5047,5.5221,5.4406,5.3502,5.3228,5.2375,5.1507,5.1232,5.1183,5.1183,5.1183,5.135,5.1462,5.1387,5.1721,5.1977,5.1977,5.1904,5.1957,5.2122,5.1211,5.0625,5.0749,5.0164,4.9471,4.8681,4.8067,4.7734,4.7734,4.8431,4.8994,4.9325,4.9791,4.9971,4.9825,4.8572,4.7543,4.6803,4.6392,4.606,4.5807,4.5807,4.5807,4.5807,4.5807,4.5807,4.5844,4.6175,4.6547,4.6911,4.7286,4.7638,4.8001,4.8001,4.8183,4.8448,5.3515,5.3515,5.3515,5.3515,5.3515,5.3515,5.3515,5.3515,5.3515,5.3515,5.3462,5.3462,5.3515,5.3462,5.3462,5.3515,5.3515,5.3605,5.3852,5.3658,5.371,5.42,5.3762,5.3605,5.3904,5.3658,5.3815,5.4304,5.4304,5.4487,5.4803,5.5093,5.5194,5.5194,5.5194,5.5194,5.5194,5.5194,5.5194,5.5194,5.5194,5.5149,5.497,5.3743,5.3189,5.2935,5.1738,5.1274,5.1214,5.1494,5.1895,5.2472,5.3406,5.3872,5.4231,5.4931,5.5113,5.5155,5.5344,5.5113,5.4854,5.5031,5.4589,5.3873,5.3206,5.2614,5.2003,5.1491,5.128,5.1199,5.1264,5.1382,5.1424,5.1221,5.152,5.1778,5.1778,5.1647,5.161,5.1778,5.1023,5.0522,5.0522,4.9978,4.9589,4.9395,4.9134,4.8994,4.8994,4.9673,4.9988,4.9823,5.0472,5.0666,5.0301,4.9626,4.851,4.6992,4.6929,4.655,4.5902,4.5902,4.5871,4.5807,4.5807,4.5807,4.5844,4.6211,4.6582,4.6945,4.732,4.7671,4.8017,4.8084,4.8531,4.9127,5.3515,5.3515,5.3515,5.3515,5.3515,5.3515,5.3515,5.3515,5.3515,5.3515,5.3319,5.3266,5.3462,5.3319,5.3266,5.3462,5.3515,5.3515,5.3568,5.3515,5.3568,5.3658,5.3553,5.3605,5.3904,5.3852,5.3956,5.4304,5.4553,5.4737,5.4803,5.5093,5.5194,5.5194,5.5194,5.5194,5.5194,5.5194,5.5194,5.5194,5.5194,5.488,5.4401,5.4102,5.3324,5.2381,5.2097,5.1663,5.1214,5.1494,5.1895,5.2472,5.339,5.3884,5.4258,5.5081,5.5344,5.5328,5.5369,5.5221,5.5005,5.488,5.4726,5.4422,5.3727,5.2732,5.2101,5.252,5.1845,5.1345,5.1879,5.1577,5.1258,5.1221,5.1424,5.1573,5.1573,5.1647,5.1741,5.1778,5.1463,5.1271,5.1271,5.0493,5.0034,5.0143,4.9426,4.8994,4.8994,4.9547,4.986,4.9785,5.0205,5.0379,5.0301,4.9931,4.9307,4.843,4.7909,4.7277,4.6582,4.6582,4.6313,4.5807,4.5807,4.5807,4.5844,4.6509,4.6807,4.6945,4.7621,4.7919,4.8067,4.8647,4.8961,4.9276,5.3515,5.3515,5.3515,5.3515,5.3515,5.3515,5.3515,5.3515,5.3515,5.3515,5.3372,5.3357,5.3462,5.3357,5.3372,5.3462,5.3515,5.3515,5.3515,5.3515,5.3568,5.371,5.3568,5.3605,5.3904,5.3762,5.3904,5.4304,5.4487,5.4619,5.4803,5.5093,5.5194,5.5194,5.5194,5.5194,5.5194,5.5194,5.5194,5.5194,5.5194,5.4985,5.464,5.4326,5.3563,5.2636,5.2306,5.1862,5.1448,5.1695,5.2002,5.2442,5.3302,5.3813,5.4215,5.4906,5.518,5.5262,5.5262,5.5113,5.4922,5.4655,5.4613,5.4421,5.372,5.2957,5.2522,5.2908,5.2314,5.1766,5.2139,5.1896,5.1556,5.1232,5.1296,5.1387,5.1515,5.1499,5.1557,5.1647,5.1499,5.135,5.135,5.0918,5.067,5.0781,5.0313,5.0029,4.9918,5.0161,5.0241,5.0035,5.0227,5.0223,5.0089,4.9971,4.9742,4.9378,4.8699,4.8004,4.7324,4.7324,4.6945,4.6313,4.6661,4.6424,4.5859,4.6949,4.7184,4.7028,4.8116,4.8531,4.8614,4.9359,4.9856,5.0303,5.3515,5.3515,5.3515,5.3515,5.3515,5.3515,5.3515,5.3515,5.3515,5.3515,5.3515,5.3515,5.3515,5.3515,5.3515,5.3515,5.3515,5.3515,5.3515,5.3515,5.362,5.38,5.3605,5.3605,5.3815,5.3605,5.371,5.4149,5.4252,5.4421,5.4737,5.5042,5.5194,5.5194,5.5194,5.5194,5.5194,5.5194,5.5194,5.5194,5.5194,5.5194,5.5134,5.4581,5.3952,5.3264,5.2606,5.2015,5.1587,5.1895,5.2109,5.2397,5.3157,5.3742,5.4189,5.4671,5.4964,5.5155,5.5155,5.4989,5.4797,5.4539,5.4454,5.4253,5.3655,5.3316,5.3158,5.3287,5.2824,5.2398,5.2398,5.2284,5.1977,5.1297,5.1183,5.1258,5.1424,5.1312,5.1258,5.1424,5.1296,5.1183,5.1183,5.1183,5.1183,5.1183,5.1183,5.1086,5.0912,5.082,5.0628,5.0301,5.0262,5.0129,4.9876,4.9876,4.9876,4.9876,4.9347,4.8715,4.8067,4.8067,4.7672,4.7024,4.7624,4.7283,4.6348,4.7541,4.7702,4.7308,4.8692,4.9176,4.921,5.0071,5.085,5.1597,5.3515,5.3515,5.3515,5.3515,5.3515,5.3515,5.3515,5.3515,5.3515,5.3515,5.3515,5.3515,5.3515,5.3515,5.3515,5.3515,5.3515,5.3515,5.3515,5.3515,5.3515,5.3553,5.3515,5.3515,5.3553,5.3515,5.3515,5.3605,5.4045,5.4304,5.4355,5.4926,5.5194,5.5194,5.5194,5.5194,5.5194,5.5194,5.5194,5.5194,5.5194,5.5194,5.5179,5.5089,5.464,5.3982,5.3294,5.2261,5.1308,5.1849,5.2033,5.2216,5.3113,5.3742,5.4173,5.4639,5.5056,5.5385,5.5385,5.5221,5.5005,5.4797,5.4555,5.4338,5.4062,5.3786,5.3782,5.4438,5.3793,5.3175,5.3175,5.2641,5.1977,5.1297,5.1183,5.1221,5.1221,5.1221,5.1221,5.1221,5.1221,5.1183,5.1183,5.1183,5.1183,5.1183,5.1048,5.095,5.0912,5.0589,5.034,5.0301,5.0089,4.9931,4.9876,4.9876,4.9876,4.9876,4.9837,4.9426,4.8746,4.8746,4.8383,4.7767,4.7861,4.7971,4.8152,4.8473,4.8482,4.8386,4.9398,4.9521,4.9276,5.0634,5.163,5.2277,5.3515,5.3515,5.3515,5.3515,5.3515,5.3515,5.3515,5.3515,5.3515,5.3515,5.3515,5.3515,5.3515,5.3515,5.3515,5.3515,5.3515,5.3515,5.3515,5.3515,5.3515,5.3515,5.3515,5.3515,5.3515,5.3515,5.3515,5.3515,5.406,5.4304,5.4304,5.4911,5.5194,5.5194,5.5194,5.5194,5.5194,5.5194,5.5194,5.5194,5.5194,5.5194,5.5194,5.5194,5.4775,5.4072,5.301,5.2022,5.1261,5.1649,5.1895,5.2124,5.2788,5.3524,5.4173,5.4497,5.4957,5.5344,5.5113,5.5138,5.5138,5.4528,5.4528,5.4528,5.4189,5.4205,5.4413,5.4749,5.4325,5.3806,5.3362,5.3045,5.2462,5.1361,5.1183,5.1183,5.1183,5.1183,5.1183,5.1183,5.1183,5.1183,5.1183,5.1183,5.1146,5.1048,5.095,5.0781,5.0589,5.0379,5.0223,5.0089,4.9955,4.9876,4.9876,4.9876,4.9876,4.9876,4.9876,4.9718,4.9473,4.9473,4.9094,4.8478,4.8857,4.878,4.8382,4.9026,4.9083,4.8874,4.9927,5.0535,5.0841,5.152,5.2021,5.2373]}]]